Darstellungsparameter: Aktuell verwendete Einstellungen:
Skalierung der Graphiken ... ?
xyx+y,   Skalierungsfaktor:      Skalierung: Modus: x, Faktor: 1
Darstellungszeitraum ... ?
Vom - - bis: - -   Zeitraum: 25.08.2019 - 24.09.2019
Min/Max/Avg-Anzeige ... ?
Zeige MMA aktuell
Zeige MMA Monat
Zeige MMA alles
Zeige --A aktuell
Zeige --A Monat
Zeige --A alles
Keine MMA-Anzeige
MMA:
Keine MMA-Graphiken
MMA-Basis: 25.08.2019 - 24.09.2019
Quicknavigation für Darstellung... ?
Tage:      1T, 2T, 3T, 5T -1T -2T -3T -5T +1T +2T +3T +5T
Wochen: 1W, 2W, 3W -1W -2W -3W +1W +2W +3W
Monate: 1M, 3M, 6M -1M -3M -6M +1M +3M +6M
Jahre:    1J, 3J, 5J, 10J -1J -3J -5J -10J +1J +3J +5J +10J
Nutze für die Darstellung ... ?
Originaldaten oder Mittelwerte auf ...
Stundenbasis Tagesbasis Wochenbasis
Monatsbasis Jahresbasis      Datenbasis: Original-Daten
Darstellen als:
Statistik (Auto) Statistik J:M      Darstellung:
Zur Graphik,    zurück zur Übersicht aller Sensoren.
 
Tabellarische Datenbersicht: ?
 
Sensor: Nr:Datum:Temp:Feuchte:
Aussen-T/F 1 25-08-2019 00:08:17 17.1 C 31 %
2 25-08-2019 00:20:17 17.1 C 31 %
3 25-08-2019 00:32:17 17 C 32 %
4 25-08-2019 00:44:17 17 C 32 %
5 25-08-2019 00:56:18 16.8 C 33 %
6 25-08-2019 01:08:17 16.6 C 34 %
7 25-08-2019 01:20:18 16.4 C 35 %
8 25-08-2019 01:32:17 16.6 C 35 %
9 25-08-2019 01:44:17 16.5 C 35 %
10 25-08-2019 01:56:17 16.7 C 34 %
11 25-08-2019 02:08:17 16.2 C 35 %
12 25-08-2019 02:20:17 15.8 C 37 %
13 25-08-2019 02:32:17 15.5 C 37 %
14 25-08-2019 02:44:18 15.4 C 39 %
15 25-08-2019 02:56:17 15.3 C 39 %
16 25-08-2019 03:08:17 15.2 C 40 %
17 25-08-2019 03:20:17 15.1 C 40 %
18 25-08-2019 03:32:17 15.3 C 40 %
19 25-08-2019 03:44:17 15.7 C 39 %
20 25-08-2019 03:56:18 15.4 C 38 %
21 25-08-2019 04:08:17 15.1 C 40 %
22 25-08-2019 04:20:18 15 C 40 %
23 25-08-2019 04:32:17 14.9 C 41 %
24 25-08-2019 04:44:17 14.9 C 41 %
25 25-08-2019 04:56:17 14.6 C 41 %
Sensor: Nr:Datum:Temp:Feuchte:
Aussen-T/F 26 25-08-2019 05:08:17 14.7 C 42 %
27 25-08-2019 05:20:17 14.5 C 42 %
28 25-08-2019 05:32:17 14.6 C 42 %
29 25-08-2019 05:44:17 14.4 C 42 %
30 25-08-2019 05:56:17 14.3 C 43 %
31 25-08-2019 06:08:17 14.5 C 43 %
32 25-08-2019 06:20:18 14.2 C 42 %
33 25-08-2019 06:32:17 14.2 C 44 %
34 25-08-2019 06:44:17 14.3 C 43 %
35 25-08-2019 06:56:17 14.4 C 43 %
36 25-08-2019 07:08:17 14.8 C 43 %
37 25-08-2019 07:20:17 14.8 C 42 %
38 25-08-2019 07:32:18 15 C 42 %
39 25-08-2019 07:44:18 15.2 C 42 %
40 25-08-2019 07:56:17 15.7 C 39 %
41 25-08-2019 08:08:17 15.9 C 38 %
42 25-08-2019 08:20:17 16.2 C 38 %
43 25-08-2019 08:32:17 16.4 C 37 %
44 25-08-2019 08:44:17 16.7 C 37 %
45 25-08-2019 08:56:18 16.9 C 37 %
46 25-08-2019 09:08:17 17.1 C 36 %
47 25-08-2019 09:20:18 17.5 C 36 %
48 25-08-2019 09:32:17 17.8 C 35 %
49 25-08-2019 09:44:17 18 C 33 %
50 25-08-2019 09:56:17 18.3 C 31 %
Sensor: Nr:Datum:Temp:Feuchte:
Aussen-T/F 51 25-08-2019 10:08:17 18.6 C 31 %
52 25-08-2019 10:20:17 19 C 31 %
53 25-08-2019 10:32:17 19.3 C 30 %
54 25-08-2019 10:44:17 19.9 C 30 %
55 25-08-2019 10:56:17 20.6 C 29 %
56 25-08-2019 11:08:17 22.2 C 26 %
57 25-08-2019 11:20:18 22.8 C 22 %
58 25-08-2019 11:32:17 22.9 C 22 %
59 25-08-2019 11:44:18 22.9 C 23 %
60 25-08-2019 11:56:17 23.6 C 21 %
61 25-08-2019 12:08:18 24.2 C 20 %
62 25-08-2019 12:20:17 24.7 C 20 %
63 25-08-2019 12:32:18 25.2 C 20 %
64 25-08-2019 12:44:18 25.6 C 20 %
65 25-08-2019 12:56:17 25.7 C 20 %
66 25-08-2019 13:08:17 25.9 C 20 %
67 25-08-2019 13:20:17 26.8 C 20 %
68 25-08-2019 13:32:17 27 C 20 %
69 25-08-2019 13:44:17 27.2 C 20 %
70 25-08-2019 13:56:17 27.5 C 20 %
71 25-08-2019 14:08:18 28 C 20 %
72 25-08-2019 14:20:17 28.1 C 20 %
73 25-08-2019 14:32:17 27.9 C 20 %
74 25-08-2019 14:44:17 29.5 C 20 %
75 25-08-2019 14:56:17 30 C 20 %
Sensor: Nr:Datum:Temp:Feuchte:
Aussen-T/F 76 25-08-2019 15:08:18 30.6 C 20 %
77 25-08-2019 15:20:17 30.7 C 20 %
78 25-08-2019 15:32:18 31.2 C 20 %
79 25-08-2019 15:44:18 31.6 C 20 %
80 25-08-2019 15:56:17 32.1 C 20 %
81 25-08-2019 16:08:17 32.5 C 20 %
82 25-08-2019 16:20:18 31.4 C 20 %
83 25-08-2019 16:32:17 31.1 C 20 %
84 25-08-2019 16:44:17 31.1 C 20 %
85 25-08-2019 16:56:18 31.3 C 20 %
86 25-08-2019 17:08:17 31.9 C 20 %
87 25-08-2019 17:20:17 32.3 C 20 %
88 25-08-2019 17:32:18 32.3 C 20 %
89 25-08-2019 17:44:18 32.6 C 20 %
90 25-08-2019 17:56:17 31.5 C 20 %
91 25-08-2019 18:08:18 30.2 C 20 %
92 25-08-2019 18:20:18 29.4 C 20 %
93 25-08-2019 18:32:17 29.5 C 20 %
94 25-08-2019 18:44:17 28.9 C 20 %
95 25-08-2019 18:56:18 28.2 C 20 %
96 25-08-2019 19:08:17 27.6 C 20 %
97 25-08-2019 19:20:18 27 C 20 %
98 25-08-2019 19:32:17 25.8 C 20 %
99 25-08-2019 19:44:17 25 C 20 %
100 25-08-2019 19:56:18 24.8 C 20 %
Sensor: Nr:Datum:Temp:Feuchte:
Aussen-T/F 101 25-08-2019 20:08:17 24.1 C 20 %
102 25-08-2019 20:20:18 24 C 21 %
103 25-08-2019 20:32:17 23.8 C 23 %
104 25-08-2019 20:44:17 23.4 C 25 %
105 25-08-2019 20:56:17 23.3 C 25 %
106 25-08-2019 21:08:17 23.1 C 25 %
107 25-08-2019 21:20:17 22.9 C 26 %
108 25-08-2019 21:32:18 22.5 C 27 %
109 25-08-2019 21:44:18 22 C 29 %
110 25-08-2019 21:56:17 21.6 C 31 %
111 25-08-2019 22:08:18 21.2 C 32 %
112 25-08-2019 22:20:17 21.1 C 32 %
113 25-08-2019 22:32:18 20.7 C 35 %
114 25-08-2019 22:44:18 20.4 C 35 %
115 25-08-2019 22:56:17 20.1 C 36 %
116 25-08-2019 23:08:18 19.9 C 37 %
117 25-08-2019 23:20:17 19.7 C 37 %
118 25-08-2019 23:32:18 19.5 C 38 %
119 25-08-2019 23:44:18 19.5 C 38 %
120 25-08-2019 23:56:17 19.4 C 39 %
121 26-08-2019 00:08:18 19.3 C 40 %
122 26-08-2019 00:20:17 19.2 C 40 %
123 26-08-2019 00:32:17 19.1 C 40 %
124 26-08-2019 00:44:17 19.1 C 41 %
125 26-08-2019 00:56:18 19.1 C 40 %
Sensor: Nr:Datum:Temp:Feuchte:
Aussen-T/F 126 26-08-2019 01:08:17 18.8 C 41 %
127 26-08-2019 01:20:18 18.7 C 41 %
128 26-08-2019 01:32:17 18.7 C 42 %
129 26-08-2019 01:44:17 18.5 C 41 %
130 26-08-2019 01:56:17 18.4 C 42 %
131 26-08-2019 02:08:17 18.1 C 43 %
132 26-08-2019 02:20:17 18 C 44 %
133 26-08-2019 02:32:17 18.1 C 43 %
134 26-08-2019 02:44:17 18.2 C 45 %
135 26-08-2019 02:56:17 18.2 C 43 %
136 26-08-2019 03:08:17 18 C 42 %
137 26-08-2019 03:20:17 17.7 C 44 %
138 26-08-2019 03:32:17 17.6 C 45 %
139 26-08-2019 03:44:18 17.4 C 45 %
140 26-08-2019 03:56:17 17.3 C 45 %
141 26-08-2019 04:08:17 17.2 C 46 %
142 26-08-2019 04:20:17 17.2 C 46 %
143 26-08-2019 04:32:17 17.1 C 46 %
144 26-08-2019 04:44:17 17 C 46 %
145 26-08-2019 04:56:18 16.9 C 47 %
146 26-08-2019 05:08:17 16.8 C 47 %
147 26-08-2019 05:20:17 17.2 C 48 %
148 26-08-2019 05:32:17 17 C 46 %
149 26-08-2019 05:44:17 16.8 C 46 %
150 26-08-2019 05:56:18 16.6 C 46 %
Sensor: Nr:Datum:Temp:Feuchte:
Aussen-T/F 151 26-08-2019 06:08:17 16.7 C 47 %
152 26-08-2019 06:20:18 16.4 C 46 %
153 26-08-2019 06:32:17 16.5 C 48 %
154 26-08-2019 06:44:17 16.4 C 47 %
155 26-08-2019 06:56:17 16.5 C 48 %
156 26-08-2019 07:08:17 16.4 C 47 %
157 26-08-2019 07:20:17 16.6 C 47 %
158 26-08-2019 07:32:17 16.7 C 47 %
159 26-08-2019 07:44:17 16.8 C 48 %
160 26-08-2019 07:56:17 16.8 C 48 %
161 26-08-2019 08:08:17 17.5 C 47 %
162 26-08-2019 08:20:17 17.7 C 46 %
163 26-08-2019 08:32:17 17.9 C 46 %
164 26-08-2019 08:44:17 18.1 C 45 %
165 26-08-2019 08:56:17 18.3 C 44 %
166 26-08-2019 09:08:17 18.5 C 44 %
167 26-08-2019 09:20:17 18.8 C 44 %
168 26-08-2019 09:32:17 19.1 C 43 %
169 26-08-2019 09:44:17 19.5 C 42 %
170 26-08-2019 09:56:18 19.8 C 40 %
171 26-08-2019 10:08:17 20 C 39 %
172 26-08-2019 10:20:17 20.6 C 37 %
173 26-08-2019 10:32:17 21 C 35 %
174 26-08-2019 10:44:17 21.6 C 35 %
175 26-08-2019 10:56:18 22.6 C 30 %
Sensor: Nr:Datum:Temp:Feuchte:
Aussen-T/F 176 26-08-2019 11:08:17 25.1 C 24 %
177 26-08-2019 11:20:18 23.7 C 26 %
178 26-08-2019 11:32:17 23.7 C 27 %
179 26-08-2019 11:44:17 24.1 C 26 %
180 26-08-2019 11:56:17 24.7 C 25 %
181 26-08-2019 12:08:17 25 C 24 %
182 26-08-2019 12:20:17 25.5 C 22 %
183 26-08-2019 12:32:17 25.9 C 22 %
184 26-08-2019 12:44:17 26.5 C 21 %
185 26-08-2019 12:56:17 27.1 C 20 %
186 26-08-2019 13:08:18 27.5 C 20 %
187 26-08-2019 13:20:17 28.2 C 20 %
188 26-08-2019 13:32:17 28.7 C 20 %
189 26-08-2019 13:44:17 28.7 C 20 %
190 26-08-2019 13:56:17 29.2 C 20 %
191 26-08-2019 14:08:18 29.2 C 20 %
192 26-08-2019 14:20:17 29.6 C 20 %
193 26-08-2019 14:32:17 29.8 C 20 %
194 26-08-2019 14:44:17 30.9 C 20 %
195 26-08-2019 14:56:17 31.2 C 20 %
196 26-08-2019 15:08:17 32.2 C 20 %
197 26-08-2019 15:20:18 31.8 C 20 %
198 26-08-2019 15:32:17 30.5 C 20 %
199 26-08-2019 15:44:17 29.3 C 20 %
200 26-08-2019 15:56:18 29 C 20 %
Sensor: Nr:Datum:Temp:Feuchte:
Aussen-T/F 201 26-08-2019 16:08:17 28.8 C 20 %
202 26-08-2019 16:20:17 28.4 C 20 %
203 26-08-2019 16:32:17 28.2 C 20 %
204 26-08-2019 16:44:17 28 C 20 %
205 26-08-2019 16:56:17 27.9 C 20 %
206 26-08-2019 17:08:17 27.5 C 20 %
207 26-08-2019 17:20:17 26.9 C 20 %
208 26-08-2019 17:32:17 26.5 C 20 %
209 26-08-2019 17:44:17 26.1 C 20 %
210 26-08-2019 17:56:17 26 C 20 %
211 26-08-2019 18:08:17 25.8 C 21 %
212 26-08-2019 18:20:17 26.6 C 20 %
213 26-08-2019 18:32:17 27.4 C 20 %
214 26-08-2019 18:44:17 28.1 C 20 %
215 26-08-2019 18:56:17 28.4 C 20 %
216 26-08-2019 19:08:17 27.6 C 20 %
217 26-08-2019 19:20:17 26.9 C 20 %
218 26-08-2019 19:32:17 26.3 C 20 %
219 26-08-2019 19:44:17 25.8 C 21 %
220 26-08-2019 19:56:18 25.3 C 22 %
221 26-08-2019 20:08:17 24.8 C 23 %
222 26-08-2019 20:20:17 23.6 C 25 %
223 26-08-2019 20:32:17 23.5 C 26 %
224 26-08-2019 20:44:18 23.1 C 26 %
225 26-08-2019 20:56:17 22.6 C 29 %
Sensor: Nr:Datum:Temp:Feuchte:
Aussen-T/F 226 26-08-2019 21:08:17 22.5 C 30 %
227 26-08-2019 21:20:17 21.9 C 31 %
228 26-08-2019 21:32:17 21.5 C 32 %
229 26-08-2019 21:44:17 21.5 C 32 %
230 26-08-2019 21:56:17 21.2 C 34 %
231 26-08-2019 22:08:17 20.9 C 36 %
232 26-08-2019 22:20:17 20.7 C 36 %
233 26-08-2019 22:32:17 20.6 C 36 %
234 26-08-2019 22:44:17 20.1 C 38 %
235 26-08-2019 22:56:18 20.1 C 39 %
236 26-08-2019 23:08:17 19.8 C 40 %
237 26-08-2019 23:20:18 19.8 C 40 %
238 26-08-2019 23:32:17 19.5 C 41 %
239 26-08-2019 23:44:17 19.5 C 41 %
240 26-08-2019 23:56:17 19.5 C 41 %
241 27-08-2019 00:08:17 19.2 C 42 %
242 27-08-2019 00:20:17 18.9 C 43 %
243 27-08-2019 00:32:18 18.8 C 43 %
244 27-08-2019 00:44:18 18.7 C 44 %
245 27-08-2019 00:56:17 18.7 C 45 %
246 27-08-2019 01:08:18 18.9 C 45 %
247 27-08-2019 01:20:17 18.9 C 45 %
248 27-08-2019 01:32:18 18.7 C 44 %
249 27-08-2019 01:44:18 18.3 C 45 %
250 27-08-2019 01:56:17 18.2 C 45 %
Sensor: Nr:Datum:Temp:Feuchte:
Aussen-T/F 251 27-08-2019 02:08:17 18.1 C 46 %
252 27-08-2019 02:20:17 18.1 C 46 %
253 27-08-2019 02:32:18 18 C 46 %
254 27-08-2019 02:44:18 17.8 C 46 %
255 27-08-2019 02:56:17 17.7 C 46 %
256 27-08-2019 03:08:18 17.5 C 46 %
257 27-08-2019 03:20:17 17.5 C 47 %
258 27-08-2019 03:32:18 17.5 C 47 %
259 27-08-2019 03:44:18 17.6 C 48 %
260 27-08-2019 03:56:17 17.9 C 48 %
261 27-08-2019 04:08:18 17.6 C 47 %
262 27-08-2019 04:20:17 17.4 C 46 %
263 27-08-2019 04:32:18 17.1 C 46 %
264 27-08-2019 04:44:18 16.9 C 47 %
265 27-08-2019 04:56:17 16.8 C 47 %
266 27-08-2019 05:08:18 16.8 C 48 %
267 27-08-2019 05:20:17 16.7 C 47 %
268 27-08-2019 05:32:18 17 C 48 %
269 27-08-2019 05:44:18 16.8 C 48 %
270 27-08-2019 05:56:17 16.8 C 48 %
271 27-08-2019 06:08:18 16.6 C 48 %
272 27-08-2019 06:20:17 16.5 C 48 %
273 27-08-2019 06:32:18 16.4 C 48 %
274 27-08-2019 06:44:18 16.3 C 48 %
275 27-08-2019 06:56:17 16.3 C 48 %
Sensor: Nr:Datum:Temp:Feuchte:
Aussen-T/F 276 27-08-2019 07:08:17 16.7 C 49 %
277 27-08-2019 07:20:17 16.8 C 49 %
278 27-08-2019 07:32:17 16.6 C 48 %
279 27-08-2019 07:44:17 16.7 C 48 %
280 27-08-2019 07:56:17 16.7 C 48 %
281 27-08-2019 08:08:18 17 C 48 %
282 27-08-2019 08:20:17 17.2 C 48 %
283 27-08-2019 08:32:18 17.5 C 48 %
284 27-08-2019 08:44:18 17.7 C 48 %
285 27-08-2019 08:56:17 18 C 47 %
286 27-08-2019 09:08:17 18.3 C 47 %
287 27-08-2019 09:20:17 18.5 C 47 %
288 27-08-2019 09:32:18 18.5 C 47 %
289 27-08-2019 09:44:18 19.2 C 46 %
290 27-08-2019 09:56:17 19.5 C 44 %
291 27-08-2019 10:08:18 19.7 C 43 %
292 27-08-2019 10:20:17 20.2 C 39 %
293 27-08-2019 10:32:17 20.9 C 37 %
294 27-08-2019 10:44:17 21.5 C 35 %
295 27-08-2019 10:56:17 22.4 C 32 %
296 27-08-2019 11:08:18 23.9 C 27 %
297 27-08-2019 11:20:17 23.6 C 28 %
298 27-08-2019 11:32:17 23.6 C 28 %
299 27-08-2019 11:44:17 23.7 C 28 %
300 27-08-2019 11:56:17 24.1 C 28 %
Sensor: Nr:Datum:Temp:Feuchte:
Aussen-T/F 301 27-08-2019 12:08:18 24.8 C 27 %
302 27-08-2019 12:20:17 25.3 C 26 %
303 27-08-2019 12:32:18 25.6 C 25 %
304 27-08-2019 12:44:18 26.3 C 21 %
305 27-08-2019 12:56:17 26.8 C 22 %
306 27-08-2019 13:08:17 28.2 C 20 %
307 27-08-2019 13:20:18 28.8 C 20 %
308 27-08-2019 13:32:17 28.8 C 20 %
309 27-08-2019 13:44:17 28.9 C 20 %
310 27-08-2019 13:56:18 28.9 C 20 %
311 27-08-2019 14:08:17 29.5 C 20 %
312 27-08-2019 14:21:17 30.3 C 20 %
313 27-08-2019 14:32:18 30.9 C 20 %
314 27-08-2019 14:44:18 31.4 C 20 %
315 27-08-2019 14:56:17 32.1 C 20 %
316 27-08-2019 15:09:17 32.2 C 20 %
317 27-08-2019 15:20:17 32.5 C 20 %
318 27-08-2019 15:33:17 32.5 C 20 %
319 27-08-2019 15:44:17 33.2 C 20 %
320 27-08-2019 15:56:17 33.4 C 20 %
321 27-08-2019 16:09:17 33.4 C 20 %
322 27-08-2019 16:20:17 33.4 C 20 %
323 27-08-2019 16:33:17 33.5 C 20 %
324 27-08-2019 16:45:17 33.6 C 20 %
325 27-08-2019 16:56:17 33.9 C 20 %
Sensor: Nr:Datum:Temp:Feuchte:
Aussen-T/F 326 27-08-2019 17:08:18 33.9 C 20 %
327 27-08-2019 17:20:17 32.7 C 20 %
328 27-08-2019 17:33:17 31.2 C 20 %
329 27-08-2019 17:44:17 28.6 C 20 %
330 27-08-2019 17:56:17 28.6 C 20 %
331 27-08-2019 18:08:18 27.2 C 20 %
332 27-08-2019 18:20:17 28.3 C 20 %
333 27-08-2019 18:32:17 31.2 C 20 %
334 27-08-2019 18:44:18 31.2 C 20 %
335 27-08-2019 18:57:17 29.5 C 20 %
336 27-08-2019 19:08:17 28.7 C 20 %
337 27-08-2019 19:21:17 28.3 C 20 %
338 27-08-2019 19:32:17 25.2 C 24 %
339 27-08-2019 19:44:17 24 C 28 %
340 27-08-2019 19:57:17 24.1 C 30 %
341 27-08-2019 20:09:17 23.6 C 31 %
342 27-08-2019 20:20:18 23.1 C 31 %
343 27-08-2019 20:33:17 22.7 C 33 %
344 27-08-2019 20:44:17 22.4 C 32 %
345 27-08-2019 20:56:17 22 C 34 %
346 27-08-2019 21:09:17 21.9 C 35 %
347 27-08-2019 21:20:17 22.4 C 34 %
348 27-08-2019 21:33:17 22.2 C 32 %
349 27-08-2019 21:45:17 21.7 C 35 %
350 27-08-2019 21:56:17 21.2 C 35 %
Sensor: Nr:Datum:Temp:Feuchte:
Aussen-T/F 351 27-08-2019 22:09:17 20.9 C 37 %
352 27-08-2019 22:20:18 21.1 C 38 %
353 27-08-2019 22:33:17 20.7 C 38 %
354 27-08-2019 22:44:18 20.6 C 39 %
355 27-08-2019 22:56:18 20.5 C 39 %
356 27-08-2019 23:09:17 20.5 C 39 %
357 27-08-2019 23:21:17 20.6 C 40 %
358 27-08-2019 23:33:17 20.5 C 38 %
359 27-08-2019 23:45:17 19.8 C 40 %
360 27-08-2019 23:57:17 19.6 C 41 %
361 28-08-2019 00:09:17 20 C 41 %
362 28-08-2019 00:21:17 19.6 C 41 %
363 28-08-2019 00:33:17 19.7 C 43 %
364 28-08-2019 00:45:17 19.5 C 42 %
365 28-08-2019 00:57:17 19.5 C 42 %
366 28-08-2019 01:09:17 19.3 C 43 %
367 28-08-2019 01:21:17 19.5 C 44 %
368 28-08-2019 01:33:17 19.6 C 44 %
369 28-08-2019 01:45:17 19.5 C 43 %
370 28-08-2019 01:57:17 19.4 C 43 %
371 28-08-2019 02:09:18 19.3 C 44 %
372 28-08-2019 02:21:17 19.1 C 45 %
373 28-08-2019 02:33:18 19.1 C 45 %
374 28-08-2019 02:45:17 18.9 C 45 %
375 28-08-2019 02:57:17 18.7 C 45 %
Sensor: Nr:Datum:Temp:Feuchte:
Aussen-T/F 376 28-08-2019 03:09:17 18.7 C 45 %
377 28-08-2019 03:21:18 18.5 C 46 %
378 28-08-2019 03:33:17 18.5 C 45 %
379 28-08-2019 03:45:17 18.8 C 47 %
380 28-08-2019 03:57:17 18.5 C 45 %
381 28-08-2019 04:09:17 18.2 C 45 %
382 28-08-2019 04:21:18 18.1 C 45 %
383 28-08-2019 04:33:17 17.8 C 46 %
384 28-08-2019 04:45:17 17.8 C 47 %
385 28-08-2019 04:57:17 17.9 C 47 %
386 28-08-2019 05:09:17 17.8 C 47 %
387 28-08-2019 05:21:18 17.8 C 47 %
388 28-08-2019 05:33:17 17.7 C 47 %
389 28-08-2019 05:45:18 17.8 C 47 %
390 28-08-2019 05:57:18 17.8 C 47 %
391 28-08-2019 06:09:17 17.8 C 47 %
392 28-08-2019 06:21:17 18.2 C 47 %
393 28-08-2019 06:33:17 17.9 C 47 %
394 28-08-2019 06:45:18 17.7 C 47 %
395 28-08-2019 06:57:18 17.7 C 47 %
396 28-08-2019 07:09:17 17.7 C 47 %
397 28-08-2019 07:21:18 17.9 C 47 %
398 28-08-2019 07:33:17 17.9 C 47 %
399 28-08-2019 07:45:17 17.8 C 47 %
400 28-08-2019 07:57:17 17.9 C 47 %
Sensor: Nr:Datum:Temp:Feuchte:
Aussen-T/F 401 28-08-2019 08:09:17 18.9 C 47 %
402 28-08-2019 08:21:18 19.1 C 44 %
403 28-08-2019 08:33:17 19.3 C 42 %
404 28-08-2019 08:45:17 19.5 C 40 %
405 28-08-2019 08:57:17 19.6 C 41 %
406 28-08-2019 09:09:17 19.6 C 41 %
407 28-08-2019 09:21:17 20.2 C 37 %
408 28-08-2019 09:33:17 20.9 C 38 %
409 28-08-2019 09:45:18 21.5 C 30 %
410 28-08-2019 09:57:18 22.1 C 28 %
411 28-08-2019 10:09:17 22.9 C 25 %
412 28-08-2019 10:21:18 23.2 C 22 %
413 28-08-2019 10:33:17 23.2 C 22 %
414 28-08-2019 10:45:17 23.2 C 22 %
415 28-08-2019 10:57:18 23.8 C 21 %
416 28-08-2019 11:09:17 24.2 C 20 %
417 28-08-2019 11:21:17 24.3 C 21 %
418 28-08-2019 11:33:17 24.3 C 21 %
419 28-08-2019 11:45:18 24.3 C 20 %
420 28-08-2019 11:57:18 24.1 C 21 %
421 28-08-2019 12:09:17 23.9 C 25 %
422 28-08-2019 12:21:18 24.2 C 20 %
423 28-08-2019 12:33:17 25.2 C 20 %
424 28-08-2019 12:45:17 25.7 C 20 %
425 28-08-2019 12:57:17 25.9 C 20 %
Sensor: Nr:Datum:Temp:Feuchte:
Aussen-T/F 426 28-08-2019 13:09:17 26 C 20 %
427 28-08-2019 13:21:18 26.3 C 20 %
428 28-08-2019 13:33:17 27.2 C 20 %
429 28-08-2019 13:45:17 27.7 C 20 %
430 28-08-2019 13:57:17 28.1 C 20 %
431 28-08-2019 14:09:17 28.8 C 20 %
432 28-08-2019 14:21:18 29 C 20 %
433 28-08-2019 14:33:17 29.6 C 20 %
434 28-08-2019 14:45:18 30.4 C 20 %
435 28-08-2019 14:57:18 30.7 C 20 %
436 28-08-2019 15:09:17 30.7 C 20 %
437 28-08-2019 15:21:18 30.5 C 20 %
438 28-08-2019 15:33:17 31.3 C 20 %
439 28-08-2019 15:45:18 31.6 C 20 %
440 28-08-2019 15:57:18 31.6 C 20 %
441 28-08-2019 16:09:17 32.1 C 20 %
442 28-08-2019 16:21:17 32.6 C 20 %
443 28-08-2019 16:33:17 32.4 C 20 %
444 28-08-2019 16:45:18 32.4 C 20 %
445 28-08-2019 16:57:18 32 C 20 %
446 28-08-2019 17:09:17 31.8 C 20 %
447 28-08-2019 17:21:17 32.3 C 20 %
448 28-08-2019 17:33:17 32.5 C 20 %
449 28-08-2019 17:45:17 32.7 C 20 %
450 28-08-2019 17:57:17 32.7 C 20 %
Sensor: Nr:Datum:Temp:Feuchte:
Aussen-T/F 451 28-08-2019 18:09:17 32.1 C 20 %
452 28-08-2019 18:21:17 31.5 C 20 %
453 28-08-2019 18:33:17 30.8 C 20 %
454 28-08-2019 18:45:18 30 C 20 %
455 28-08-2019 18:57:18 29.1 C 20 %
456 28-08-2019 19:09:17 28.3 C 20 %
457 28-08-2019 19:21:17 27.2 C 20 %
458 28-08-2019 19:33:17 26.9 C 20 %
459 28-08-2019 19:45:17 26.3 C 20 %
460 28-08-2019 19:57:17 25.8 C 20 %
461 28-08-2019 20:09:18 25.7 C 20 %
462 28-08-2019 20:21:17 25.2 C 20 %
463 28-08-2019 20:33:18 24.9 C 20 %
464 28-08-2019 20:45:17 24.6 C 20 %
465 28-08-2019 20:57:17 24.3 C 20 %
466 28-08-2019 21:09:18 24 C 20 %
467 28-08-2019 21:21:17 24 C 20 %
468 28-08-2019 21:33:17 24 C 20 %
469 28-08-2019 21:45:18 23.3 C 20 %
470 28-08-2019 21:57:18 22.7 C 20 %
471 28-08-2019 22:09:17 22.2 C 20 %
472 28-08-2019 22:21:17 22.2 C 20 %
473 28-08-2019 22:33:17 22 C 22 %
474 28-08-2019 22:45:18 21.8 C 23 %
475 28-08-2019 22:57:18 21.6 C 24 %
Sensor: Nr:Datum:Temp:Feuchte:
Aussen-T/F 476 28-08-2019 23:09:17 21.5 C 24 %
477 28-08-2019 23:21:17 21.2 C 25 %
478 28-08-2019 23:33:17 21.1 C 25 %
479 28-08-2019 23:45:17 21 C 25 %
480 28-08-2019 23:57:17 20.8 C 26 %
481 29-08-2019 00:09:17 20.7 C 27 %
482 29-08-2019 00:21:17 20.5 C 27 %
483 29-08-2019 00:33:17 20.6 C 28 %
484 29-08-2019 00:45:17 20.5 C 28 %
485 29-08-2019 00:57:17 20.4 C 28 %
486 29-08-2019 01:09:17 20.3 C 28 %
487 29-08-2019 01:21:17 20 C 29 %
488 29-08-2019 01:33:17 19.6 C 30 %
489 29-08-2019 01:45:17 19.4 C 31 %
490 29-08-2019 01:57:17 19.5 C 31 %
491 29-08-2019 02:09:17 19.2 C 31 %
492 29-08-2019 02:21:17 19 C 31 %
493 29-08-2019 02:33:17 19 C 33 %
494 29-08-2019 02:45:17 18.9 C 33 %
495 29-08-2019 02:57:17 18.4 C 34 %
496 29-08-2019 03:09:18 18.2 C 35 %
497 29-08-2019 03:21:17 18 C 35 %
498 29-08-2019 03:33:17 17.8 C 36 %
499 29-08-2019 03:45:17 17.7 C 37 %
500 29-08-2019 03:57:17 17.7 C 38 %
Sensor: Nr:Datum:Temp:Feuchte:
Aussen-T/F 501 29-08-2019 04:09:18 17.5 C 38 %
502 29-08-2019 04:21:17 17.4 C 39 %
503 29-08-2019 04:33:17 17.2 C 40 %
504 29-08-2019 04:45:17 17.2 C 40 %
505 29-08-2019 04:57:17 17.4 C 40 %
506 29-08-2019 05:09:17 17.9 C 41 %
507 29-08-2019 05:21:17 18 C 40 %
508 29-08-2019 05:33:18 18.1 C 40 %
509 29-08-2019 05:45:17 18.4 C 40 %
510 29-08-2019 05:57:17 18.4 C 40 %
511 29-08-2019 06:09:17 18.8 C 39 %
512 29-08-2019 06:21:17 18.9 C 39 %
513 29-08-2019 06:33:17 18.4 C 38 %
514 29-08-2019 06:45:17 18.7 C 41 %
515 29-08-2019 06:57:17 18.9 C 38 %
516 29-08-2019 07:09:17 19.2 C 38 %
517 29-08-2019 07:21:17 19.3 C 38 %
518 29-08-2019 07:33:17 19 C 38 %
519 29-08-2019 07:45:18 19.2 C 40 %
520 29-08-2019 07:57:18 19.7 C 37 %
521 29-08-2019 08:09:17 20 C 35 %
522 29-08-2019 08:21:17 20.1 C 35 %
523 29-08-2019 08:33:17 20.3 C 34 %
524 29-08-2019 08:45:18 20.4 C 34 %
525 29-08-2019 08:57:18 20.8 C 33 %
Sensor: Nr:Datum:Temp:Feuchte:
Aussen-T/F 526 29-08-2019 09:09:17 20.8 C 31 %
527 29-08-2019 09:21:17 21.1 C 30 %
528 29-08-2019 09:33:17 21.2 C 31 %
529 29-08-2019 09:45:17 21.5 C 30 %
530 29-08-2019 09:57:17 21.7 C 29 %
531 29-08-2019 10:09:17 21.1 C 30 %
532 29-08-2019 10:21:17 20.1 C 40 %
533 29-08-2019 10:33:17 20.5 C 40 %
534 29-08-2019 10:45:17 21.3 C 35 %
535 29-08-2019 10:57:17 21.9 C 31 %
536 29-08-2019 11:09:17 22.3 C 28 %
537 29-08-2019 11:21:17 22.5 C 27 %
538 29-08-2019 11:33:17 23 C 26 %
539 29-08-2019 11:45:18 23.3 C 25 %
540 29-08-2019 11:57:18 23.3 C 25 %
541 29-08-2019 12:09:17 23.4 C 25 %
542 29-08-2019 12:21:17 23.6 C 25 %
543 29-08-2019 12:33:17 23.8 C 23 %
544 29-08-2019 12:45:17 24.3 C 22 %
545 29-08-2019 12:57:17 24.5 C 22 %
546 29-08-2019 13:09:17 25.2 C 20 %
547 29-08-2019 13:21:17 25.5 C 20 %
548 29-08-2019 13:33:17 25.9 C 20 %
549 29-08-2019 13:45:17 26.3 C 20 %
550 29-08-2019 13:57:18 26.8 C 20 %
Sensor: Nr:Datum:Temp:Feuchte:
Aussen-T/F 551 29-08-2019 14:09:17 27.4 C 20 %
552 29-08-2019 14:21:17 26.9 C 20 %
553 29-08-2019 14:33:17 27.2 C 20 %
554 29-08-2019 14:45:17 27.8 C 20 %
555 29-08-2019 14:57:17 28.1 C 20 %
556 29-08-2019 15:09:17 28.1 C 20 %
557 29-08-2019 15:21:17 28.8 C 20 %
558 29-08-2019 15:33:17 27.8 C 20 %
559 29-08-2019 15:45:18 28.6 C 20 %
560 29-08-2019 15:57:18 29.1 C 20 %
561 29-08-2019 16:09:17 28.8 C 20 %
562 29-08-2019 16:21:17 28.7 C 20 %
563 29-08-2019 16:33:17 28.6 C 20 %
564 29-08-2019 16:45:18 28.1 C 20 %
565 29-08-2019 16:57:18 28.1 C 20 %
566 29-08-2019 17:09:17 28 C 20 %
567 29-08-2019 17:21:17 27.2 C 20 %
568 29-08-2019 17:33:17 27.3 C 20 %
569 29-08-2019 17:45:17 28.1 C 20 %
570 29-08-2019 17:57:17 27.5 C 20 %
571 29-08-2019 18:09:17 27.2 C 20 %
572 29-08-2019 18:21:17 26.9 C 20 %
573 29-08-2019 18:33:17 26.4 C 20 %
574 29-08-2019 18:45:17 26.1 C 20 %
575 29-08-2019 18:57:17 25.8 C 20 %
Sensor: Nr:Datum:Temp:Feuchte:
Aussen-T/F 576 29-08-2019 19:09:17 25.3 C 20 %
577 29-08-2019 19:21:17 25.1 C 20 %
578 29-08-2019 19:33:17 25 C 20 %
579 29-08-2019 19:45:18 24.3 C 20 %
580 29-08-2019 19:57:18 24 C 20 %
581 29-08-2019 20:09:17 23.8 C 20 %
582 29-08-2019 20:21:17 22.9 C 20 %
583 29-08-2019 20:33:17 21.7 C 23 %
584 29-08-2019 20:45:17 21.2 C 25 %
585 29-08-2019 20:57:17 21 C 26 %
586 29-08-2019 21:09:17 20.9 C 27 %
587 29-08-2019 21:21:17 20.6 C 28 %
588 29-08-2019 21:33:17 20.6 C 28 %
589 29-08-2019 21:45:18 20.6 C 27 %
590 29-08-2019 21:57:18 20.7 C 27 %
591 29-08-2019 22:09:17 20.7 C 29 %
592 29-08-2019 22:21:17 20.5 C 29 %
593 29-08-2019 22:33:17 20.4 C 29 %
594 29-08-2019 22:45:17 20.2 C 30 %
595 29-08-2019 22:57:17 20.5 C 29 %
596 29-08-2019 23:09:17 20.6 C 30 %
597 29-08-2019 23:21:17 20.5 C 30 %
598 29-08-2019 23:33:17 20.4 C 30 %
599 29-08-2019 23:45:17 20.3 C 29 %
600 29-08-2019 23:57:17 20.5 C 27 %
Sensor: Nr:Datum:Temp:Feuchte:
Aussen-T/F 601 30-08-2019 00:09:17 20.6 C 27 %
602 30-08-2019 00:21:17 20.5 C 27 %
603 30-08-2019 00:33:17 20.1 C 28 %
604 30-08-2019 00:45:17 20 C 30 %
605 30-08-2019 00:57:17 19.7 C 31 %
606 30-08-2019 01:09:17 19.2 C 32 %
607 30-08-2019 01:21:18 19 C 34 %
608 30-08-2019 01:33:17 18.9 C 35 %
609 30-08-2019 01:45:17 18.9 C 35 %
610 30-08-2019 01:57:17 18.2 C 36 %
611 30-08-2019 02:09:18 17.9 C 38 %
612 30-08-2019 02:21:17 17.9 C 38 %
613 30-08-2019 02:33:17 17.9 C 38 %
614 30-08-2019 02:45:17 17.6 C 40 %
615 30-08-2019 02:57:17 17.4 C 40 %
616 30-08-2019 03:09:18 17.3 C 40 %
617 30-08-2019 03:21:17 17.3 C 40 %
618 30-08-2019 03:33:18 17 C 41 %
619 30-08-2019 03:45:17 17.1 C 42 %
620 30-08-2019 03:57:17 17.1 C 42 %
621 30-08-2019 04:09:18 16.8 C 42 %
622 30-08-2019 04:21:17 16.6 C 42 %
623 30-08-2019 04:33:17 16.3 C 43 %
624 30-08-2019 04:45:17 16 C 43 %
625 30-08-2019 04:57:17 15.9 C 45 %
Sensor: Nr:Datum:Temp:Feuchte:
Aussen-T/F 626 30-08-2019 05:09:18 15.6 C 45 %
627 30-08-2019 05:21:17 15.6 C 45 %
628 30-08-2019 05:33:17 15.6 C 46 %
629 30-08-2019 05:45:17 16.5 C 46 %
630 30-08-2019 05:57:17 16.8 C 45 %
631 30-08-2019 06:09:17 16.5 C 44 %
632 30-08-2019 06:21:18 15.9 C 44 %
633 30-08-2019 06:33:17 15.8 C 43 %
634 30-08-2019 06:45:17 15.4 C 45 %
635 30-08-2019 06:57:17 15.4 C 45 %
636 30-08-2019 07:09:17 15.3 C 46 %
637 30-08-2019 07:21:18 15.3 C 46 %
638 30-08-2019 07:33:17 15.4 C 46 %
639 30-08-2019 07:45:17 15.4 C 46 %
640 30-08-2019 07:57:17 16 C 45 %
641 30-08-2019 08:09:17 16 C 45 %
642 30-08-2019 08:21:18 16 C 45 %
643 30-08-2019 08:33:17 16.7 C 45 %
644 30-08-2019 08:45:17 17.4 C 44 %
645 30-08-2019 08:57:17 17.6 C 44 %
646 30-08-2019 09:09:17 18.3 C 34 %
647 30-08-2019 09:21:17 18.7 C 33 %
648 30-08-2019 09:33:17 19.3 C 31 %
649 30-08-2019 09:45:17 19.3 C 31 %
650 30-08-2019 09:57:17 19.5 C 28 %
Sensor: Nr:Datum:Temp:Feuchte:
Aussen-T/F 651 30-08-2019 10:09:18 19.6 C 28 %
652 30-08-2019 10:21:17 19.7 C 28 %
653 30-08-2019 10:33:18 20 C 27 %
654 30-08-2019 10:45:17 20.4 C 27 %
655 30-08-2019 10:57:17 20.4 C 27 %
656 30-08-2019 11:09:18 21.3 C 25 %
657 30-08-2019 11:21:17 21.4 C 24 %
658 30-08-2019 11:33:18 21.7 C 23 %
659 30-08-2019 11:45:17 21.7 C 23 %
660 30-08-2019 11:57:17 22 C 22 %
661 30-08-2019 12:09:18 22.2 C 21 %
662 30-08-2019 12:21:17 22.4 C 21 %
663 30-08-2019 12:33:17 22.7 C 21 %
664 30-08-2019 12:45:18 22.9 C 21 %
665 30-08-2019 12:57:18 23 C 20 %
666 30-08-2019 13:09:17 23 C 20 %
667 30-08-2019 13:21:17 23.6 C 20 %
668 30-08-2019 13:33:17 24.1 C 20 %
669 30-08-2019 13:45:17 24.5 C 20 %
670 30-08-2019 13:57:18 24.6 C 20 %
671 30-08-2019 14:09:17 25.1 C 20 %
672 30-08-2019 14:21:17 25.5 C 20 %
673 30-08-2019 14:33:17 25.7 C 20 %
674 30-08-2019 14:45:18 26 C 20 %
675 30-08-2019 14:57:18 26.5 C 20 %
Sensor: Nr:Datum:Temp:Feuchte:
Aussen-T/F 676 30-08-2019 15:09:17 26.8 C 20 %
677 30-08-2019 15:21:17 27.3 C 20 %
678 30-08-2019 15:33:17 27.8 C 20 %
679 30-08-2019 15:45:18 28.1 C 20 %
680 30-08-2019 15:57:18 28.3 C 20 %
681 30-08-2019 16:09:17 28.2 C 20 %
682 30-08-2019 16:21:17 28.5 C 20 %
683 30-08-2019 16:33:17 28.8 C 20 %
684 30-08-2019 16:45:18 29 C 20 %
685 30-08-2019 16:57:18 29.7 C 20 %
686 30-08-2019 17:09:17 29.9 C 20 %
687 30-08-2019 17:21:17 29.6 C 20 %
688 30-08-2019 17:33:17 30 C 20 %
689 30-08-2019 17:45:18 29.8 C 20 %
690 30-08-2019 17:57:18 30.4 C 20 %
691 30-08-2019 18:09:17 30.8 C 20 %
692 30-08-2019 18:21:17 29.4 C 20 %
693 30-08-2019 18:33:17 29.4 C 20 %
694 30-08-2019 18:45:17 29 C 20 %
695 30-08-2019 18:57:18 28.7 C 20 %
696 30-08-2019 19:09:17 28.3 C 20 %
697 30-08-2019 19:21:17 27.3 C 20 %
698 30-08-2019 19:33:17 25.6 C 20 %
699 30-08-2019 19:45:18 24.9 C 20 %
700 30-08-2019 19:57:18 23.7 C 20 %
Sensor: Nr:Datum:Temp:Feuchte:
Aussen-T/F 701 30-08-2019 20:09:17 22.8 C 20 %
702 30-08-2019 20:21:18 22.2 C 20 %
703 30-08-2019 20:33:17 21.8 C 20 %
704 30-08-2019 20:45:18 21.4 C 20 %
705 30-08-2019 20:57:18 21 C 20 %
706 30-08-2019 21:09:17 20.6 C 20 %
707 30-08-2019 21:21:17 20.1 C 20 %
708 30-08-2019 21:33:17 19.5 C 20 %
709 30-08-2019 21:45:18 19.1 C 20 %
710 30-08-2019 21:57:18 18.9 C 22 %
711 30-08-2019 22:09:17 18.5 C 23 %
712 30-08-2019 22:21:17 18.3 C 25 %
713 30-08-2019 22:33:17 18 C 25 %
714 30-08-2019 22:45:17 17.8 C 25 %
715 30-08-2019 22:57:18 17.7 C 26 %
716 30-08-2019 23:09:17 17.3 C 27 %
717 30-08-2019 23:21:17 17 C 27 %
718 30-08-2019 23:33:17 17.2 C 28 %
719 30-08-2019 23:45:17 16.8 C 29 %
720 30-08-2019 23:57:17 16.6 C 30 %
721 31-08-2019 00:09:17 16.7 C 30 %
722 31-08-2019 00:21:17 16.4 C 30 %
723 31-08-2019 00:33:17 16.2 C 32 %
724 31-08-2019 00:45:17 16.1 C 33 %
725 31-08-2019 00:57:17 16 C 34 %
Sensor: Nr:Datum:Temp:Feuchte:
Aussen-T/F 726 31-08-2019 01:09:17 15.7 C 35 %
727 31-08-2019 01:21:18 15.6 C 35 %
728 31-08-2019 01:33:17 15.6 C 35 %
729 31-08-2019 01:45:17 15.5 C 36 %
730 31-08-2019 01:57:17 15.3 C 36 %
731 31-08-2019 02:09:17 15.2 C 37 %
732 31-08-2019 02:21:17 15.1 C 37 %
733 31-08-2019 02:33:17 15 C 37 %
734 31-08-2019 02:45:17 14.9 C 39 %
735 31-08-2019 02:57:17 14.8 C 40 %
736 31-08-2019 03:09:17 14.7 C 40 %
737 31-08-2019 03:21:17 14.7 C 41 %
738 31-08-2019 03:33:18 14.5 C 41 %
739 31-08-2019 03:45:17 14.5 C 41 %
740 31-08-2019 03:57:17 14.4 C 41 %
741 31-08-2019 04:09:18 14.4 C 41 %
742 31-08-2019 04:21:17 14.3 C 42 %
743 31-08-2019 04:33:18 14.3 C 42 %
744 31-08-2019 04:45:17 14.2 C 42 %
745 31-08-2019 04:57:17 14.2 C 43 %
746 31-08-2019 05:09:18 14.1 C 42 %
747 31-08-2019 05:21:17 14.3 C 43 %
748 31-08-2019 05:33:17 14.5 C 44 %
749 31-08-2019 05:45:17 14.6 C 43 %
750 31-08-2019 05:57:17 14.7 C 44 %
Sensor: Nr:Datum:Temp:Feuchte:
Aussen-T/F 751 31-08-2019 06:09:18 14.6 C 43 %
752 31-08-2019 06:21:17 14.4 C 43 %
753 31-08-2019 06:33:17 14.1 C 43 %
754 31-08-2019 06:45:18 14.1 C 43 %
755 31-08-2019 06:57:18 14.1 C 45 %
756 31-08-2019 07:09:17 14.2 C 44 %
757 31-08-2019 07:21:17 14.3 C 44 %
758 31-08-2019 07:33:17 14.4 C 44 %
759 31-08-2019 07:45:17 14.7 C 44 %
760 31-08-2019 07:57:17 14.8 C 43 %
761 31-08-2019 08:09:17 14.9 C 43 %
762 31-08-2019 08:21:18 15 C 42 %
763 31-08-2019 08:33:17 15.3 C 42 %
764 31-08-2019 08:45:17 15.4 C 42 %
765 31-08-2019 08:57:17 15.6 C 42 %
766 31-08-2019 09:09:17 15.9 C 42 %
767 31-08-2019 09:21:17 16.3 C 41 %
768 31-08-2019 09:33:18 16.6 C 40 %
769 31-08-2019 09:45:17 16.9 C 39 %
770 31-08-2019 09:57:17 17.1 C 38 %
771 31-08-2019 10:09:18 17.6 C 36 %
772 31-08-2019 10:21:17 18.2 C 34 %
773 31-08-2019 10:33:18 18.7 C 31 %
774 31-08-2019 10:45:17 19.3 C 30 %
775 31-08-2019 10:57:17 20 C 29 %
Sensor: Nr:Datum:Temp:Feuchte:
Aussen-T/F 776 31-08-2019 11:09:18 20.9 C 27 %
777 31-08-2019 11:21:17 21 C 26 %
778 31-08-2019 11:33:18 21.2 C 26 %
779 31-08-2019 11:45:17 21.9 C 25 %
780 31-08-2019 11:57:17 22.6 C 25 %
781 31-08-2019 12:09:18 22.7 C 25 %
782 31-08-2019 12:21:17 22.7 C 25 %
783 31-08-2019 12:33:17 24.3 C 21 %
784 31-08-2019 12:45:17 24.8 C 21 %
785 31-08-2019 12:57:17 25.1 C 20 %
786 31-08-2019 13:09:18 26.9 C 20 %
787 31-08-2019 13:21:17 27.9 C 20 %
788 31-08-2019 13:33:17 28.5 C 20 %
789 31-08-2019 13:45:17 28.9 C 20 %
790 31-08-2019 13:57:17 29.3 C 20 %
791 31-08-2019 14:09:17 29.6 C 20 %
792 31-08-2019 14:21:17 30 C 20 %
793 31-08-2019 14:33:18 30.9 C 20 %
794 31-08-2019 14:45:17 31.1 C 20 %
795 31-08-2019 14:57:17 31 C 20 %
796 31-08-2019 15:09:18 31.4 C 20 %
797 31-08-2019 15:21:17 31.5 C 20 %
798 31-08-2019 15:33:18 32.2 C 20 %
799 31-08-2019 15:45:17 32.6 C 20 %
800 31-08-2019 15:57:17 33.1 C 20 %
Sensor: Nr:Datum:Temp:Feuchte:
Aussen-T/F 801 31-08-2019 16:09:18 32.2 C 20 %
802 31-08-2019 16:21:17 32.2 C 20 %
803 31-08-2019 16:33:17 33 C 20 %
804 31-08-2019 16:45:17 32.8 C 20 %
805 31-08-2019 16:57:17 33.3 C 20 %
806 31-08-2019 17:09:17 33.9 C 20 %
807 31-08-2019 17:21:17 34.5 C 20 %
808 31-08-2019 17:33:17 34 C 20 %
809 31-08-2019 17:45:17 34.2 C 20 %
810 31-08-2019 17:57:17 34.4 C 20 %
811 31-08-2019 18:09:17 34.4 C 20 %
812 31-08-2019 18:21:18 33.8 C 20 %
813 31-08-2019 18:33:17 33.4 C 20 %
814 31-08-2019 18:45:18 33.2 C 20 %
815 31-08-2019 18:57:18 32.7 C 20 %
816 31-08-2019 19:09:17 31.7 C 20 %
817 31-08-2019 19:21:17 30.1 C 20 %
818 31-08-2019 19:33:17 28.8 C 20 %
819 31-08-2019 19:45:17 27.9 C 20 %
820 31-08-2019 19:57:17 27.5 C 20 %
821 31-08-2019 20:09:17 26.3 C 20 %
822 31-08-2019 20:21:17 25 C 20 %
823 31-08-2019 20:33:17 24.5 C 20 %
824 31-08-2019 20:45:17 24.4 C 20 %
825 31-08-2019 20:57:17 23.9 C 20 %
Sensor: Nr:Datum:Temp:Feuchte:
Aussen-T/F 826 31-08-2019 21:09:17 24 C 20 %
827 31-08-2019 21:21:17 24.3 C 20 %
828 31-08-2019 21:33:18 24.4 C 20 %
829 31-08-2019 21:45:17 24.4 C 20 %
830 31-08-2019 21:57:17 27.1 C 20 %
831 31-08-2019 22:09:17 26 C 20 %
832 31-08-2019 22:21:17 23.5 C 23 %
833 31-08-2019 22:33:18 21.7 C 32 %
834 31-08-2019 22:45:17 20.9 C 40 %
835 31-08-2019 22:57:17 20.6 C 47 %
836 31-08-2019 23:09:18 20 C 45 %
837 31-08-2019 23:21:17 19.7 C 45 %
838 31-08-2019 23:33:18 19.7 C 45 %
839 31-08-2019 23:45:17 19.8 C 45 %
840 31-08-2019 23:57:17 19.7 C 45 %
841 01-09-2019 00:09:18 19.7 C 45 %
842 01-09-2019 00:21:17 19.7 C 45 %
843 01-09-2019 00:33:18 19.4 C 44 %
844 01-09-2019 00:45:17 19.3 C 45 %
845 01-09-2019 00:57:17 19.3 C 46 %
846 01-09-2019 01:09:17 19.6 C 44 %
847 01-09-2019 01:21:17 19.5 C 41 %
848 01-09-2019 01:33:17 19.5 C 40 %
849 01-09-2019 01:45:17 19.7 C 37 %
850 01-09-2019 01:57:17 19.5 C 36 %
Sensor: Nr:Datum:Temp:Feuchte:
Aussen-T/F 851 01-09-2019 02:09:17 19.3 C 36 %
852 01-09-2019 02:21:17 19.2 C 35 %
853 01-09-2019 02:33:18 18.7 C 36 %
854 01-09-2019 02:45:17 18.2 C 37 %
855 01-09-2019 02:57:17 18 C 38 %
856 01-09-2019 03:09:18 17.9 C 39 %
857 01-09-2019 03:21:17 17.7 C 40 %
858 01-09-2019 03:33:17 17.8 C 36 %
859 01-09-2019 03:45:17 18 C 31 %
860 01-09-2019 03:57:17 17.5 C 32 %
861 01-09-2019 04:09:18 17.4 C 32 %
862 01-09-2019 04:21:17 17.9 C 31 %
863 01-09-2019 04:33:17 17.2 C 32 %
864 01-09-2019 04:45:18 16.9 C 34 %
865 01-09-2019 04:57:18 17 C 33 %
866 01-09-2019 05:09:17 17.6 C 30 %
867 01-09-2019 05:21:18 18.1 C 27 %
868 01-09-2019 05:33:17 18.2 C 26 %
869 01-09-2019 05:45:18 18.2 C 27 %
870 01-09-2019 05:57:18 17.8 C 28 %
871 01-09-2019 06:09:17 17.8 C 27 %
872 01-09-2019 06:21:17 17.8 C 27 %
873 01-09-2019 06:33:18 16.5 C 32 %
874 01-09-2019 06:45:17 16.1 C 34 %
875 01-09-2019 06:57:17 15.9 C 36 %
Sensor: Nr:Datum:Temp:Feuchte:
Aussen-T/F 876 01-09-2019 07:09:17 15.8 C 36 %
877 01-09-2019 07:21:17 15.7 C 38 %
878 01-09-2019 07:33:17 15.9 C 39 %
879 01-09-2019 07:45:17 16.5 C 37 %
880 01-09-2019 07:57:17 17.7 C 30 %
881 01-09-2019 08:09:17 17.9 C 30 %
882 01-09-2019 08:21:17 18 C 29 %
883 01-09-2019 08:33:17 18.3 C 28 %
884 01-09-2019 08:45:17 18.2 C 27 %
885 01-09-2019 08:57:17 18.2 C 29 %
886 01-09-2019 09:09:17 18.3 C 27 %
887 01-09-2019 09:21:17 18.7 C 27 %
888 01-09-2019 09:33:17 18.9 C 27 %
889 01-09-2019 09:45:17 18.9 C 26 %
890 01-09-2019 09:57:18 19.3 C 24 %
891 01-09-2019 10:09:17 19.4 C 24 %
892 01-09-2019 10:21:17 19.5 C 24 %
893 01-09-2019 10:33:18 19.6 C 23 %
894 01-09-2019 10:45:17 20.2 C 22 %
895 01-09-2019 10:57:17 20.4 C 21 %
896 01-09-2019 11:09:17 20.4 C 21 %
897 01-09-2019 11:21:17 20.5 C 21 %
898 01-09-2019 11:33:17 20.8 C 21 %
899 01-09-2019 11:45:17 20.7 C 21 %
900 01-09-2019 11:57:17 20.6 C 22 %
Sensor: Nr:Datum:Temp:Feuchte:
Aussen-T/F 901 01-09-2019 12:09:18 19.9 C 23 %
902 01-09-2019 12:21:17 19.9 C 24 %
903 01-09-2019 12:33:17 20.4 C 22 %
904 01-09-2019 12:45:17 20.9 C 22 %
905 01-09-2019 12:57:17 21.7 C 20 %
906 01-09-2019 13:09:17 20.4 C 24 %
907 01-09-2019 13:21:17 19.5 C 28 %
908 01-09-2019 13:33:17 19.7 C 26 %
909 01-09-2019 13:45:18 19.8 C 25 %
910 01-09-2019 13:57:18 19.8 C 25 %
911 01-09-2019 14:09:17 20.6 C 22 %
912 01-09-2019 14:21:17 20.7 C 22 %
913 01-09-2019 14:33:17 21.1 C 21 %
914 01-09-2019 14:45:18 21.2 C 20 %
915 01-09-2019 14:57:18 21.2 C 20 %
916 01-09-2019 15:09:17 21.1 C 20 %
917 01-09-2019 15:21:17 21.1 C 20 %
918 01-09-2019 15:33:17 21.1 C 20 %
919 01-09-2019 15:45:17 21 C 20 %
920 01-09-2019 15:57:17 21.2 C 20 %
921 01-09-2019 16:09:17 21 C 20 %
922 01-09-2019 16:21:17 21 C 20 %
923 01-09-2019 16:33:17 20.8 C 20 %
924 01-09-2019 16:45:17 20.7 C 20 %
925 01-09-2019 16:57:17 20.5 C 20 %
Sensor: Nr:Datum:Temp:Feuchte:
Aussen-T/F 926 01-09-2019 17:09:17 20.4 C 20 %
927 01-09-2019 17:21:17 20.4 C 20 %
928 01-09-2019 17:33:17 20.4 C 20 %
929 01-09-2019 17:45:17 20.4 C 20 %
930 01-09-2019 17:57:17 20.4 C 20 %
931 01-09-2019 18:09:17 20.5 C 20 %
932 01-09-2019 18:21:18 21.3 C 20 %
933 01-09-2019 18:33:17 21.7 C 20 %
934 01-09-2019 18:45:18 22.1 C 20 %
935 01-09-2019 18:57:18 21.8 C 20 %
936 01-09-2019 19:09:17 21.2 C 20 %
937 01-09-2019 19:21:17 20.4 C 20 %
938 01-09-2019 19:33:17 20.2 C 20 %
939 01-09-2019 19:45:17 19.8 C 20 %
940 01-09-2019 19:57:17 19.5 C 20 %
941 01-09-2019 20:09:17 19.5 C 20 %
942 01-09-2019 20:21:17 18.2 C 20 %
943 01-09-2019 20:33:17 17.1 C 20 %
944 01-09-2019 20:45:18 16.6 C 22 %
945 01-09-2019 20:57:18 16.5 C 24 %
946 01-09-2019 21:09:17 16.8 C 23 %
947 01-09-2019 21:21:17 16.7 C 23 %
948 01-09-2019 21:33:17 16.7 C 22 %
949 01-09-2019 21:45:17 16.7 C 22 %
950 01-09-2019 21:57:17 16.6 C 24 %
Sensor: Nr:Datum:Temp:Feuchte:
Aussen-T/F 951 01-09-2019 22:09:17 16.4 C 22 %
952 01-09-2019 22:21:18 16.3 C 23 %
953 01-09-2019 22:33:17 16.3 C 22 %
954 01-09-2019 22:45:17 16.1 C 22 %
955 01-09-2019 22:57:17 15.8 C 25 %
956 01-09-2019 23:09:17 15.7 C 25 %
957 01-09-2019 23:21:17 15.4 C 26 %
958 01-09-2019 23:33:17 15.4 C 26 %
959 01-09-2019 23:45:17 15.4 C 26 %
960 01-09-2019 23:57:18 15 C 26 %
961 02-09-2019 00:09:17 14.4 C 27 %
962 02-09-2019 00:21:18 14.2 C 27 %
963 02-09-2019 00:33:17 14.1 C 26 %
964 02-09-2019 00:45:18 14 C 26 %
965 02-09-2019 00:57:18 13.7 C 28 %
966 02-09-2019 01:09:17 13.5 C 29 %
967 02-09-2019 01:21:18 13.2 C 27 %
968 02-09-2019 01:33:17 13 C 28 %
969 02-09-2019 01:45:18 13 C 29 %
970 02-09-2019 01:57:18 13.2 C 30 %
971 02-09-2019 02:09:17 13.5 C 28 %
972 02-09-2019 02:21:17 13.7 C 30 %
973 02-09-2019 02:33:18 13.8 C 30 %
974 02-09-2019 02:45:17 13.8 C 31 %
975 02-09-2019 02:57:17 13.6 C 31 %
Sensor: Nr:Datum:Temp:Feuchte:
Aussen-T/F 976 02-09-2019 03:09:17 13.5 C 33 %
977 02-09-2019 03:21:17 13.4 C 34 %
978 02-09-2019 03:33:17 12.8 C 35 %
979 02-09-2019 03:45:18 12.5 C 36 %
980 02-09-2019 03:57:18 12.3 C 36 %
981 02-09-2019 04:09:17 12.2 C 35 %
982 02-09-2019 04:21:17 11.9 C 37 %
983 02-09-2019 04:33:17 11.8 C 37 %
984 02-09-2019 04:45:17 11.9 C 37 %
985 02-09-2019 04:57:17 11.7 C 37 %
986 02-09-2019 05:09:17 11.5 C 39 %
987 02-09-2019 05:21:17 11.1 C 39 %
988 02-09-2019 05:33:17 10.9 C 41 %
989 02-09-2019 05:45:17 10.8 C 42 %
990 02-09-2019 05:57:17 10.5 C 43 %
991 02-09-2019 06:09:17 10.2 C 43 %
992 02-09-2019 06:21:17 10 C 45 %
993 02-09-2019 06:33:18 9.8 C 46 %
994 02-09-2019 06:45:17 9.7 C 46 %
995 02-09-2019 06:57:17 9.7 C 46 %
996 02-09-2019 07:09:17 9.7 C 47 %
997 02-09-2019 07:21:17 9.8 C 47 %
998 02-09-2019 07:33:17 9.9 C 47 %
999 02-09-2019 07:45:17 10 C 46 %
1000 02-09-2019 07:57:17 10.1 C 47 %
Sensor: Nr:Datum:Temp:Feuchte:
Aussen-T/F 1001 02-09-2019 08:09:18 10.1 C 46 %
1002 02-09-2019 08:21:17 10.2 C 47 %
1003 02-09-2019 08:33:18 10.3 C 47 %
1004 02-09-2019 08:45:17 10.6 C 47 %
1005 02-09-2019 08:57:17 10.6 C 46 %
1006 02-09-2019 09:09:18 10.9 C 46 %
1007 02-09-2019 09:21:17 10.9 C 46 %
1008 02-09-2019 09:33:18 11.2 C 44 %
1009 02-09-2019 09:45:17 11.3 C 44 %
1010 02-09-2019 09:57:17 11.9 C 42 %
1011 02-09-2019 10:09:17 12.5 C 39 %
1012 02-09-2019 10:21:17 13 C 36 %
1013 02-09-2019 10:33:17 14 C 32 %
1014 02-09-2019 10:45:17 14.5 C 31 %
1015 02-09-2019 10:57:17 15.4 C 25 %
1016 02-09-2019 11:09:17 16.4 C 20 %
1017 02-09-2019 11:21:17 16.9 C 20 %
1018 02-09-2019 11:33:17 17.4 C 20 %
1019 02-09-2019 11:45:18 17.2 C 20 %
1020 02-09-2019 11:57:18 17.5 C 20 %
1021 02-09-2019 12:09:17 17.5 C 20 %
1022 02-09-2019 12:21:17 17.7 C 20 %
1023 02-09-2019 12:33:17 17.9 C 20 %
1024 02-09-2019 12:45:17 17.9 C 20 %
1025 02-09-2019 12:57:17 18 C 20 %
Sensor: Nr:Datum:Temp:Feuchte:
Aussen-T/F 1026 02-09-2019 13:09:17 18.1 C 20 %
1027 02-09-2019 13:21:17 18.5 C 20 %
1028 02-09-2019 13:33:17 18.8 C 20 %
1029 02-09-2019 13:45:17 19.2 C 20 %
1030 02-09-2019 13:57:17 19.5 C 20 %
1031 02-09-2019 14:09:17 19.6 C 20 %
1032 02-09-2019 14:21:18 20 C 20 %
1033 02-09-2019 14:33:17 20.4 C 20 %
1034 02-09-2019 14:45:18 20.1 C 20 %
1035 02-09-2019 14:57:18 20.4 C 20 %
1036 02-09-2019 15:09:17 20.9 C 20 %
1037 02-09-2019 15:21:17 20.7 C 20 %
1038 02-09-2019 15:33:17 19.9 C 20 %
1039 02-09-2019 15:45:18 20.8 C 20 %
1040 02-09-2019 15:57:18 21.8 C 20 %
1041 02-09-2019 16:09:17 22.3 C 20 %
1042 02-09-2019 16:21:17 22.7 C 20 %
1043 02-09-2019 16:33:17 22.9 C 20 %
1044 02-09-2019 16:45:17 22.5 C 20 %
1045 02-09-2019 16:57:17 23 C 20 %
1046 02-09-2019 17:09:18 23.2 C 20 %
1047 02-09-2019 17:21:17 23.6 C 20 %
1048 02-09-2019 17:33:17 23 C 20 %
1049 02-09-2019 17:45:17 23.2 C 20 %
1050 02-09-2019 17:57:17 23.6 C 20 %
Sensor: Nr:Datum:Temp:Feuchte:
Aussen-T/F 1051 02-09-2019 18:09:18 23.1 C 20 %
1052 02-09-2019 18:21:17 22.8 C 20 %
1053 02-09-2019 18:33:18 23.5 C 20 %
1054 02-09-2019 18:45:17 23.2 C 20 %
1055 02-09-2019 18:57:17 23 C 20 %
1056 02-09-2019 19:09:18 22.5 C 20 %
1057 02-09-2019 19:21:17 20.1 C 20 %
1058 02-09-2019 19:33:17 18.8 C 20 %
1059 02-09-2019 19:45:17 17.5 C 20 %
1060 02-09-2019 19:57:17 17.2 C 20 %
1061 02-09-2019 20:09:17 17.2 C 20 %
1062 02-09-2019 20:21:18 16.9 C 20 %
1063 02-09-2019 20:33:17 16.1 C 20 %
1064 02-09-2019 20:45:18 15.9 C 20 %
1065 02-09-2019 20:57:18 15.4 C 20 %
1066 02-09-2019 21:09:17 15.1 C 20 %
1067 02-09-2019 21:21:17 14.9 C 20 %
1068 02-09-2019 21:33:17 14.8 C 20 %
1069 02-09-2019 21:45:17 14.3 C 20 %
1070 02-09-2019 21:57:17 13.5 C 20 %
1071 02-09-2019 22:09:18 13.3 C 20 %
1072 02-09-2019 22:21:17 13 C 20 %
1073 02-09-2019 22:33:18 13.1 C 20 %
1074 02-09-2019 22:45:17 13.2 C 20 %
1075 02-09-2019 22:57:17 13.3 C 21 %
Sensor: Nr:Datum:Temp:Feuchte:
Aussen-T/F 1076 02-09-2019 23:09:18 13.1 C 21 %
1077 02-09-2019 23:21:17 13 C 22 %
1078 02-09-2019 23:33:18 12.9 C 24 %
1079 02-09-2019 23:45:17 12.8 C 25 %
1080 02-09-2019 23:57:17 12.8 C 25 %
1081 03-09-2019 00:09:18 12.4 C 25 %
1082 03-09-2019 00:21:17 12.5 C 26 %
1083 03-09-2019 00:33:18 12.1 C 25 %
1084 03-09-2019 00:45:17 12.2 C 26 %
1085 03-09-2019 00:57:17 12.3 C 27 %
1086 03-09-2019 01:09:17 12.2 C 26 %
1087 03-09-2019 01:21:17 12.5 C 27 %
1088 03-09-2019 01:33:18 12.3 C 27 %
1089 03-09-2019 01:45:17 11.8 C 27 %
1090 03-09-2019 01:57:17 11.4 C 27 %
1091 03-09-2019 02:09:18 10.9 C 30 %
1092 03-09-2019 02:21:17 10.8 C 30 %
1093 03-09-2019 02:33:18 10.5 C 32 %
1094 03-09-2019 02:45:17 10.4 C 32 %
1095 03-09-2019 02:57:17 10.2 C 32 %
1096 03-09-2019 03:09:17 10 C 32 %
1097 03-09-2019 03:21:17 10 C 33 %
1098 03-09-2019 03:33:18 10.1 C 35 %
1099 03-09-2019 03:45:17 9.8 C 35 %
1100 03-09-2019 03:57:17 10 C 35 %
Sensor: Nr:Datum:Temp:Feuchte:
Aussen-T/F 1101 03-09-2019 04:09:17 10.2 C 36 %
1102 03-09-2019 04:21:17 10.3 C 36 %
1103 03-09-2019 04:33:17 10.3 C 35 %
1104 03-09-2019 04:45:18 10.2 C 35 %
1105 03-09-2019 04:57:18 9.8 C 35 %
1106 03-09-2019 05:09:17 9.4 C 36 %
1107 03-09-2019 05:21:17 9.3 C 37 %
1108 03-09-2019 05:33:17 9 C 37 %
1109 03-09-2019 05:45:17 9.3 C 40 %
1110 03-09-2019 05:57:18 9.3 C 40 %
1111 03-09-2019 06:09:17 9.1 C 40 %
1112 03-09-2019 06:21:17 8.8 C 40 %
1113 03-09-2019 06:33:17 8.6 C 40 %
1114 03-09-2019 06:45:17 8.5 C 41 %
1115 03-09-2019 06:57:17 8.4 C 42 %
1116 03-09-2019 07:09:17 8.5 C 42 %
1117 03-09-2019 07:21:17 8.7 C 43 %
1118 03-09-2019 07:33:17 8.9 C 43 %
1119 03-09-2019 07:45:17 8.8 C 43 %
1120 03-09-2019 07:57:17 9 C 42 %
1121 03-09-2019 08:09:17 9.2 C 43 %
1122 03-09-2019 08:21:18 9.3 C 42 %
1123 03-09-2019 08:33:17 9.5 C 42 %
1124 03-09-2019 08:45:18 9.6 C 41 %
1125 03-09-2019 08:57:18 9.8 C 41 %
Sensor: Nr:Datum:Temp:Feuchte:
Aussen-T/F 1126 03-09-2019 09:09:17 10.1 C 41 %
1127 03-09-2019 09:21:17 10.4 C 40 %
1128 03-09-2019 09:33:17 10.9 C 39 %
1129 03-09-2019 09:45:18 11.2 C 37 %
1130 03-09-2019 09:57:18 11.7 C 36 %
1131 03-09-2019 10:09:17 12.4 C 34 %
1132 03-09-2019 10:21:18 13.3 C 31 %
1133 03-09-2019 10:33:17 14 C 27 %
1134 03-09-2019 10:45:17 15.1 C 21 %
1135 03-09-2019 10:57:17 16.2 C 20 %
1136 03-09-2019 11:09:17 16.6 C 20 %
1137 03-09-2019 11:21:18 16.6 C 20 %
1138 03-09-2019 11:33:17 18.9 C 20 %
1139 03-09-2019 11:45:17 18.7 C 20 %
1140 03-09-2019 11:57:17 19.6 C 20 %
1141 03-09-2019 12:09:17 19.4 C 20 %
1142 03-09-2019 12:21:18 19.7 C 20 %
1143 03-09-2019 12:33:17 20 C 20 %
1144 03-09-2019 12:45:17 20.1 C 20 %
1145 03-09-2019 12:57:17 20.5 C 20 %
1146 03-09-2019 13:09:17 20.6 C 20 %
1147 03-09-2019 13:21:17 21 C 20 %
1148 03-09-2019 13:33:17 21.3 C 20 %
1149 03-09-2019 13:45:17 21.7 C 20 %
1150 03-09-2019 13:57:17 21.9 C 20 %
Sensor: Nr:Datum:Temp:Feuchte:
Aussen-T/F 1151 03-09-2019 14:09:17 22.2 C 20 %
1152 03-09-2019 14:21:18 22.5 C 20 %
1153 03-09-2019 14:33:17 22.9 C 20 %
1154 03-09-2019 14:45:17 23.3 C 20 %
1155 03-09-2019 14:57:18 23.8 C 20 %
1156 03-09-2019 15:09:17 24.2 C 20 %
1157 03-09-2019 15:21:17 24.9 C 20 %
1158 03-09-2019 15:33:17 25.6 C 20 %
1159 03-09-2019 15:45:17 24.1 C 20 %
1160 03-09-2019 15:57:17 23.9 C 20 %
1161 03-09-2019 16:09:17 23.8 C 20 %
1162 03-09-2019 16:21:17 23.5 C 20 %
1163 03-09-2019 16:33:17 24.9 C 20 %
1164 03-09-2019 16:45:18 23.9 C 20 %
1165 03-09-2019 16:57:18 23.8 C 20 %
1166 03-09-2019 17:09:17 23.1 C 20 %
1167 03-09-2019 17:21:18 24.8 C 20 %
1168 03-09-2019 17:33:17 24.2 C 20 %
1169 03-09-2019 17:45:17 24.3 C 20 %
1170 03-09-2019 17:57:17 24.1 C 20 %
1171 03-09-2019 18:09:17 24.5 C 20 %
1172 03-09-2019 18:21:17 23.9 C 20 %
1173 03-09-2019 18:33:17 23 C 20 %
1174 03-09-2019 18:45:18 23.1 C 20 %
1175 03-09-2019 18:57:18 21.9 C 20 %
Sensor: Nr:Datum:Temp:Feuchte:
Aussen-T/F 1176 03-09-2019 19:09:17 21.5 C 20 %
1177 03-09-2019 19:21:17 21.3 C 20 %
1178 03-09-2019 19:33:17 20.9 C 20 %
1179 03-09-2019 19:45:17 20.5 C 20 %
1180 03-09-2019 19:57:17 20.2 C 20 %
1181 03-09-2019 20:09:18 19.8 C 20 %
1182 03-09-2019 20:21:17 19.4 C 20 %
1183 03-09-2019 20:33:18 17.8 C 20 %
1184 03-09-2019 20:45:17 17.2 C 20 %
1185 03-09-2019 20:57:17 16.3 C 23 %
1186 03-09-2019 21:09:18 16.1 C 25 %
1187 03-09-2019 21:21:17 15.7 C 26 %
1188 03-09-2019 21:33:17 15.6 C 27 %
1189 03-09-2019 21:45:17 15.5 C 27 %
1190 03-09-2019 21:57:17 15.4 C 28 %
1191 03-09-2019 22:09:18 15.3 C 28 %
1192 03-09-2019 22:21:17 15 C 28 %
1193 03-09-2019 22:33:17 15 C 30 %
1194 03-09-2019 22:45:17 14.8 C 31 %
1195 03-09-2019 22:57:17 14.3 C 31 %
1196 03-09-2019 23:09:17 14 C 33 %
1197 03-09-2019 23:21:17 13.7 C 35 %
1198 03-09-2019 23:33:17 13.5 C 36 %
1199 03-09-2019 23:45:17 13.3 C 37 %
1200 03-09-2019 23:57:17 13.1 C 38 %
Sensor: Nr:Datum:Temp:Feuchte:
Aussen-T/F 1201 04-09-2019 00:09:17 13 C 38 %
1202 04-09-2019 00:21:17 12.8 C 40 %
1203 04-09-2019 00:33:17 12.7 C 40 %
1204 04-09-2019 00:45:18 12.5 C 41 %
1205 04-09-2019 00:57:18 12.3 C 41 %
1206 04-09-2019 01:09:17 12.2 C 42 %
1207 04-09-2019 01:21:17 12.2 C 42 %
1208 04-09-2019 01:33:17 12.1 C 43 %
1209 04-09-2019 01:45:17 12 C 43 %
1210 04-09-2019 01:57:17 11.9 C 44 %
1211 04-09-2019 02:09:17 11.7 C 45 %
1212 04-09-2019 02:21:17 11.8 C 45 %
1213 04-09-2019 02:33:17 11.7 C 45 %
1214 04-09-2019 02:45:17 11.4 C 45 %
1215 04-09-2019 02:57:17 11.4 C 46 %
1216 04-09-2019 03:09:17 11.4 C 46 %
1217 04-09-2019 03:21:17 11.3 C 46 %
1218 04-09-2019 03:33:17 11.2 C 46 %
1219 04-09-2019 03:45:18 11 C 46 %
1220 04-09-2019 03:57:18 10.8 C 47 %
1221 04-09-2019 04:09:17 10.9 C 47 %
1222 04-09-2019 04:21:17 10.7 C 48 %
1223 04-09-2019 04:33:17 10.5 C 48 %
1224 04-09-2019 04:45:17 10.6 C 48 %
1225 04-09-2019 04:57:17 10.6 C 49 %
Sensor: Nr:Datum:Temp:Feuchte:
Aussen-T/F 1226 04-09-2019 05:09:18 10.4 C 48 %
1227 04-09-2019 05:21:17 10.3 C 48 %
1228 04-09-2019 05:33:18 10.3 C 48 %
1229 04-09-2019 05:45:17 10.3 C 49 %
1230 04-09-2019 05:57:17 10.1 C 48 %
1231 04-09-2019 06:09:17 10 C 48 %
1232 04-09-2019 06:21:17 9.9 C 49 %
1233 04-09-2019 06:33:17 10.2 C 50 %
1234 04-09-2019 06:45:18 10.4 C 50 %
1235 04-09-2019 06:57:18 10.2 C 49 %
1236 04-09-2019 07:09:17 10.1 C 48 %
1237 04-09-2019 07:21:17 10.1 C 49 %
1238 04-09-2019 07:33:17 10.1 C 49 %
1239 04-09-2019 07:45:17 10.2 C 49 %
1240 04-09-2019 07:57:17 10.3 C 49 %
1241 04-09-2019 08:09:17 10.4 C 49 %
1242 04-09-2019 08:21:17 10.8 C 50 %
1243 04-09-2019 08:33:17 11.1 C 48 %
1244 04-09-2019 08:45:17 11.7 C 49 %
1245 04-09-2019 08:57:17 12.4 C 47 %
1246 04-09-2019 09:09:17 13.5 C 40 %
1247 04-09-2019 09:21:17 14.1 C 35 %
1248 04-09-2019 09:33:17 14.3 C 33 %
1249 04-09-2019 09:45:17 14.4 C 33 %
1250 04-09-2019 09:57:17 14.5 C 33 %
Sensor: Nr:Datum:Temp:Feuchte:
Aussen-T/F 1251 04-09-2019 10:09:18 14.5 C 33 %
1252 04-09-2019 10:21:17 14.5 C 34 %
1253 04-09-2019 10:33:18 15.3 C 32 %
1254 04-09-2019 10:45:17 16.2 C 29 %
1255 04-09-2019 10:57:17 17.1 C 27 %
1256 04-09-2019 11:09:18 17.7 C 25 %
1257 04-09-2019 11:21:17 18.3 C 23 %
1258 04-09-2019 11:33:17 18.9 C 21 %
1259 04-09-2019 11:45:17 19.1 C 20 %
1260 04-09-2019 11:57:17 19.5 C 20 %
1261 04-09-2019 12:09:17 19.5 C 20 %
1262 04-09-2019 12:21:17 19.5 C 20 %
1263 04-09-2019 12:33:17 19.7 C 20 %
1264 04-09-2019 12:45:18 20.1 C 20 %
1265 04-09-2019 12:57:18 20.2 C 20 %
1266 04-09-2019 13:09:17 20.5 C 20 %
1267 04-09-2019 13:21:17 21 C 20 %
1268 04-09-2019 13:33:17 21.1 C 20 %
1269 04-09-2019 13:45:18 21.4 C 20 %
1270 04-09-2019 13:57:18 21.9 C 20 %
1271 04-09-2019 14:09:17 22.3 C 20 %
1272 04-09-2019 14:21:18 22.6 C 20 %
1273 04-09-2019 14:33:17 22.9 C 20 %
1274 04-09-2019 14:45:17 23.4 C 20 %
1275 04-09-2019 14:57:17 23.8 C 20 %
Sensor: Nr:Datum:Temp:Feuchte:
Aussen-T/F 1276 04-09-2019 15:09:17 24.1 C 20 %
1277 04-09-2019 15:21:18 24.5 C 20 %
1278 04-09-2019 15:33:17 25.1 C 20 %
1279 04-09-2019 15:45:17 25.4 C 20 %
1280 04-09-2019 15:57:17 26.1 C 20 %
1281 04-09-2019 16:09:17 25.9 C 20 %
1282 04-09-2019 16:21:17 26.1 C 20 %
1283 04-09-2019 16:33:17 26.5 C 20 %
1284 04-09-2019 16:45:18 26.3 C 20 %
1285 04-09-2019 16:57:18 27.1 C 20 %
1286 04-09-2019 17:09:17 27.4 C 20 %
1287 04-09-2019 17:21:17 27.7 C 20 %
1288 04-09-2019 17:33:17 27.3 C 20 %
1289 04-09-2019 17:45:17 27.6 C 20 %
1290 04-09-2019 17:57:17 27.2 C 20 %
1291 04-09-2019 18:09:17 26.1 C 20 %
1292 04-09-2019 18:21:17 25.6 C 20 %
1293 04-09-2019 18:33:17 24.9 C 20 %
1294 04-09-2019 18:45:17 24.6 C 20 %
1295 04-09-2019 18:57:17 24.6 C 20 %
1296 04-09-2019 19:09:17 24.3 C 20 %
1297 04-09-2019 19:21:17 23.8 C 20 %
1298 04-09-2019 19:33:17 23.7 C 20 %
1299 04-09-2019 19:45:18 23.2 C 20 %
1300 04-09-2019 19:57:18 21.1 C 20 %
Sensor: Nr:Datum:Temp:Feuchte:
Aussen-T/F 1301 04-09-2019 20:09:17 20.4 C 20 %
1302 04-09-2019 20:21:17 19.9 C 20 %
1303 04-09-2019 20:33:17 19.7 C 20 %
1304 04-09-2019 20:45:17 18.9 C 22 %
1305 04-09-2019 20:57:17 17.9 C 31 %
1306 04-09-2019 21:09:17 17.1 C 35 %
1307 04-09-2019 21:21:17 16.8 C 39 %
1308 04-09-2019 21:33:17 16.4 C 41 %
1309 04-09-2019 21:45:17 16.2 C 43 %
1310 04-09-2019 21:57:17 16 C 45 %
1311 04-09-2019 22:09:17 16 C 44 %
1312 04-09-2019 22:21:17 15.8 C 46 %
1313 04-09-2019 22:33:18 15.9 C 46 %
1314 04-09-2019 22:45:17 15.6 C 45 %
1315 04-09-2019 22:57:17 15.4 C 46 %
1316 04-09-2019 23:09:18 15.5 C 45 %
1317 04-09-2019 23:21:17 15.7 C 43 %
1318 04-09-2019 23:33:18 15.7 C 41 %
1319 04-09-2019 23:45:17 15.7 C 41 %
1320 04-09-2019 23:57:17 15.7 C 40 %
1321 05-09-2019 00:09:18 15.7 C 41 %
1322 05-09-2019 00:21:17 15.6 C 41 %
1323 05-09-2019 00:33:18 15.6 C 42 %
1324 05-09-2019 00:45:17 15.5 C 42 %
1325 05-09-2019 00:57:17 15.3 C 43 %
Sensor: Nr:Datum:Temp:Feuchte:
Aussen-T/F 1326 05-09-2019 01:09:17 15.5 C 45 %
1327 05-09-2019 01:21:17 15.5 C 43 %
1328 05-09-2019 01:33:18 15.5 C 35 %
1329 05-09-2019 01:45:17 15.2 C 34 %
1330 05-09-2019 01:57:17 14.5 C 37 %
1331 05-09-2019 02:09:18 14.1 C 38 %
1332 05-09-2019 02:21:17 14.1 C 37 %
1333 05-09-2019 02:33:18 14.1 C 36 %
1334 05-09-2019 02:45:17 13.8 C 37 %
1335 05-09-2019 02:57:17 14.3 C 35 %
1336 05-09-2019 03:09:17 14.4 C 33 %
1337 05-09-2019 03:21:17 14.2 C 34 %
1338 05-09-2019 03:33:18 14.1 C 34 %
1339 05-09-2019 03:45:17 14.2 C 34 %
1340 05-09-2019 03:57:17 14.4 C 32 %
1341 05-09-2019 04:09:18 14.5 C 31 %
1342 05-09-2019 04:21:17 14.4 C 31 %
1343 05-09-2019 04:33:17 14.4 C 31 %
1344 05-09-2019 04:45:17 14.2 C 31 %
1345 05-09-2019 04:57:17 14.1 C 31 %
1346 05-09-2019 05:09:18 14.1 C 31 %
1347 05-09-2019 05:21:17 13.7 C 32 %
1348 05-09-2019 05:33:18 13.4 C 32 %
1349 05-09-2019 05:45:17 13.1 C 33 %
1350 05-09-2019 05:57:17 13 C 34 %
Sensor: Nr:Datum:Temp:Feuchte:
Aussen-T/F 1351 05-09-2019 06:09:17 13 C 34 %
1352 05-09-2019 06:21:17 12.8 C 35 %
1353 05-09-2019 06:33:18 12.8 C 35 %
1354 05-09-2019 06:45:17 12.7 C 35 %
1355 05-09-2019 06:57:17 12.5 C 35 %
1356 05-09-2019 07:09:17 12.4 C 35 %
1357 05-09-2019 07:21:17 12.4 C 35 %
1358 05-09-2019 07:33:17 12.4 C 35 %
1359 05-09-2019 07:45:17 12.4 C 35 %
1360 05-09-2019 07:57:17 12.3 C 36 %
1361 05-09-2019 08:09:17 12.5 C 34 %
1362 05-09-2019 08:21:18 12.6 C 34 %
1363 05-09-2019 08:33:17 12.8 C 33 %
1364 05-09-2019 08:45:17 13.1 C 31 %
1365 05-09-2019 08:57:17 13.1 C 31 %
1366 05-09-2019 09:09:17 13.2 C 31 %
1367 05-09-2019 09:21:17 13.6 C 30 %
1368 05-09-2019 09:33:17 14 C 28 %
1369 05-09-2019 09:45:17 14.2 C 28 %
1370 05-09-2019 09:57:17 15 C 26 %
1371 05-09-2019 10:09:17 15.1 C 25 %
1372 05-09-2019 10:21:17 15.7 C 25 %
1373 05-09-2019 10:33:18 15.8 C 24 %
1374 05-09-2019 10:45:17 16.5 C 22 %
1375 05-09-2019 10:57:17 17 C 20 %
Sensor: Nr:Datum:Temp:Feuchte:
Aussen-T/F 1376 05-09-2019 11:09:18 17.2 C 20 %
1377 05-09-2019 11:21:17 17.6 C 20 %
1378 05-09-2019 11:33:18 17 C 20 %
1379 05-09-2019 11:45:17 15.9 C 22 %
1380 05-09-2019 11:57:17 16.5 C 20 %
1381 05-09-2019 12:09:18 17 C 20 %
1382 05-09-2019 12:21:17 17.7 C 20 %
1383 05-09-2019 12:33:18 18.1 C 20 %
1384 05-09-2019 12:45:17 18 C 20 %
1385 05-09-2019 12:57:17 18.2 C 20 %
1386 05-09-2019 13:09:17 18.7 C 20 %
1387 05-09-2019 13:21:17 18.1 C 20 %
1388 05-09-2019 13:33:18 18.1 C 20 %
1389 05-09-2019 13:45:17 18.5 C 20 %
1390 05-09-2019 13:57:17 18.8 C 20 %
1391 05-09-2019 14:09:18 18.6 C 20 %
1392 05-09-2019 14:21:17 18.1 C 20 %
1393 05-09-2019 14:33:18 18.3 C 20 %
1394 05-09-2019 14:45:18 18.3 C 20 %
1395 05-09-2019 14:57:18 18.8 C 20 %
1396 05-09-2019 15:09:17 19.1 C 20 %
1397 05-09-2019 15:21:18 19.2 C 20 %
1398 05-09-2019 15:33:17 19.1 C 20 %
1399 05-09-2019 15:45:17 18.9 C 20 %
1400 05-09-2019 15:57:17 19 C 20 %
Sensor: Nr:Datum:Temp:Feuchte:
Aussen-T/F 1401 05-09-2019 16:09:17 19 C 20 %
1402 05-09-2019 16:21:17 19.5 C 20 %
1403 05-09-2019 16:33:17 20.5 C 20 %
1404 05-09-2019 16:45:17 18.9 C 20 %
1405 05-09-2019 16:57:17 18.1 C 20 %
1406 05-09-2019 17:09:18 18.2 C 20 %
1407 05-09-2019 17:21:17 17.4 C 20 %
1408 05-09-2019 17:33:18 17.2 C 20 %
1409 05-09-2019 17:45:17 16.9 C 20 %
1410 05-09-2019 17:57:17 16.8 C 20 %
1411 05-09-2019 18:09:18 16.6 C 20 %
1412 05-09-2019 18:21:17 16.6 C 20 %
1413 05-09-2019 18:33:18 16.8 C 20 %
1414 05-09-2019 18:45:17 16.7 C 20 %
1415 05-09-2019 18:57:17 17.7 C 20 %
1416 05-09-2019 19:09:17 17.2 C 20 %
1417 05-09-2019 19:21:17 16.6 C 20 %
1418 05-09-2019 19:33:17 16.3 C 20 %
1419 05-09-2019 19:45:17 16.1 C 20 %
1420 05-09-2019 19:57:18 15.9 C 20 %
1421 05-09-2019 20:09:17 15.8 C 20 %
1422 05-09-2019 20:21:17 16.1 C 20 %
1423 05-09-2019 20:33:17 16 C 20 %
1424 05-09-2019 20:45:17 15.7 C 20 %
1425 05-09-2019 20:57:17 15.4 C 20 %
Sensor: Nr:Datum:Temp:Feuchte:
Aussen-T/F 1426 05-09-2019 21:09:17 14.9 C 20 %
1427 05-09-2019 21:21:17 14.9 C 20 %
1428 05-09-2019 21:33:18 14.9 C 20 %
1429 05-09-2019 21:45:17 14.6 C 20 %
1430 05-09-2019 21:57:17 14.7 C 20 %
1431 05-09-2019 22:09:18 14.7 C 20 %
1432 05-09-2019 22:21:18 14.6 C 20 %
1433 05-09-2019 22:33:17 14.5 C 21 %
1434 05-09-2019 22:45:17 14.5 C 20 %
1435 05-09-2019 22:57:17 14.5 C 20 %
1436 05-09-2019 23:09:18 14.4 C 20 %
1437 05-09-2019 23:21:17 14.1 C 20 %
1438 05-09-2019 23:33:17 14.1 C 20 %
1439 05-09-2019 23:45:17 13.4 C 24 %
1440 05-09-2019 23:57:17 12.8 C 26 %
1441 06-09-2019 00:09:17 11.9 C 31 %
1442 06-09-2019 00:21:17 11.5 C 32 %
1443 06-09-2019 00:33:18 11.4 C 34 %
1444 06-09-2019 00:45:17 11.1 C 34 %
1445 06-09-2019 00:57:17 11.2 C 35 %
1446 06-09-2019 01:09:18 11.8 C 32 %
1447 06-09-2019 01:21:17 11.2 C 34 %
1448 06-09-2019 01:33:18 10.8 C 35 %
1449 06-09-2019 01:45:17 10.5 C 38 %
1450 06-09-2019 01:57:17 10.3 C 39 %
Sensor: Nr:Datum:Temp:Feuchte:
Aussen-T/F 1451 06-09-2019 02:09:18 10.3 C 39 %
1452 06-09-2019 02:21:17 10.2 C 40 %
1453 06-09-2019 02:33:18 10.5 C 39 %
1454 06-09-2019 02:45:17 10.2 C 39 %
1455 06-09-2019 02:57:17 9.9 C 40 %
1456 06-09-2019 03:09:18 9.7 C 41 %
1457 06-09-2019 03:21:17 9.7 C 42 %
1458 06-09-2019 03:33:17 9.4 C 42 %
1459 06-09-2019 03:45:17 9.6 C 44 %
1460 06-09-2019 03:57:17 9.5 C 43 %
1461 06-09-2019 04:09:18 8.9 C 43 %
1462 06-09-2019 04:21:17 9 C 45 %
1463 06-09-2019 04:33:18 8.9 C 45 %
1464 06-09-2019 04:45:17 8.6 C 45 %
1465 06-09-2019 04:57:17 8.4 C 46 %
1466 06-09-2019 05:09:17 8.2 C 46 %
1467 06-09-2019 05:21:17 8 C 46 %
1468 06-09-2019 05:33:17 7.8 C 47 %
1469 06-09-2019 05:45:18 7.8 C 48 %
1470 06-09-2019 05:57:18 7.5 C 48 %
1471 06-09-2019 06:09:17 7.6 C 49 %
1472 06-09-2019 06:21:18 7.4 C 49 %
1473 06-09-2019 06:33:17 7.3 C 49 %
1474 06-09-2019 06:45:18 7.4 C 50 %
1475 06-09-2019 06:57:18 7.3 C 50 %
Sensor: Nr:Datum:Temp:Feuchte:
Aussen-T/F 1476 06-09-2019 07:09:17 7.3 C 50 %
1477 06-09-2019 07:21:18 7.4 C 50 %
1478 06-09-2019 07:33:17 7.4 C 50 %
1479 06-09-2019 07:45:18 7.5 C 50 %
1480 06-09-2019 07:57:18 7.7 C 50 %
1481 06-09-2019 08:09:17 8.1 C 50 %
1482 06-09-2019 08:21:17 8.2 C 49 %
1483 06-09-2019 08:33:18 8.2 C 49 %
1484 06-09-2019 08:45:17 8.3 C 49 %
1485 06-09-2019 08:57:17 8.5 C 49 %
1486 06-09-2019 09:09:18 8.7 C 49 %
1487 06-09-2019 09:21:17 8.9 C 50 %
1488 06-09-2019 09:33:17 9.2 C 49 %
1489 06-09-2019 09:45:17 9.3 C 49 %
1490 06-09-2019 09:57:17 9.5 C 49 %
1491 06-09-2019 10:09:17 9.6 C 49 %
1492 06-09-2019 10:21:17 10.4 C 46 %
1493 06-09-2019 10:33:17 11.1 C 42 %
1494 06-09-2019 10:45:17 11.5 C 39 %
1495 06-09-2019 10:57:17 12.7 C 35 %
1496 06-09-2019 11:09:18 12.8 C 33 %
1497 06-09-2019 11:21:17 13.3 C 28 %
1498 06-09-2019 11:33:17 14 C 23 %
1499 06-09-2019 11:45:17 14 C 23 %
1500 06-09-2019 11:57:17 14.4 C 22 %
Sensor: Nr:Datum:Temp:Feuchte:
Aussen-T/F 1501 06-09-2019 12:09:17 14.7 C 20 %
1502 06-09-2019 12:21:17 15 C 20 %
1503 06-09-2019 12:33:17 15.3 C 20 %
1504 06-09-2019 12:45:18 15.5 C 20 %
1505 06-09-2019 12:57:18 15.8 C 20 %
1506 06-09-2019 13:09:17 15.7 C 20 %
1507 06-09-2019 13:21:18 16.2 C 20 %
1508 06-09-2019 13:33:17 16.5 C 20 %
1509 06-09-2019 13:45:17 16.9 C 20 %
1510 06-09-2019 13:57:17 17.4 C 20 %
1511 06-09-2019 14:09:17 18 C 20 %
1512 06-09-2019 14:21:17 18.3 C 20 %
1513 06-09-2019 14:33:17 18.6 C 20 %
1514 06-09-2019 14:45:17 19.2 C 20 %
1515 06-09-2019 14:57:17 19.5 C 20 %
1516 06-09-2019 15:09:18 20.1 C 20 %
1517 06-09-2019 15:21:17 20.2 C 20 %
1518 06-09-2019 15:33:18 20.4 C 20 %
1519 06-09-2019 15:45:17 20.7 C 20 %
1520 06-09-2019 15:57:17 21.1 C 20 %
1521 06-09-2019 16:09:18 21.2 C 20 %
1522 06-09-2019 16:21:17 21.9 C 20 %
1523 06-09-2019 16:33:18 22.1 C 20 %
1524 06-09-2019 16:45:17 22.6 C 20 %
1525 06-09-2019 16:57:17 22.9 C 20 %
Sensor: Nr:Datum:Temp:Feuchte:
Aussen-T/F 1526 06-09-2019 17:09:18 23 C 20 %
1527 06-09-2019 17:21:17 23 C 20 %
1528 06-09-2019 17:33:18 23.5 C 20 %
1529 06-09-2019 17:45:17 23.2 C 20 %
1530 06-09-2019 17:57:17 22.9 C 20 %
1531 06-09-2019 18:09:18 23 C 20 %
1532 06-09-2019 18:21:17 23 C 20 %
1533 06-09-2019 18:33:18 23.7 C 20 %
1534 06-09-2019 18:45:17 22.7 C 20 %
1535 06-09-2019 18:57:17 21.6 C 20 %
1536 06-09-2019 19:09:17 19.3 C 20 %
1537 06-09-2019 19:21:17 18.1 C 20 %
1538 06-09-2019 19:33:17 16.8 C 20 %
1539 06-09-2019 19:45:17 16.1 C 20 %
1540 06-09-2019 19:57:18 15.8 C 20 %
1541 06-09-2019 20:09:17 16 C 20 %
1542 06-09-2019 20:21:17 15.9 C 20 %
1543 06-09-2019 20:33:17 15.6 C 20 %
1544 06-09-2019 20:45:18 14.9 C 20 %
1545 06-09-2019 20:57:18 14.5 C 20 %
1546 06-09-2019 21:09:17 14.2 C 20 %
1547 06-09-2019 21:21:18 14.1 C 20 %
1548 06-09-2019 21:33:17 13.7 C 20 %
1549 06-09-2019 21:45:18 13.5 C 20 %
1550 06-09-2019 21:57:18 13.2 C 20 %
Sensor: Nr:Datum:Temp:Feuchte:
Aussen-T/F 1551 06-09-2019 22:09:17 12.4 C 20 %
1552 06-09-2019 22:21:17 12 C 20 %
1553 06-09-2019 22:33:17 12 C 20 %
1554 06-09-2019 22:45:17 12 C 20 %
1555 06-09-2019 22:57:18 12.6 C 20 %
1556 06-09-2019 23:09:17 12.9 C 20 %
1557 06-09-2019 23:21:17 13.2 C 20 %
1558 06-09-2019 23:33:18 12.9 C 20 %
1559 06-09-2019 23:45:17 12.6 C 20 %
1560 06-09-2019 23:57:17 12.2 C 22 %
1561 07-09-2019 00:09:18 12.1 C 25 %
1562 07-09-2019 00:21:17 12.1 C 25 %
1563 07-09-2019 00:33:17 12.2 C 24 %
1564 07-09-2019 00:45:17 12.4 C 23 %
1565 07-09-2019 00:57:17 12.6 C 20 %
1566 07-09-2019 01:09:17 12.8 C 20 %
1567 07-09-2019 01:21:17 12.6 C 21 %
1568 07-09-2019 01:33:17 12.2 C 22 %
1569 07-09-2019 01:45:17 12.2 C 22 %
1570 07-09-2019 01:57:17 11.8 C 25 %
1571 07-09-2019 02:09:18 12.4 C 22 %
1572 07-09-2019 02:21:17 12.3 C 23 %
1573 07-09-2019 02:33:17 12.3 C 24 %
1574 07-09-2019 02:45:17 12.4 C 23 %
1575 07-09-2019 02:57:17 12.5 C 21 %
Sensor: Nr:Datum:Temp:Feuchte:
Aussen-T/F 1576 07-09-2019 03:09:18 12.4 C 22 %
1577 07-09-2019 03:21:17 12.5 C 21 %
1578 07-09-2019 03:33:18 12.7 C 21 %
1579 07-09-2019 03:45:17 12.6 C 22 %
1580 07-09-2019 03:57:17 13 C 20 %
1581 07-09-2019 04:09:17 12.8 C 22 %
1582 07-09-2019 04:21:17 12.6 C 24 %
1583 07-09-2019 04:33:18 12.7 C 21 %
1584 07-09-2019 04:45:17 12.9 C 22 %
1585 07-09-2019 04:57:17 12.7 C 21 %
1586 07-09-2019 05:09:17 12.9 C 20 %
1587 07-09-2019 05:21:17 12.6 C 25 %
1588 07-09-2019 05:33:17 12.3 C 25 %
1589 07-09-2019 05:45:18 12.3 C 25 %
1590 07-09-2019 05:57:18 12.3 C 26 %
1591 07-09-2019 06:09:17 12.2 C 26 %
1592 07-09-2019 06:21:17 12.2 C 26 %
1593 07-09-2019 06:33:17 12.2 C 27 %
1594 07-09-2019 06:45:17 12.1 C 28 %
1595 07-09-2019 06:57:17 12 C 28 %
1596 07-09-2019 07:09:17 11.8 C 29 %
1597 07-09-2019 07:21:17 11 C 36 %
1598 07-09-2019 07:33:17 11 C 41 %
1599 07-09-2019 07:45:18 11 C 42 %
1600 07-09-2019 07:57:18 11.1 C 47 %
Sensor: Nr:Datum:Temp:Feuchte:
Aussen-T/F 1601 07-09-2019 08:09:17 11.1 C 48 %
1602 07-09-2019 08:21:17 11.3 C 50 %
1603 07-09-2019 08:33:17 11.4 C 50 %
1604 07-09-2019 08:45:18 11.3 C 50 %
1605 07-09-2019 08:57:18 11.2 C 50 %
1606 07-09-2019 09:09:17 11.3 C 50 %
1607 07-09-2019 09:21:17 11.5 C 50 %
1608 07-09-2019 09:33:17 11.5 C 50 %
1609 07-09-2019 09:45:17 11.7 C 50 %
1610 07-09-2019 09:57:17 11.7 C 50 %
1611 07-09-2019 10:09:17 11.7 C 50 %
1612 07-09-2019 10:21:17 11.9 C 49 %
1613 07-09-2019 10:33:18 12 C 50 %
1614 07-09-2019 10:45:17 11.9 C 50 %
1615 07-09-2019 10:57:17 12.2 C 50 %
1616 07-09-2019 11:09:17 12.4 C 49 %
1617 07-09-2019 11:21:17 12.6 C 49 %
1618 07-09-2019 11:33:18 12.7 C 48 %
1619 07-09-2019 11:45:17 12.8 C 48 %
1620 07-09-2019 11:57:17 12.9 C 48 %
1621 07-09-2019 12:09:18 13 C 47 %
1622 07-09-2019 12:21:17 13 C 47 %
1623 07-09-2019 12:33:17 13.2 C 46 %
1624 07-09-2019 12:45:17 13.5 C 46 %
1625 07-09-2019 12:57:17 13.6 C 46 %
Sensor: Nr:Datum:Temp:Feuchte:
Aussen-T/F 1626 07-09-2019 13:09:18 13.9 C 46 %
1627 07-09-2019 13:21:17 14 C 45 %
1628 07-09-2019 13:33:17 13.9 C 45 %
1629 07-09-2019 13:45:17 13.9 C 45 %
1630 07-09-2019 13:57:17 13.8 C 45 %
1631 07-09-2019 14:09:17 13.9 C 45 %
1632 07-09-2019 14:21:17 14.1 C 44 %
1633 07-09-2019 14:33:17 14.4 C 44 %
1634 07-09-2019 14:45:17 14.4 C 42 %
1635 07-09-2019 14:57:17 14.2 C 42 %
1636 07-09-2019 15:09:18 14.3 C 41 %
1637 07-09-2019 15:21:18 14.6 C 41 %
1638 07-09-2019 15:33:17 15 C 39 %
1639 07-09-2019 15:45:18 15 C 37 %
1640 07-09-2019 15:57:18 15.2 C 36 %
1641 07-09-2019 16:09:17 15.4 C 35 %
1642 07-09-2019 16:21:17 15 C 36 %
1643 07-09-2019 16:33:17 15.2 C 38 %
1644 07-09-2019 16:45:17 15.3 C 38 %
1645 07-09-2019 16:57:17 15.4 C 38 %
1646 07-09-2019 17:09:17 15.6 C 39 %
1647 07-09-2019 17:21:17 15.5 C 38 %
1648 07-09-2019 17:33:17 14.8 C 37 %
1649 07-09-2019 17:45:18 14.5 C 40 %
1650 07-09-2019 17:57:18 14.2 C 42 %
Sensor: Nr:Datum:Temp:Feuchte:
Aussen-T/F 1651 07-09-2019 18:09:17 14 C 42 %
1652 07-09-2019 18:21:18 14 C 43 %
1653 07-09-2019 18:33:17 14 C 43 %
1654 07-09-2019 18:45:18 13.8 C 45 %
1655 07-09-2019 18:57:18 13.5 C 46 %
1656 07-09-2019 19:09:17 13.4 C 43 %
1657 07-09-2019 19:21:17 12.9 C 46 %
1658 07-09-2019 19:33:18 12.6 C 48 %
1659 07-09-2019 19:45:17 12.5 C 50 %
1660 07-09-2019 19:57:17 12.3 C 50 %
1661 07-09-2019 20:09:17 12.1 C 50 %
1662 07-09-2019 20:21:17 12.1 C 50 %
1663 07-09-2019 20:33:17 12 C 50 %
1664 07-09-2019 20:45:18 11.8 C 52 %
1665 07-09-2019 20:57:18 11.7 C 52 %
1666 07-09-2019 21:09:17 11.5 C 52 %
1667 07-09-2019 21:21:17 11.4 C 52 %
1668 07-09-2019 21:33:17 11.4 C 52 %
1669 07-09-2019 21:45:17 11.5 C 52 %
1670 07-09-2019 21:57:17 11.5 C 52 %
1671 07-09-2019 22:09:17 11.4 C 52 %
1672 07-09-2019 22:21:18 11.4 C 52 %
1673 07-09-2019 22:33:17 11.4 C 52 %
1674 07-09-2019 22:45:17 11.4 C 52 %
1675 07-09-2019 22:57:17 11.4 C 52 %
Sensor: Nr:Datum:Temp:Feuchte:
Aussen-T/F 1676 07-09-2019 23:09:17 11.4 C 52 %
1677 07-09-2019 23:21:18 11.4 C 53 %
1678 07-09-2019 23:33:17 11.4 C 53 %
1679 07-09-2019 23:45:17 11.4 C 53 %
1680 07-09-2019 23:57:18 11.4 C 53 %
1681 08-09-2019 00:09:17 11.4 C 53 %
1682 08-09-2019 00:21:18 11.4 C 54 %
1683 08-09-2019 00:33:17 11.4 C 54 %
1684 08-09-2019 00:45:17 11.4 C 55 %
1685 08-09-2019 00:57:17 11.4 C 56 %
1686 08-09-2019 01:09:17 11.6 C 58 %
1687 08-09-2019 01:21:17 11.6 C 57 %
1688 08-09-2019 01:33:17 11.4 C 55 %
1689 08-09-2019 01:45:17 11.2 C 53 %
1690 08-09-2019 01:57:17 11 C 53 %
1691 08-09-2019 02:09:18 10.9 C 58 %
1692 08-09-2019 02:21:17 10.9 C 60 %
1693 08-09-2019 02:33:18 10.6 C 58 %
1694 08-09-2019 02:45:17 10.5 C 59 %
1695 08-09-2019 02:57:17 10.7 C 62 %
1696 08-09-2019 03:09:18 10.7 C 64 %
1697 08-09-2019 03:21:17 11.1 C 64 %
1698 08-09-2019 03:33:18 11.1 C 64 %
1699 08-09-2019 03:45:17 11.1 C 63 %
1700 08-09-2019 03:57:17 11.2 C 64 %
Sensor: Nr:Datum:Temp:Feuchte:
Aussen-T/F 1701 08-09-2019 04:09:18 11.2 C 64 %
1702 08-09-2019 04:21:17 11.4 C 64 %
1703 08-09-2019 04:33:18 11.6 C 64 %
1704 08-09-2019 04:45:17 11.6 C 63 %
1705 08-09-2019 04:57:17 11.6 C 61 %
1706 08-09-2019 05:09:18 11.7 C 57 %
1707 08-09-2019 05:21:17 11.7 C 55 %
1708 08-09-2019 05:33:17 11.7 C 54 %
1709 08-09-2019 05:45:17 11.7 C 53 %
1710 08-09-2019 05:57:17 11.8 C 52 %
1711 08-09-2019 06:09:17 11.8 C 51 %
1712 08-09-2019 06:21:17 11.8 C 51 %
1713 08-09-2019 06:33:17 11.9 C 50 %
1714 08-09-2019 06:45:18 12 C 49 %
1715 08-09-2019 06:57:18 12 C 49 %
1716 08-09-2019 07:09:17 12.1 C 48 %
1717 08-09-2019 07:21:18 12.1 C 48 %
1718 08-09-2019 07:33:17 12 C 48 %
1719 08-09-2019 07:45:17 12.1 C 47 %
1720 08-09-2019 07:57:17 12.2 C 47 %
1721 08-09-2019 08:09:18 12.3 C 47 %
1722 08-09-2019 08:21:17 12.3 C 46 %
1723 08-09-2019 08:33:17 12.3 C 45 %
1724 08-09-2019 08:45:17 12 C 46 %
1725 08-09-2019 08:57:17 12.1 C 48 %
Sensor: Nr:Datum:Temp:Feuchte:
Aussen-T/F 1726 08-09-2019 09:09:17 12 C 47 %
1727 08-09-2019 09:21:17 11.9 C 49 %
1728 08-09-2019 09:33:17 11.8 C 49 %
1729 08-09-2019 09:45:17 11.9 C 49 %
1730 08-09-2019 09:57:17 12 C 48 %
1731 08-09-2019 10:09:17 12.1 C 49 %
1732 08-09-2019 10:21:17 12.1 C 50 %
1733 08-09-2019 10:33:18 12.1 C 51 %
1734 08-09-2019 10:45:17 12.1 C 51 %
1735 08-09-2019 10:57:17 12.1 C 51 %
1736 08-09-2019 11:09:18 12.2 C 52 %
1737 08-09-2019 11:21:17 12.2 C 51 %
1738 08-09-2019 11:33:18 12.2 C 51 %
1739 08-09-2019 11:45:17 12.3 C 51 %
1740 08-09-2019 11:57:17 12.5 C 50 %
1741 08-09-2019 12:09:18 12.7 C 49 %
1742 08-09-2019 12:21:17 12.8 C 47 %
1743 08-09-2019 12:33:18 13.2 C 43 %
1744 08-09-2019 12:45:17 13.6 C 40 %
1745 08-09-2019 12:57:17 14.1 C 37 %
1746 08-09-2019 13:09:18 16 C 32 %
1747 08-09-2019 13:21:17 16.4 C 31 %
1748 08-09-2019 13:34:03 16.9 C 29 %
1749 08-09-2019 13:57:18 18.7 C 25 %
1750 08-09-2019 14:08:17 16.5 C 28 %
Sensor: Nr:Datum:Temp:Feuchte:
Aussen-T/F 1751 08-09-2019 14:20:17 17.2 C 27 %
1752 08-09-2019 14:30:17 17.8 C 26 %
1753 08-09-2019 14:41:17 16.8 C 26 %
1754 08-09-2019 14:52:18 16.8 C 27 %
1755 08-09-2019 15:03:17 19.8 C 22 %
1756 08-09-2019 15:14:17 20.3 C 20 %
1757 08-09-2019 15:25:17 18.6 C 20 %
1758 08-09-2019 15:36:18 18.1 C 23 %
1759 08-09-2019 15:47:17 17.7 C 23 %
1760 08-09-2019 15:58:17 18.2 C 22 %
1761 08-09-2019 16:09:17 17.7 C 23 %
1762 08-09-2019 16:20:18 16.6 C 28 %
1763 08-09-2019 16:31:17 14.3 C 39 %
1764 08-09-2019 16:42:17 13.9 C 46 %
1765 08-09-2019 16:53:18 13.3 C 46 %
1766 08-09-2019 17:04:17 13 C 50 %
1767 08-09-2019 17:15:17 12.6 C 52 %
1768 08-09-2019 17:26:17 12.8 C 52 %
1769 08-09-2019 17:37:18 12.8 C 52 %
1770 08-09-2019 17:48:18 12.9 C 50 %
1771 08-09-2019 17:59:18 12.7 C 46 %
1772 08-09-2019 18:11:17 12.5 C 46 %
1773 08-09-2019 18:21:17 12.4 C 50 %
1774 08-09-2019 18:32:17 12.2 C 50 %
1775 08-09-2019 18:43:17 12.3 C 52 %
Sensor: Nr:Datum:Temp:Feuchte:
Aussen-T/F 1776 08-09-2019 18:54:17 12.4 C 52 %
1777 08-09-2019 19:06:17 12.5 C 53 %
1778 08-09-2019 19:16:18 12.6 C 53 %
1779 08-09-2019 19:27:18 12.7 C 53 %
1780 08-09-2019 19:38:17 12.7 C 53 %
1781 08-09-2019 19:49:18 12.6 C 53 %
1782 08-09-2019 20:00:17 12.5 C 54 %
1783 08-09-2019 20:11:17 12.3 C 55 %
1784 08-09-2019 20:23:17 12.1 C 48 %
1785 08-09-2019 20:33:17 12.1 C 47 %
1786 08-09-2019 20:44:18 12.1 C 46 %
1787 08-09-2019 20:56:17 11.8 C 48 %
1788 08-09-2019 21:06:18 11.7 C 50 %
1789 08-09-2019 21:17:18 11.7 C 51 %
1790 08-09-2019 21:28:18 11.6 C 52 %
1791 08-09-2019 21:39:17 11.5 C 52 %
1792 08-09-2019 21:50:18 11.6 C 53 %
1793 08-09-2019 22:01:17 11.5 C 52 %
1794 08-09-2019 22:12:17 11.5 C 53 %
1795 08-09-2019 22:24:17 11.5 C 53 %
1796 08-09-2019 22:34:17 11.4 C 54 %
1797 08-09-2019 22:45:18 11.5 C 55 %
1798 08-09-2019 22:56:18 11.4 C 56 %
1799 08-09-2019 23:07:17 11.4 C 56 %
1800 08-09-2019 23:19:17 11.4 C 56 %
Sensor: Nr:Datum:Temp:Feuchte:
Aussen-T/F 1801 08-09-2019 23:29:17 11.4 C 57 %
1802 08-09-2019 23:40:17 11.4 C 56 %
1803 08-09-2019 23:52:17 11.3 C 57 %
1804 09-09-2019 00:03:17 11.2 C 59 %
1805 09-09-2019 00:14:17 11.1 C 60 %
1806 09-09-2019 00:25:17 11.1 C 62 %
1807 09-09-2019 00:35:18 11.1 C 63 %
1808 09-09-2019 00:47:17 11 C 63 %
1809 09-09-2019 00:58:17 11 C 63 %
1810 09-09-2019 01:09:17 11 C 64 %
1811 09-09-2019 01:20:17 11 C 64 %
1812 09-09-2019 01:31:17 10.9 C 63 %
1813 09-09-2019 01:42:17 10.8 C 63 %
1814 09-09-2019 01:53:17 11 C 64 %
1815 09-09-2019 02:04:18 11 C 64 %
1816 09-09-2019 02:15:17 11 C 63 %
1817 09-09-2019 02:26:17 11 C 63 %
1818 09-09-2019 02:37:17 10.9 C 63 %
1819 09-09-2019 02:48:17 10.9 C 62 %
1820 09-09-2019 02:59:17 10.9 C 62 %
1821 09-09-2019 03:10:17 11 C 62 %
1822 09-09-2019 03:21:18 11 C 62 %
1823 09-09-2019 03:32:17 11 C 61 %
1824 09-09-2019 03:43:17 11 C 60 %
1825 09-09-2019 03:54:18 11 C 60 %
Sensor: Nr:Datum:Temp:Feuchte:
Aussen-T/F 1826 09-09-2019 04:05:17 10.9 C 60 %
1827 09-09-2019 04:16:17 10.9 C 59 %
1828 09-09-2019 04:27:17 10.9 C 59 %
1829 09-09-2019 04:38:17 11 C 58 %
1830 09-09-2019 04:49:18 11 C 57 %
1831 09-09-2019 05:00:17 10.9 C 56 %
1832 09-09-2019 05:11:17 10.9 C 57 %
1833 09-09-2019 05:22:17 10.9 C 57 %
1834 09-09-2019 05:33:17 10.9 C 57 %
1835 09-09-2019 05:44:17 10.9 C 57 %
1836 09-09-2019 05:55:17 10.9 C 56 %
1837 09-09-2019 06:06:17 10.9 C 56 %
1838 09-09-2019 06:17:17 10.9 C 55 %
1839 09-09-2019 06:28:17 10.9 C 55 %
1840 09-09-2019 06:39:18 10.9 C 54 %
1841 09-09-2019 06:50:17 10.9 C 55 %
1842 09-09-2019 07:01:17 10.9 C 57 %
1843 09-09-2019 07:12:18 10.9 C 58 %
1844 09-09-2019 07:23:17 10.9 C 57 %
1845 09-09-2019 07:34:18 10.9 C 57 %
1846 09-09-2019 07:45:17 11 C 55 %
1847 09-09-2019 07:56:17 10.9 C 55 %
1848 09-09-2019 08:07:18 10.9 C 54 %
1849 09-09-2019 08:18:17 10.9 C 54 %
1850 09-09-2019 08:29:17 10.9 C 54 %
Sensor: Nr:Datum:Temp:Feuchte:
Aussen-T/F 1851 09-09-2019 08:40:17 11 C 53 %
1852 09-09-2019 08:51:17 11.1 C 53 %
1853 09-09-2019 09:02:18 11.4 C 50 %
1854 09-09-2019 09:13:18 11.6 C 49 %
1855 09-09-2019 09:24:17 11.7 C 46 %
1856 09-09-2019 09:35:17 12.1 C 43 %
1857 09-09-2019 09:46:17 12.2 C 41 %
1858 09-09-2019 09:57:17 12.1 C 40 %
1859 09-09-2019 10:08:17 11.8 C 42 %
1860 09-09-2019 10:19:18 11.5 C 45 %
1861 09-09-2019 10:30:17 11.9 C 47 %
1862 09-09-2019 10:41:17 12.1 C 46 %
1863 09-09-2019 10:52:18 12.4 C 46 %
1864 09-09-2019 11:03:17 13 C 44 %
1865 09-09-2019 11:14:17 13.1 C 40 %
1866 09-09-2019 11:25:17 13.4 C 36 %
1867 09-09-2019 11:36:17 13.5 C 33 %
1868 09-09-2019 11:47:18 14 C 32 %
1869 09-09-2019 11:58:18 14.3 C 32 %
1870 09-09-2019 12:09:17 14.2 C 32 %
1871 09-09-2019 12:20:17 13.8 C 32 %
1872 09-09-2019 12:31:17 13.8 C 32 %
1873 09-09-2019 12:42:17 14.3 C 32 %
1874 09-09-2019 12:53:18 15.4 C 30 %
1875 09-09-2019 13:04:17 15.5 C 29 %
Sensor: Nr:Datum:Temp:Feuchte:
Aussen-T/F 1876 09-09-2019 13:15:18 15.8 C 28 %
1877 09-09-2019 13:26:18 16.2 C 27 %
1878 09-09-2019 13:37:17 15 C 28 %
1879 09-09-2019 13:48:18 15.8 C 26 %
1880 09-09-2019 13:59:18 16 C 25 %
1881 09-09-2019 14:10:17 16.2 C 25 %
1882 09-09-2019 14:21:18 15.4 C 23 %
1883 09-09-2019 14:32:17 16 C 25 %
1884 09-09-2019 14:43:17 15.5 C 24 %
1885 09-09-2019 14:54:18 15.5 C 25 %
1886 09-09-2019 15:05:17 15.4 C 25 %
1887 09-09-2019 15:16:17 15.4 C 27 %
1888 09-09-2019 15:27:17 16 C 25 %
1889 09-09-2019 15:38:17 16.4 C 25 %
1890 09-09-2019 15:49:17 17.1 C 22 %
1891 09-09-2019 16:00:17 16.5 C 23 %
1892 09-09-2019 16:11:17 16.3 C 23 %
1893 09-09-2019 16:22:17 16 C 25 %
1894 09-09-2019 16:46:17 30.3 C 33 %
1895 09-09-2019 16:49:17 30.3 C 33 %
1896 09-09-2019 16:52:17 30.3 C 33 %
1897 09-09-2019 16:55:17 30.3 C 33 %
1898 09-09-2019 16:58:18 30.3 C 33 %
1899 09-09-2019 17:01:17 30.3 C 33 %
1900 09-09-2019 17:04:17 30.3 C 33 %
Sensor: Nr:Datum:Temp:Feuchte:
Aussen-T/F 1901 09-09-2019 17:07:17 30.3 C 33 %
1902 09-09-2019 17:10:17 30.3 C 33 %
1903 09-09-2019 17:13:17 30.3 C 33 %
1904 09-09-2019 17:16:17 30.3 C 33 %
1905 09-09-2019 17:19:17 30.3 C 33 %
1906 09-09-2019 17:22:17 30.3 C 33 %
1907 09-09-2019 17:25:17 30.3 C 33 %
1908 09-09-2019 17:28:17 30.3 C 33 %
1909 09-09-2019 17:31:18 30.3 C 33 %
1910 09-09-2019 17:34:18 30.3 C 33 %
1911 09-09-2019 17:37:18 30.3 C 33 %
1912 09-09-2019 17:40:18 30.3 C 33 %
1913 09-09-2019 17:43:18 30.3 C 33 %
1914 09-09-2019 17:46:17 30.3 C 33 %
1915 09-09-2019 17:49:17 30.3 C 33 %
1916 09-09-2019 17:52:17 30.3 C 33 %
1917 09-09-2019 17:55:17 30.3 C 33 %
1918 09-09-2019 17:58:17 30.3 C 33 %
1919 09-09-2019 18:14:17 30.3 C 33 %
1920 09-09-2019 18:24:17 16.8 C 20 %
1921 09-09-2019 18:34:17 16.4 C 20 %
1922 09-09-2019 18:44:18 16 C 20 %
1923 09-09-2019 18:54:17 15 C 20 %
1924 09-09-2019 19:04:18 14.2 C 20 %
1925 09-09-2019 19:14:18 13.6 C 20 %
Sensor: Nr:Datum:Temp:Feuchte:
Aussen-T/F 1926 09-09-2019 19:24:17 13.1 C 20 %
1927 09-09-2019 19:34:18 12.7 C 20 %
1928 09-09-2019 19:44:18 12 C 20 %
1929 09-09-2019 19:54:17 11.9 C 20 %
1930 09-09-2019 20:04:18 11.8 C 20 %
1931 09-09-2019 20:14:18 11.5 C 20 %
1932 09-09-2019 20:24:17 11.5 C 20 %
1933 09-09-2019 20:34:17 11.1 C 20 %
1934 09-09-2019 20:44:17 10.8 C 20 %
1935 09-09-2019 20:54:17 10.6 C 20 %
1936 09-09-2019 21:04:17 10.3 C 20 %
1937 09-09-2019 21:14:17 10 C 20 %
1938 09-09-2019 21:24:17 10.4 C 20 %
1939 09-09-2019 21:34:17 10 C 20 %
1940 09-09-2019 21:44:17 9.9 C 20 %
1941 09-09-2019 21:54:17 9.6 C 20 %
1942 09-09-2019 22:04:17 9.3 C 20 %
1943 09-09-2019 22:14:17 9.5 C 20 %
1944 09-09-2019 22:24:18 9.5 C 20 %
1945 09-09-2019 22:34:17 9.1 C 20 %
1946 09-09-2019 22:44:17 9 C 20 %
1947 09-09-2019 22:54:18 8.8 C 21 %
1948 09-09-2019 23:04:17 8.8 C 23 %
1949 09-09-2019 23:14:17 8.7 C 23 %
1950 09-09-2019 23:24:17 8.7 C 25 %
Sensor: Nr:Datum:Temp:Feuchte:
Aussen-T/F 1951 09-09-2019 23:34:17 8.5 C 25 %
1952 09-09-2019 23:44:17 8.2 C 25 %
1953 09-09-2019 23:54:17 8.1 C 25 %
1954 10-09-2019 00:04:17 7.9 C 25 %
1955 10-09-2019 00:14:17 8 C 25 %
1956 10-09-2019 00:24:17 7.9 C 25 %
1957 10-09-2019 00:34:17 8.1 C 26 %
1958 10-09-2019 00:44:17 8 C 26 %
1959 10-09-2019 00:54:17 8 C 26 %
1960 10-09-2019 01:04:17 7.8 C 26 %
1961 10-09-2019 01:14:17 7.7 C 26 %
1962 10-09-2019 01:24:17 7.8 C 26 %
1963 10-09-2019 01:34:17 7.8 C 27 %
1964 10-09-2019 01:44:17 7.7 C 26 %
1965 10-09-2019 01:54:17 7.6 C 26 %
1966 10-09-2019 02:04:18 7.5 C 26 %
1967 10-09-2019 02:14:18 7.4 C 26 %
1968 10-09-2019 02:24:17 7.8 C 27 %
1969 10-09-2019 02:34:17 8 C 27 %
1970 10-09-2019 02:44:17 7.9 C 27 %
1971 10-09-2019 02:54:17 8.1 C 28 %
1972 10-09-2019 03:04:17 8.1 C 27 %
1973 10-09-2019 03:14:17 8.1 C 27 %
1974 10-09-2019 03:24:17 7.9 C 27 %
1975 10-09-2019 03:34:17 8.1 C 28 %
Sensor: Nr:Datum:Temp:Feuchte:
Aussen-T/F 1976 10-09-2019 03:44:17 8.2 C 28 %
1977 10-09-2019 03:54:17 8.2 C 28 %
1978 10-09-2019 04:04:18 8.2 C 28 %
1979 10-09-2019 04:14:18 8.2 C 28 %
1980 10-09-2019 04:24:17 8.2 C 28 %
1981 10-09-2019 04:34:17 8.2 C 28 %
1982 10-09-2019 04:44:17 8.2 C 28 %
1983 10-09-2019 04:54:17 8.2 C 28 %
1984 10-09-2019 05:04:17 8.1 C 28 %
1985 10-09-2019 05:14:17 8.1 C 28 %
1986 10-09-2019 05:24:17 8 C 28 %
1987 10-09-2019 05:34:17 8 C 28 %
1988 10-09-2019 05:44:17 7.9 C 28 %
1989 10-09-2019 05:54:17 7.9 C 28 %
1990 10-09-2019 06:04:18 7.8 C 27 %
1991 10-09-2019 06:14:18 7.7 C 27 %
1992 10-09-2019 06:24:17 7.8 C 28 %
1993 10-09-2019 06:34:17 7.8 C 28 %
1994 10-09-2019 06:44:17 7.8 C 28 %
1995 10-09-2019 06:54:18 7.9 C 28 %
1996 10-09-2019 07:04:17 7.8 C 28 %
1997 10-09-2019 07:14:17 7.7 C 28 %
1998 10-09-2019 07:24:17 7.8 C 28 %
1999 10-09-2019 07:34:17 7.7 C 27 %
2000 10-09-2019 07:44:17 7.8 C 28 %
Sensor: Nr:Datum:Temp:Feuchte:
Aussen-T/F 2001 10-09-2019 07:54:17 8 C 27 %
2002 10-09-2019 08:04:17 8 C 27 %
2003 10-09-2019 08:14:18 7.8 C 26 %
2004 10-09-2019 08:24:17 7.8 C 26 %
2005 10-09-2019 08:34:18 8 C 26 %
2006 10-09-2019 08:44:18 8.1 C 26 %
2007 10-09-2019 08:54:17 8.2 C 26 %
2008 10-09-2019 09:04:18 8.3 C 26 %
2009 10-09-2019 09:14:18 8.5 C 26 %
2010 10-09-2019 09:24:17 8.7 C 25 %
2011 10-09-2019 09:34:17 8.7 C 25 %
2012 10-09-2019 09:44:17 9.1 C 23 %
2013 10-09-2019 09:54:17 9.1 C 20 %
2014 10-09-2019 10:04:17 9.7 C 21 %
2015 10-09-2019 10:14:17 10.4 C 20 %
2016 10-09-2019 10:24:17 10 C 20 %
2017 10-09-2019 10:34:17 10 C 20 %
2018 10-09-2019 10:44:17 10.3 C 20 %
2019 10-09-2019 10:54:17 10.4 C 20 %
2020 10-09-2019 11:04:17 10.1 C 20 %
2021 10-09-2019 11:14:17 9.9 C 20 %
2022 10-09-2019 11:24:17 10.2 C 20 %
2023 10-09-2019 11:34:17 10.7 C 20 %
2024 10-09-2019 11:44:17 10.9 C 20 %
2025 10-09-2019 11:54:17 11.1 C 20 %
Sensor: Nr:Datum:Temp:Feuchte:
Aussen-T/F 2026 10-09-2019 12:04:17 11.7 C 20 %
2027 10-09-2019 12:14:17 11.7 C 20 %
2028 10-09-2019 12:24:17 12.2 C 20 %
2029 10-09-2019 12:34:17 12.6 C 20 %
2030 10-09-2019 12:44:17 13 C 20 %
2031 10-09-2019 12:54:17 13.5 C 20 %
2032 10-09-2019 13:04:17 14.2 C 20 %
2033 10-09-2019 13:14:18 14.5 C 20 %
2034 10-09-2019 13:24:17 14.8 C 20 %
2035 10-09-2019 13:34:17 15.2 C 20 %
2036 10-09-2019 13:44:17 15.9 C 20 %
2037 10-09-2019 13:54:18 16.1 C 20 %
2038 10-09-2019 14:04:17 16.8 C 20 %
2039 10-09-2019 14:14:17 18.8 C 20 %
2040 10-09-2019 14:24:17 19.8 C 20 %
2041 10-09-2019 14:34:17 22.9 C 20 %
2042 10-09-2019 14:44:17 23.9 C 20 %
2043 10-09-2019 14:54:17 22.9 C 20 %
2044 10-09-2019 15:04:17 24.8 C 20 %
2045 10-09-2019 15:14:17 25.9 C 20 %
2046 10-09-2019 15:24:17 26.9 C 20 %
2047 10-09-2019 15:34:18 26.9 C 20 %
2048 10-09-2019 15:44:18 26.4 C 20 %
2049 10-09-2019 15:54:17 26.3 C 20 %
2050 10-09-2019 16:04:17 23.7 C 20 %
Sensor: Nr:Datum:Temp:Feuchte:
Aussen-T/F 2051 10-09-2019 16:14:17 23.5 C 20 %
2052 10-09-2019 16:24:18 24.1 C 20 %
2053 10-09-2019 16:34:17 24.9 C 20 %
2054 10-09-2019 16:44:17 26.8 C 20 %
2055 10-09-2019 16:54:17 21.5 C 20 %
2056 10-09-2019 17:04:18 20 C 20 %
2057 10-09-2019 17:14:18 20.7 C 20 %
2058 10-09-2019 17:24:17 17.8 C 20 %
2059 10-09-2019 17:34:17 17 C 20 %
2060 10-09-2019 17:44:17 17.7 C 20 %
2061 10-09-2019 17:54:18 17.8 C 20 %
2062 10-09-2019 18:04:17 18.3 C 20 %
2063 10-09-2019 18:14:17 18.3 C 20 %
2064 10-09-2019 18:24:17 17.7 C 20 %
2065 10-09-2019 18:34:17 17.3 C 20 %
2066 10-09-2019 18:44:17 16.9 C 20 %
2067 10-09-2019 18:54:18 16.7 C 20 %
2068 10-09-2019 19:04:17 16 C 20 %
2069 10-09-2019 19:14:17 15.4 C 20 %
2070 10-09-2019 19:24:17 15.2 C 20 %
2071 10-09-2019 19:34:17 14.8 C 20 %
2072 10-09-2019 19:44:17 14.3 C 20 %
2073 10-09-2019 19:54:18 14 C 20 %
2074 10-09-2019 20:04:17 13.8 C 20 %
2075 10-09-2019 20:14:17 13.4 C 20 %
Sensor: Nr:Datum:Temp:Feuchte:
Aussen-T/F 2076 10-09-2019 20:24:17 12.9 C 20 %
2077 10-09-2019 20:34:17 12.5 C 20 %
2078 10-09-2019 20:44:17 12.2 C 20 %
2079 10-09-2019 20:54:17 11.9 C 20 %
2080 10-09-2019 21:04:17 11.4 C 20 %
2081 10-09-2019 21:14:17 11.1 C 20 %
2082 10-09-2019 21:24:17 11.1 C 20 %
2083 10-09-2019 21:34:17 10.9 C 20 %
2084 10-09-2019 21:44:17 10.6 C 20 %
2085 10-09-2019 21:54:17 10.3 C 20 %
2086 10-09-2019 22:04:17 10 C 20 %
2087 10-09-2019 22:14:17 9.9 C 20 %
2088 10-09-2019 22:24:17 9.8 C 20 %
2089 10-09-2019 22:34:17 9.7 C 20 %
2090 10-09-2019 22:44:17 9.7 C 20 %
2091 10-09-2019 22:54:18 9.5 C 20 %
2092 10-09-2019 23:04:17 9.3 C 20 %
2093 10-09-2019 23:14:17 9.1 C 20 %
2094 10-09-2019 23:24:18 9 C 20 %
2095 10-09-2019 23:34:17 9.1 C 20 %
2096 10-09-2019 23:44:17 8.9 C 20 %
2097 10-09-2019 23:54:17 8.9 C 20 %
2098 11-09-2019 00:04:17 8.9 C 20 %
2099 11-09-2019 00:14:17 8.8 C 20 %
2100 11-09-2019 00:24:17 8.8 C 20 %
Sensor: Nr:Datum:Temp:Feuchte:
Aussen-T/F 2101 11-09-2019 00:34:17 8.7 C 20 %
2102 11-09-2019 00:44:17 8.5 C 20 %
2103 11-09-2019 00:54:18 8.5 C 20 %
2104 11-09-2019 01:04:17 8.4 C 20 %
2105 11-09-2019 01:14:17 7.9 C 20 %
2106 11-09-2019 01:24:18 7.8 C 20 %
2107 11-09-2019 01:34:17 7.8 C 20 %
2108 11-09-2019 01:44:17 7.5 C 20 %
2109 11-09-2019 01:54:17 7.7 C 20 %
2110 11-09-2019 02:04:17 7.6 C 20 %
2111 11-09-2019 02:14:17 7.3 C 20 %
2112 11-09-2019 02:24:17 7.3 C 20 %
2113 11-09-2019 02:34:17 7.4 C 20 %
2114 11-09-2019 02:44:17 7.2 C 20 %
2115 11-09-2019 02:54:17 7.3 C 20 %
2116 11-09-2019 03:04:17 7 C 20 %
2117 11-09-2019 03:14:17 7 C 20 %
2118 11-09-2019 03:24:17 7 C 20 %
2119 11-09-2019 03:34:17 6.9 C 21 %
2120 11-09-2019 03:44:17 7.1 C 21 %
2121 11-09-2019 03:54:17 6.9 C 23 %
2122 11-09-2019 04:04:17 6.7 C 21 %
2123 11-09-2019 04:14:17 6.6 C 23 %
2124 11-09-2019 04:24:17 6.4 C 23 %
2125 11-09-2019 04:34:17 6.4 C 23 %
Sensor: Nr:Datum:Temp:Feuchte:
Aussen-T/F 2126 11-09-2019 04:44:17 6.5 C 25 %
2127 11-09-2019 04:54:18 6.4 C 25 %
2128 11-09-2019 05:04:17 6.4 C 25 %
2129 11-09-2019 05:14:17 6.3 C 25 %
2130 11-09-2019 05:24:17 6.3 C 25 %
2131 11-09-2019 05:34:17 6.4 C 25 %
2132 11-09-2019 05:44:17 6.4 C 25 %
2133 11-09-2019 05:54:18 6.3 C 25 %
2134 11-09-2019 06:04:17 6.1 C 25 %
2135 11-09-2019 06:14:17 6.1 C 25 %
2136 11-09-2019 06:24:18 6 C 25 %
2137 11-09-2019 06:34:17 6.1 C 25 %
2138 11-09-2019 06:44:17 6.1 C 25 %
2139 11-09-2019 06:54:18 5.8 C 25 %
2140 11-09-2019 07:04:17 5.8 C 25 %
2141 11-09-2019 07:14:17 5.9 C 25 %
2142 11-09-2019 07:24:18 6 C 25 %
2143 11-09-2019 07:34:17 6.3 C 26 %
2144 11-09-2019 07:44:17 6.3 C 25 %
2145 11-09-2019 07:54:17 6.3 C 25 %
2146 11-09-2019 08:04:17 7.3 C 25 %
2147 11-09-2019 08:14:17 7.9 C 21 %
2148 11-09-2019 08:24:18 8.2 C 20 %
2149 11-09-2019 08:34:17 8.8 C 20 %
2150 11-09-2019 08:44:17 9 C 20 %
Sensor: Nr:Datum:Temp:Feuchte:
Aussen-T/F 2151 11-09-2019 08:54:18 9.6 C 20 %
2152 11-09-2019 09:04:17 9.8 C 20 %
2153 11-09-2019 09:14:17 10.2 C 20 %
2154 11-09-2019 09:24:17 10.1 C 20 %
2155 11-09-2019 09:34:17 9.9 C 20 %
2156 11-09-2019 09:44:17 9.6 C 20 %
2157 11-09-2019 09:54:18 9.6 C 20 %
2158 11-09-2019 10:04:17 9.7 C 20 %
2159 11-09-2019 10:14:17 10.5 C 20 %
2160 11-09-2019 10:24:17 11.1 C 20 %
2161 11-09-2019 10:34:17 11.5 C 20 %
2162 11-09-2019 10:44:17 11.6 C 20 %
2163 11-09-2019 10:54:18 12.1 C 20 %
2164 11-09-2019 11:04:17 12.5 C 20 %
2165 11-09-2019 11:14:17 12.8 C 20 %
2166 11-09-2019 11:24:17 13.5 C 20 %
2167 11-09-2019 11:34:17 14.1 C 20 %
2168 11-09-2019 11:44:17 15.1 C 20 %
2169 11-09-2019 11:54:18 15.8 C 20 %
2170 11-09-2019 12:04:17 16.4 C 20 %
2171 11-09-2019 12:14:17 17.3 C 20 %
2172 11-09-2019 12:24:18 18.1 C 20 %
2173 11-09-2019 12:34:17 18.4 C 20 %
2174 11-09-2019 12:44:17 19 C 20 %
2175 11-09-2019 12:54:18 18.9 C 20 %
Sensor: Nr:Datum:Temp:Feuchte:
Aussen-T/F 2176 11-09-2019 13:04:17 19.6 C 20 %
2177 11-09-2019 13:14:17 20.1 C 20 %
2178 11-09-2019 13:24:18 20.7 C 20 %
2179 11-09-2019 13:34:17 20.9 C 20 %
2180 11-09-2019 13:44:17 20.9 C 20 %
2181 11-09-2019 13:54:17 20.6 C 20 %
2182 11-09-2019 14:04:18 21.2 C 20 %
2183 11-09-2019 14:14:18 21.4 C 20 %
2184 11-09-2019 14:24:17 22.2 C 20 %
2185 11-09-2019 14:34:18 22.8 C 20 %
2186 11-09-2019 14:44:18 23.9 C 20 %
2187 11-09-2019 14:54:17 22.9 C 20 %
2188 11-09-2019 15:04:18 22.8 C 20 %
2189 11-09-2019 15:14:18 21.3 C 20 %
2190 11-09-2019 15:24:17 21.2 C 20 %
2191 11-09-2019 15:34:17 21.1 C 20 %
2192 11-09-2019 15:44:17 21 C 20 %
2193 11-09-2019 15:54:17 21.2 C 20 %
2194 11-09-2019 16:04:17 20.8 C 20 %
2195 11-09-2019 16:14:17 20.6 C 20 %
2196 11-09-2019 16:24:18 20.6 C 20 %
2197 11-09-2019 16:34:17 19.1 C 20 %
2198 11-09-2019 16:44:17 19 C 20 %
2199 11-09-2019 16:54:17 19.4 C 20 %
2200 11-09-2019 17:04:17 19.6 C 20 %
Sensor: Nr:Datum:Temp:Feuchte:
Aussen-T/F 2201 11-09-2019 17:14:17 19.7 C 20 %
2202 11-09-2019 17:24:17 19.6 C 20 %
2203 11-09-2019 17:34:17 18.9 C 20 %
2204 11-09-2019 17:44:18 18.8 C 20 %
2205 11-09-2019 17:54:17 19 C 20 %
2206 11-09-2019 18:04:17 19 C 20 %
2207 11-09-2019 18:14:17 18.9 C 20 %
2208 11-09-2019 18:24:17 18.2 C 20 %
2209 11-09-2019 18:34:18 18.1 C 20 %
2210 11-09-2019 18:44:18 17.5 C 20 %
2211 11-09-2019 18:54:17 17.5 C 20 %
2212 11-09-2019 19:04:18 17.6 C 20 %
2213 11-09-2019 19:14:18 17.7 C 20 %
2214 11-09-2019 19:24:17 17.7 C 20 %
2215 11-09-2019 19:34:18 17.2 C 20 %
2216 11-09-2019 19:44:18 17 C 20 %
2217 11-09-2019 19:54:17 16.7 C 20 %
2218 11-09-2019 20:04:17 16.5 C 20 %
2219 11-09-2019 20:14:17 16 C 20 %
2220 11-09-2019 20:24:17 16.5 C 20 %
2221 11-09-2019 20:34:17 16.3 C 20 %
2222 11-09-2019 20:44:17 16.6 C 20 %
2223 11-09-2019 20:54:17 16.4 C 20 %
2224 11-09-2019 21:04:17 16.3 C 20 %
2225 11-09-2019 21:14:17 16.2 C 20 %
Sensor: Nr:Datum:Temp:Feuchte:
Aussen-T/F 2226 11-09-2019 21:24:17 16.3 C 20 %
2227 11-09-2019 21:34:17 16.3 C 20 %
2228 11-09-2019 21:44:17 16.3 C 20 %
2229 11-09-2019 21:54:17 16.7 C 20 %
2230 11-09-2019 22:04:18 16.6 C 20 %
2231 11-09-2019 22:14:18 17 C 20 %
2232 11-09-2019 22:24:17 17.1 C 20 %
2233 11-09-2019 22:34:18 15.6 C 20 %
2234 11-09-2019 22:44:18 15.4 C 20 %
2235 11-09-2019 22:54:17 15.5 C 20 %
2236 11-09-2019 23:04:17 15.6 C 20 %
2237 11-09-2019 23:14:17 15.6 C 20 %
2238 11-09-2019 23:24:17 15.5 C 20 %
2239 11-09-2019 23:34:17 15.2 C 20 %
2240 11-09-2019 23:44:17 15 C 20 %
2241 11-09-2019 23:54:17 15.1 C 20 %
2242 12-09-2019 00:04:17 15.1 C 20 %
2243 12-09-2019 00:14:17 15.4 C 20 %
2244 12-09-2019 00:24:18 15.8 C 20 %
2245 12-09-2019 00:34:17 16.1 C 20 %
2246 12-09-2019 00:44:17 16.5 C 20 %
2247 12-09-2019 00:54:17 16.9 C 20 %
2248 12-09-2019 01:04:17 16.6 C 20 %
2249 12-09-2019 01:14:17 16 C 20 %
2250 12-09-2019 01:24:17 15.9 C 20 %
Sensor: Nr:Datum:Temp:Feuchte:
Aussen-T/F 2251 12-09-2019 01:34:17 16.2 C 20 %
2252 12-09-2019 01:44:17 16.5 C 20 %
2253 12-09-2019 01:54:18 17.2 C 20 %
2254 12-09-2019 02:04:17 17.6 C 20 %
2255 12-09-2019 02:14:17 17.8 C 20 %
2256 12-09-2019 02:24:18 17.9 C 20 %
2257 12-09-2019 02:34:17 18 C 20 %
2258 12-09-2019 02:44:17 17.7 C 20 %
2259 12-09-2019 02:54:18 17.7 C 20 %
2260 12-09-2019 03:04:17 17.5 C 20 %
2261 12-09-2019 03:14:17 17.4 C 20 %
2262 12-09-2019 03:24:18 17.5 C 20 %
2263 12-09-2019 03:34:17 17.5 C 20 %
2264 12-09-2019 03:44:17 17.6 C 20 %
2265 12-09-2019 03:54:18 17.5 C 20 %
2266 12-09-2019 04:04:17 17.4 C 20 %
2267 12-09-2019 04:14:17 17.3 C 20 %
2268 12-09-2019 04:24:18 17.2 C 20 %
2269 12-09-2019 04:34:17 17.3 C 20 %
2270 12-09-2019 04:44:17 17.1 C 20 %
2271 12-09-2019 04:54:18 16.9 C 20 %
2272 12-09-2019 05:04:17 17 C 20 %
2273 12-09-2019 05:14:17 17.1 C 20 %
2274 12-09-2019 05:24:17 17.4 C 20 %
2275 12-09-2019 05:34:17 17.2 C 20 %
Sensor: Nr:Datum:Temp:Feuchte:
Aussen-T/F 2276 12-09-2019 05:44:17 17.2 C 20 %
2277 12-09-2019 05:54:18 17.2 C 20 %
2278 12-09-2019 06:04:17 17.1 C 20 %
2279 12-09-2019 06:14:17 17 C 20 %
2280 12-09-2019 06:24:17 16.9 C 20 %
2281 12-09-2019 06:34:17 16.7 C 20 %
2282 12-09-2019 06:44:17 16.6 C 20 %
2283 12-09-2019 06:54:17 15.8 C 20 %
2284 12-09-2019 07:04:17 15.6 C 20 %
2285 12-09-2019 07:14:17 16 C 20 %
2286 12-09-2019 07:24:17 16.2 C 20 %
2287 12-09-2019 07:34:18 16.2 C 20 %
2288 12-09-2019 07:44:18 16.4 C 20 %
2289 12-09-2019 07:54:17 16.6 C 20 %
2290 12-09-2019 08:04:18 16.8 C 20 %
2291 12-09-2019 08:14:18 16.7 C 20 %
2292 12-09-2019 08:24:17 17.1 C 20 %
2293 12-09-2019 08:34:18 17.2 C 20 %
2294 12-09-2019 08:44:18 17.3 C 20 %
2295 12-09-2019 08:54:17 17.4 C 20 %
2296 12-09-2019 09:04:17 17.5 C 20 %
2297 12-09-2019 09:14:17 17.4 C 20 %
2298 12-09-2019 09:24:17 17.3 C 20 %
2299 12-09-2019 09:34:17 17.5 C 20 %
2300 12-09-2019 09:44:17 17.9 C 20 %
Sensor: Nr:Datum:Temp:Feuchte:
Aussen-T/F 2301 12-09-2019 09:54:17 17.8 C 20 %
2302 12-09-2019 10:04:18 18 C 20 %
2303 12-09-2019 10:14:18 18.1 C 20 %
2304 12-09-2019 10:24:17 18.6 C 20 %
2305 12-09-2019 10:34:17 18.7 C 20 %
2306 12-09-2019 10:44:17 18.5 C 20 %
2307 12-09-2019 10:54:17 18.8 C 20 %
2308 12-09-2019 11:04:18 19.2 C 20 %
2309 12-09-2019 11:14:18 19.3 C 20 %
2310 12-09-2019 11:24:17 19.3 C 20 %
2311 12-09-2019 11:34:17 20.3 C 20 %
2312 12-09-2019 11:44:17 21.2 C 20 %
2313 12-09-2019 11:54:17 20.9 C 20 %
2314 12-09-2019 12:04:18 21 C 20 %
2315 12-09-2019 12:14:18 21.3 C 20 %
2316 12-09-2019 12:24:17 20.8 C 20 %
2317 12-09-2019 12:34:17 20.9 C 20 %
2318 12-09-2019 12:44:17 20.5 C 20 %
2319 12-09-2019 12:54:17 20.3 C 20 %
2320 12-09-2019 13:04:17 21 C 20 %
2321 12-09-2019 13:14:17 21.1 C 20 %
2322 12-09-2019 13:24:17 21.6 C 20 %
2323 12-09-2019 13:34:17 21.6 C 20 %
2324 12-09-2019 13:44:18 22.1 C 20 %
2325 12-09-2019 13:54:17 22.1 C 20 %
Sensor: Nr:Datum:Temp:Feuchte:
Aussen-T/F 2326 12-09-2019 14:04:17 21.6 C 20 %
2327 12-09-2019 14:14:17 21.6 C 20 %
2328 12-09-2019 14:24:17 21.4 C 20 %
2329 12-09-2019 14:34:17 21.1 C 20 %
2330 12-09-2019 14:44:17 21.1 C 20 %
2331 12-09-2019 14:54:18 20.9 C 20 %
2332 12-09-2019 15:04:17 25.7 C 20 %
2333 12-09-2019 15:14:17 28.7 C 20 %
2334 12-09-2019 15:24:17 24.5 C 20 %
2335 12-09-2019 15:34:17 23.4 C 20 %
2336 12-09-2019 15:44:17 22.6 C 20 %
2337 12-09-2019 15:54:17 22.4 C 20 %
2338 12-09-2019 16:04:17 22.6 C 20 %
2339 12-09-2019 16:14:17 24.8 C 20 %
2340 12-09-2019 16:24:18 29.1 C 20 %
2341 12-09-2019 16:34:17 24.3 C 20 %
2342 12-09-2019 16:44:17 26.3 C 20 %
2343 12-09-2019 16:54:17 25 C 20 %
2344 12-09-2019 17:04:17 26.9 C 20 %
2345 12-09-2019 17:14:17 26.7 C 20 %
2346 12-09-2019 17:24:17 25.7 C 20 %
2347 12-09-2019 17:34:17 26.9 C 20 %
2348 12-09-2019 17:44:17 27.1 C 20 %
2349 12-09-2019 17:54:17 24.1 C 20 %
2350 12-09-2019 18:04:18 24.3 C 20 %
Sensor: Nr:Datum:Temp:Feuchte:
Aussen-T/F 2351 12-09-2019 18:14:18 23.8 C 20 %
2352 12-09-2019 18:24:18 23.7 C 20 %
2353 12-09-2019 18:34:17 23.4 C 20 %
2354 12-09-2019 18:44:17 23.1 C 20 %
2355 12-09-2019 18:54:17 22.9 C 20 %
2356 12-09-2019 19:04:17 22.1 C 20 %
2357 12-09-2019 19:14:17 21.6 C 20 %
2358 12-09-2019 19:24:17 21.3 C 20 %
2359 12-09-2019 19:34:17 20.5 C 20 %
2360 12-09-2019 19:44:17 19.9 C 20 %
2361 12-09-2019 19:54:17 19.4 C 20 %
2362 12-09-2019 20:04:17 18.9 C 20 %
2363 12-09-2019 20:14:17 18.8 C 20 %
2364 12-09-2019 20:24:17 18.5 C 20 %
2365 12-09-2019 20:34:18 18.4 C 20 %
2366 12-09-2019 20:44:18 18.3 C 20 %
2367 12-09-2019 20:54:17 18.3 C 20 %
2368 12-09-2019 21:04:18 18.2 C 20 %
2369 12-09-2019 21:14:18 18.5 C 20 %
2370 12-09-2019 21:24:17 18.5 C 20 %
2371 12-09-2019 21:34:18 18.7 C 20 %
2372 12-09-2019 21:44:18 19 C 20 %
2373 12-09-2019 21:54:17 18.9 C 20 %
2374 12-09-2019 22:04:18 18.9 C 20 %
2375 12-09-2019 22:14:18 18.6 C 20 %
Sensor: Nr:Datum:Temp:Feuchte:
Aussen-T/F 2376 12-09-2019 22:24:17 18.6 C 20 %
2377 12-09-2019 22:34:18 18.3 C 20 %
2378 12-09-2019 22:44:18 17.9 C 20 %
2379 12-09-2019 22:54:17 17.2 C 20 %
2380 12-09-2019 23:04:17 16.8 C 20 %
2381 12-09-2019 23:14:17 16.5 C 20 %
2382 12-09-2019 23:24:18 16.3 C 20 %
2383 12-09-2019 23:34:17 16.1 C 20 %
2384 12-09-2019 23:44:17 16 C 20 %
2385 12-09-2019 23:54:18 15.7 C 20 %
2386 13-09-2019 00:04:17 15.6 C 20 %
2387 13-09-2019 00:14:17 15.4 C 20 %
2388 13-09-2019 00:24:18 15.3 C 20 %
2389 13-09-2019 00:34:17 15.1 C 20 %
2390 13-09-2019 00:44:17 15.4 C 20 %
2391 13-09-2019 00:54:17 15.4 C 20 %
2392 13-09-2019 01:04:17 15.3 C 20 %
2393 13-09-2019 01:14:17 15.5 C 20 %
2394 13-09-2019 01:24:17 15.6 C 20 %
2395 13-09-2019 01:34:17 15.4 C 20 %
2396 13-09-2019 01:44:17 15.5 C 20 %
2397 13-09-2019 01:54:18 15.1 C 20 %
2398 13-09-2019 02:04:17 15 C 20 %
2399 13-09-2019 02:14:17 15.5 C 20 %
2400 13-09-2019 02:24:17 15.1 C 20 %
Sensor: Nr:Datum:Temp:Feuchte:
Aussen-T/F 2401 13-09-2019 02:34:17 15 C 20 %
2402 13-09-2019 02:44:18 14.9 C 20 %
2403 13-09-2019 02:54:17 14.7 C 20 %
2404 13-09-2019 03:04:17 14.7 C 20 %
2405 13-09-2019 03:14:17 14.6 C 20 %
2406 13-09-2019 03:24:17 15 C 20 %
2407 13-09-2019 03:34:17 15.2 C 20 %
2408 13-09-2019 03:44:17 15.4 C 20 %
2409 13-09-2019 03:54:17 15.5 C 20 %
2410 13-09-2019 04:04:17 15.6 C 20 %
2411 13-09-2019 04:14:17 15.8 C 20 %
2412 13-09-2019 04:24:17 15.6 C 20 %
2413 13-09-2019 04:34:17 15.9 C 20 %
2414 13-09-2019 04:44:17 15.9 C 20 %
2415 13-09-2019 04:54:18 15.9 C 20 %
2416 13-09-2019 05:04:17 16.3 C 20 %
2417 13-09-2019 05:14:17 16.4 C 20 %
2418 13-09-2019 05:24:17 16.4 C 20 %
2419 13-09-2019 05:34:17 16.3 C 20 %
2420 13-09-2019 05:44:17 16.1 C 20 %
2421 13-09-2019 05:54:17 16.1 C 20 %
2422 13-09-2019 06:04:17 16.1 C 20 %
2423 13-09-2019 06:14:17 16.1 C 20 %
2424 13-09-2019 06:24:17 16.1 C 20 %
2425 13-09-2019 06:34:17 16.3 C 20 %
Sensor: Nr:Datum:Temp:Feuchte:
Aussen-T/F 2426 13-09-2019 06:44:17 16.5 C 20 %
2427 13-09-2019 06:54:18 16.6 C 20 %
2428 13-09-2019 07:04:17 16.4 C 20 %
2429 13-09-2019 07:14:17 16.4 C 20 %
2430 13-09-2019 07:24:17 16.4 C 20 %
2431 13-09-2019 07:34:17 16.6 C 20 %
2432 13-09-2019 07:44:18 16.6 C 20 %
2433 13-09-2019 07:54:17 16.7 C 20 %
2434 13-09-2019 08:04:17 16.8 C 20 %
2435 13-09-2019 08:14:17 16.9 C 20 %
2436 13-09-2019 08:24:17 17.1 C 20 %
2437 13-09-2019 08:34:17 17 C 20 %
2438 13-09-2019 08:44:17 16.7 C 20 %
2439 13-09-2019 08:54:18 17.2 C 20 %
2440 13-09-2019 09:04:17 17.2 C 20 %
2441 13-09-2019 09:14:17 17.5 C 20 %
2442 13-09-2019 09:24:17 17.6 C 20 %
2443 13-09-2019 09:34:17 18.5 C 20 %
2444 13-09-2019 09:44:17 18.5 C 20 %
2445 13-09-2019 09:54:17 18.9 C 20 %
2446 13-09-2019 10:04:18 18.7 C 20 %
2447 13-09-2019 10:14:18 19.2 C 20 %
2448 13-09-2019 10:24:17 19.5 C 20 %
2449 13-09-2019 10:34:18 19.6 C 20 %
2450 13-09-2019 10:44:18 20.1 C 20 %
Sensor: Nr:Datum:Temp:Feuchte:
Aussen-T/F 2451 13-09-2019 10:54:17 20.2 C 20 %
2452 13-09-2019 11:04:17 20.5 C 20 %
2453 13-09-2019 11:14:17 20.5 C 20 %
2454 13-09-2019 11:24:17 20.4 C 20 %
2455 13-09-2019 11:34:17 19.8 C 20 %
2456 13-09-2019 11:44:17 20.1 C 20 %
2457 13-09-2019 11:54:17 20.3 C 20 %
2458 13-09-2019 12:04:17 22.1 C 20 %
2459 13-09-2019 12:14:17 22.5 C 20 %
2460 13-09-2019 12:24:17 22.5 C 20 %
2461 13-09-2019 12:34:17 22.2 C 20 %
2462 13-09-2019 12:44:17 22.3 C 20 %
2463 13-09-2019 12:54:17 21.9 C 20 %
2464 13-09-2019 13:04:17 21.2 C 20 %
2465 13-09-2019 13:14:17 21.7 C 20 %
2466 13-09-2019 13:24:17 21.5 C 20 %
2467 13-09-2019 13:34:17 21.6 C 20 %
2468 13-09-2019 13:44:17 21.4 C 20 %
2469 13-09-2019 13:54:18 21.9 C 20 %
2470 13-09-2019 14:04:17 22.6 C 20 %
2471 13-09-2019 14:14:17 21.9 C 20 %
2472 13-09-2019 14:24:17 21.8 C 20 %
2473 13-09-2019 14:34:17 21.8 C 20 %
2474 13-09-2019 14:44:17 22.5 C 20 %
2475 13-09-2019 14:54:17 21.5 C 20 %
Sensor: Nr:Datum:Temp:Feuchte:
Aussen-T/F 2476 13-09-2019 15:04:17 21.2 C 20 %
2477 13-09-2019 15:14:17 22.3 C 20 %
2478 13-09-2019 15:24:17 22.4 C 20 %
2479 13-09-2019 15:34:17 21.7 C 20 %
2480 13-09-2019 15:44:17 21.5 C 20 %
2481 13-09-2019 15:54:17 20.6 C 20 %
2482 13-09-2019 16:04:17 20.2 C 20 %
2483 13-09-2019 16:14:17 18.9 C 20 %
2484 13-09-2019 16:24:18 18.5 C 20 %
2485 13-09-2019 16:34:17 19.1 C 20 %
2486 13-09-2019 16:44:17 19.1 C 20 %
2487 13-09-2019 16:54:18 19.1 C 20 %
2488 13-09-2019 17:04:17 19.1 C 20 %
2489 13-09-2019 17:14:17 19.2 C 20 %
2490 13-09-2019 17:24:17 19.6 C 20 %
2491 13-09-2019 17:34:17 19.6 C 20 %
2492 13-09-2019 17:44:17 20.1 C 20 %
2493 13-09-2019 17:54:17 19.9 C 20 %
2494 13-09-2019 18:04:17 19.9 C 20 %
2495 13-09-2019 18:14:17 19.9 C 20 %
2496 13-09-2019 18:24:17 20 C 20 %
2497 13-09-2019 18:34:17 20 C 20 %
2498 13-09-2019 18:44:17 19.8 C 20 %
2499 13-09-2019 18:54:17 20 C 20 %
2500 13-09-2019 19:04:17 19.2 C 20 %
Sensor: Nr:Datum:Temp:Feuchte:
Aussen-T/F 2501 13-09-2019 19:14:17 18.5 C 20 %
2502 13-09-2019 19:24:17 17.9 C 20 %
2503 13-09-2019 19:34:17 17.7 C 20 %
2504 13-09-2019 19:44:17 17.5 C 20 %
2505 13-09-2019 19:54:18 17.2 C 20 %
2506 13-09-2019 20:04:17 17.2 C 20 %
2507 13-09-2019 20:14:17 17.3 C 20 %
2508 13-09-2019 20:24:17 17.5 C 20 %
2509 13-09-2019 20:34:17 17.3 C 20 %
2510 13-09-2019 20:44:17 16.9 C 20 %
2511 13-09-2019 20:54:18 16.7 C 20 %
2512 13-09-2019 21:04:17 16.6 C 20 %
2513 13-09-2019 21:14:17 16.8 C 20 %
2514 13-09-2019 21:24:17 16.7 C 20 %
2515 13-09-2019 21:34:17 16.4 C 20 %
2516 13-09-2019 21:44:17 16.3 C 20 %
2517 13-09-2019 21:54:18 16.1 C 20 %
2518 13-09-2019 22:04:17 16.2 C 20 %
2519 13-09-2019 22:14:17 16 C 20 %
2520 13-09-2019 22:24:18 15.8 C 20 %
2521 13-09-2019 22:34:17 15.5 C 20 %
2522 13-09-2019 22:44:17 15.3 C 21 %
2523 13-09-2019 22:54:17 15.2 C 21 %
2524 13-09-2019 23:04:17 14.8 C 21 %
2525 13-09-2019 23:14:17 14.8 C 22 %
Sensor: Nr:Datum:Temp:Feuchte:
Aussen-T/F 2526 13-09-2019 23:24:18 14.6 C 22 %
2527 13-09-2019 23:34:17 14.8 C 23 %
2528 13-09-2019 23:44:17 15.3 C 23 %
2529 13-09-2019 23:54:17 15.2 C 23 %
2530 14-09-2019 00:04:17 15.2 C 22 %
2531 14-09-2019 00:14:17 15 C 22 %
2532 14-09-2019 00:24:17 15 C 22 %
2533 14-09-2019 00:34:17 14.7 C 23 %
2534 14-09-2019 00:44:17 14.6 C 23 %
2535 14-09-2019 00:54:17 14.5 C 23 %
2536 14-09-2019 01:04:17 14.4 C 24 %
2537 14-09-2019 01:14:17 14.1 C 23 %
2538 14-09-2019 01:24:17 14 C 23 %
2539 14-09-2019 01:34:17 13.7 C 24 %
2540 14-09-2019 01:44:17 13.5 C 23 %
2541 14-09-2019 01:54:18 13.4 C 25 %
2542 14-09-2019 02:04:17 13 C 23 %
2543 14-09-2019 02:14:17 12.9 C 25 %
2544 14-09-2019 02:24:17 12.9 C 25 %
2545 14-09-2019 02:34:18 12.6 C 25 %
2546 14-09-2019 02:44:18 12.4 C 25 %
2547 14-09-2019 02:54:17 12.2 C 25 %
2548 14-09-2019 03:04:17 12.2 C 25 %
2549 14-09-2019 03:14:17 12.2 C 26 %
2550 14-09-2019 03:24:18 12 C 25 %
Sensor: Nr:Datum:Temp:Feuchte:
Aussen-T/F 2551 14-09-2019 03:34:17 11.8 C 26 %
2552 14-09-2019 03:44:17 11.7 C 26 %
2553 14-09-2019 03:54:17 11.7 C 26 %
2554 14-09-2019 04:04:17 11.3 C 26 %
2555 14-09-2019 04:14:17 11.5 C 27 %
2556 14-09-2019 04:24:17 11.3 C 26 %
2557 14-09-2019 04:34:17 11.2 C 27 %
2558 14-09-2019 04:44:17 11.1 C 26 %
2559 14-09-2019 04:54:17 11 C 26 %
2560 14-09-2019 05:04:17 10.7 C 26 %
2561 14-09-2019 05:14:17 10.8 C 27 %
2562 14-09-2019 05:24:17 10.6 C 27 %
2563 14-09-2019 05:34:17 10.6 C 27 %
2564 14-09-2019 05:44:17 10.4 C 26 %
2565 14-09-2019 05:54:18 10.4 C 27 %
2566 14-09-2019 06:04:17 10.4 C 27 %
2567 14-09-2019 06:14:18 10.5 C 27 %
2568 14-09-2019 06:24:17 10.3 C 26 %
2569 14-09-2019 06:34:17 10.1 C 26 %
2570 14-09-2019 06:44:17 9.8 C 26 %
2571 14-09-2019 06:54:17 9.8 C 27 %
2572 14-09-2019 07:04:18 9.7 C 27 %
2573 14-09-2019 07:14:18 9.7 C 28 %
2574 14-09-2019 07:24:17 9.6 C 27 %
2575 14-09-2019 07:34:18 9.7 C 28 %
Sensor: Nr:Datum:Temp:Feuchte:
Aussen-T/F 2576 14-09-2019 07:44:18 10.1 C 28 %
2577 14-09-2019 07:54:17 9.9 C 28 %
2578 14-09-2019 08:04:18 9.8 C 27 %
2579 14-09-2019 08:14:18 9.8 C 27 %
2580 14-09-2019 08:24:17 10.1 C 27 %
2581 14-09-2019 08:34:18 10.1 C 26 %
2582 14-09-2019 08:44:18 10.1 C 26 %
2583 14-09-2019 08:54:17 10.3 C 27 %
2584 14-09-2019 09:04:18 10.3 C 26 %
2585 14-09-2019 09:14:18 10.6 C 26 %
2586 14-09-2019 09:24:17 10.7 C 26 %
2587 14-09-2019 09:34:18 10.9 C 26 %
2588 14-09-2019 09:44:18 11.2 C 25 %
2589 14-09-2019 09:54:17 11.6 C 25 %
2590 14-09-2019 10:04:18 11.7 C 25 %
2591 14-09-2019 10:14:18 12 C 25 %
2592 14-09-2019 10:24:17 12.2 C 24 %
2593 14-09-2019 10:34:18 12.6 C 21 %
2594 14-09-2019 10:44:18 13 C 20 %
2595 14-09-2019 10:54:17 13.3 C 20 %
2596 14-09-2019 11:04:18 13.5 C 20 %
2597 14-09-2019 11:14:18 13.8 C 20 %
2598 14-09-2019 11:24:17 14 C 20 %
2599 14-09-2019 11:34:17 14.2 C 20 %
2600 14-09-2019 11:44:17 14.6 C 20 %
Sensor: Nr:Datum:Temp:Feuchte:
Aussen-T/F 2601 14-09-2019 11:54:17 14.7 C 20 %
2602 14-09-2019 12:04:17 15 C 20 %
2603 14-09-2019 12:14:17 15.5 C 20 %
2604 14-09-2019 12:24:17 16.2 C 20 %
2605 14-09-2019 12:34:17 16.7 C 20 %
2606 14-09-2019 12:44:17 16.6 C 20 %
2607 14-09-2019 12:54:18 16.7 C 20 %
2608 14-09-2019 13:04:17 17.1 C 20 %
2609 14-09-2019 13:14:17 17.5 C 20 %
2610 14-09-2019 13:24:17 17.9 C 20 %
2611 14-09-2019 13:34:17 18.4 C 20 %
2612 14-09-2019 13:44:17 18.7 C 20 %
2613 14-09-2019 13:54:18 19.4 C 20 %
2614 14-09-2019 14:04:17 19.7 C 20 %
2615 14-09-2019 14:14:17 21.2 C 20 %
2616 14-09-2019 14:24:17 22.3 C 20 %
2617 14-09-2019 14:34:17 25 C 20 %
2618 14-09-2019 14:44:17 25.7 C 20 %
2619 14-09-2019 14:54:18 25 C 20 %
2620 14-09-2019 15:04:17 26.5 C 20 %
2621 14-09-2019 15:14:17 26.8 C 20 %
2622 14-09-2019 15:24:17 28.6 C 20 %
2623 14-09-2019 15:34:17 30.8 C 20 %
2624 14-09-2019 15:44:17 28.8 C 20 %
2625 14-09-2019 15:54:17 29.8 C 20 %
Sensor: Nr:Datum:Temp:Feuchte:
Aussen-T/F 2626 14-09-2019 16:04:17 30 C 20 %
2627 14-09-2019 16:14:17 29.2 C 20 %
2628 14-09-2019 16:24:17 28.9 C 20 %
2629 14-09-2019 16:34:17 28.4 C 20 %
2630 14-09-2019 16:44:17 30.5 C 20 %
2631 14-09-2019 16:54:17 30.5 C 20 %
2632 14-09-2019 17:04:17 30.8 C 20 %
2633 14-09-2019 17:14:17 29.5 C 20 %
2634 14-09-2019 17:24:17 27.8 C 20 %
2635 14-09-2019 17:34:17 27.6 C 20 %
2636 14-09-2019 17:44:18 25.4 C 20 %
2637 14-09-2019 17:54:17 24.2 C 20 %
2638 14-09-2019 18:04:18 24 C 20 %
2639 14-09-2019 18:14:18 23.1 C 20 %
2640 14-09-2019 18:24:17 22.5 C 20 %
2641 14-09-2019 18:34:17 21.8 C 20 %
2642 14-09-2019 18:44:17 21.1 C 20 %
2643 14-09-2019 18:54:17 20.5 C 20 %
2644 14-09-2019 19:04:18 19.8 C 20 %
2645 14-09-2019 19:14:18 19.3 C 20 %
2646 14-09-2019 19:24:17 18.6 C 20 %
2647 14-09-2019 19:34:17 17.8 C 20 %
2648 14-09-2019 19:44:17 17.6 C 20 %
2649 14-09-2019 19:54:17 17.2 C 20 %
2650 14-09-2019 20:04:18 16.6 C 20 %
Sensor: Nr:Datum:Temp:Feuchte:
Aussen-T/F 2651 14-09-2019 20:14:18 16.6 C 20 %
2652 14-09-2019 20:24:17 16.5 C 20 %
2653 14-09-2019 20:34:18 16.2 C 20 %
2654 14-09-2019 20:44:18 16 C 20 %
2655 14-09-2019 20:54:17 16 C 20 %
2656 14-09-2019 21:04:18 15.9 C 20 %
2657 14-09-2019 21:14:18 15.5 C 20 %
2658 14-09-2019 21:24:17 15.3 C 20 %
2659 14-09-2019 21:34:18 14.8 C 20 %
2660 14-09-2019 21:44:18 14.4 C 20 %
2661 14-09-2019 21:54:17 14 C 20 %
2662 14-09-2019 22:04:17 13.5 C 20 %
2663 14-09-2019 22:14:17 13.1 C 20 %
2664 14-09-2019 22:24:18 13.1 C 20 %
2665 14-09-2019 22:34:17 12.9 C 20 %
2666 14-09-2019 22:44:17 12.9 C 20 %
2667 14-09-2019 22:54:17 12.4 C 20 %
2668 14-09-2019 23:04:17 12.1 C 20 %
2669 14-09-2019 23:14:17 12.2 C 20 %
2670 14-09-2019 23:24:17 12 C 20 %
2671 14-09-2019 23:34:18 12 C 20 %
2672 14-09-2019 23:44:18 11.7 C 20 %
2673 14-09-2019 23:54:17 11.4 C 20 %
2674 15-09-2019 00:04:17 11.2 C 20 %
2675 15-09-2019 00:14:17 11.1 C 20 %
Sensor: Nr:Datum:Temp:Feuchte:
Aussen-T/F 2676 15-09-2019 00:24:18 10.9 C 20 %
2677 15-09-2019 00:34:17 11 C 20 %
2678 15-09-2019 00:44:17 10.8 C 20 %
2679 15-09-2019 00:54:17 10.6 C 20 %
2680 15-09-2019 01:04:17 10.4 C 20 %
2681 15-09-2019 01:14:17 10.2 C 20 %
2682 15-09-2019 01:24:17 10.3 C 20 %
2683 15-09-2019 01:34:17 10.3 C 20 %
2684 15-09-2019 01:44:18 10 C 20 %
2685 15-09-2019 01:54:17 9.8 C 20 %
2686 15-09-2019 02:04:17 9.9 C 20 %
2687 15-09-2019 02:14:17 10.1 C 20 %
2688 15-09-2019 02:24:17 10.1 C 20 %
2689 15-09-2019 02:34:17 10 C 20 %
2690 15-09-2019 02:44:17 9.7 C 20 %
2691 15-09-2019 02:54:18 9.6 C 20 %
2692 15-09-2019 03:04:17 9.6 C 20 %
2693 15-09-2019 03:14:17 9.9 C 20 %
2694 15-09-2019 03:24:17 9.7 C 20 %
2695 15-09-2019 03:34:17 9.4 C 20 %
2696 15-09-2019 03:44:17 9.7 C 25 %
2697 15-09-2019 03:54:17 9.4 C 20 %
2698 15-09-2019 04:04:17 9.5 C 21 %
2699 15-09-2019 04:14:17 9.4 C 21 %
2700 15-09-2019 04:24:17 9.4 C 21 %
Sensor: Nr:Datum:Temp:Feuchte:
Aussen-T/F 2701 15-09-2019 04:34:17 9.5 C 21 %
2702 15-09-2019 04:44:17 9 C 21 %
2703 15-09-2019 04:54:17 9 C 21 %
2704 15-09-2019 05:04:17 8.9 C 23 %
2705 15-09-2019 05:14:17 8.9 C 25 %
2706 15-09-2019 05:24:17 8.7 C 25 %
2707 15-09-2019 05:34:17 8.9 C 25 %
2708 15-09-2019 05:44:18 8.7 C 25 %
2709 15-09-2019 05:54:17 8.5 C 25 %
2710 15-09-2019 06:04:17 8.8 C 25 %
2711 15-09-2019 06:14:17 8.4 C 25 %
2712 15-09-2019 06:24:17 8.1 C 25 %
2713 15-09-2019 06:34:18 8 C 25 %
2714 15-09-2019 06:44:18 8 C 26 %
2715 15-09-2019 06:54:17 8.1 C 26 %
2716 15-09-2019 07:04:17 8.1 C 26 %
2717 15-09-2019 07:14:17 8.4 C 26 %
2718 15-09-2019 07:24:18 8.4 C 26 %
2719 15-09-2019 07:34:17 8.5 C 26 %
2720 15-09-2019 07:44:17 8.5 C 26 %
2721 15-09-2019 07:54:17 8.5 C 26 %
2722 15-09-2019 08:04:17 8.6 C 26 %
2723 15-09-2019 08:14:17 8.9 C 26 %
2724 15-09-2019 08:24:18 8.9 C 26 %
2725 15-09-2019 08:34:17 9.1 C 25 %
Sensor: Nr:Datum:Temp:Feuchte:
Aussen-T/F 2726 15-09-2019 08:44:17 9.3 C 25 %
2727 15-09-2019 08:54:17 9.3 C 25 %
2728 15-09-2019 09:04:17 9.3 C 25 %
2729 15-09-2019 09:14:17 9.8 C 25 %
2730 15-09-2019 09:24:17 9.8 C 25 %
2731 15-09-2019 09:34:17 10.1 C 23 %
2732 15-09-2019 09:44:17 10.2 C 23 %
2733 15-09-2019 09:54:17 10.3 C 25 %
2734 15-09-2019 10:04:18 10.5 C 25 %
2735 15-09-2019 10:14:18 10.7 C 25 %
2736 15-09-2019 10:24:17 11.3 C 24 %
2737 15-09-2019 10:34:18 11.8 C 23 %
2738 15-09-2019 10:44:18 12 C 21 %
2739 15-09-2019 10:54:17 12.9 C 20 %
2740 15-09-2019 11:04:18 13.3 C 20 %
2741 15-09-2019 11:14:18 13.9 C 20 %
2742 15-09-2019 11:24:17 14.2 C 20 %
2743 15-09-2019 11:34:18 14.5 C 20 %
2744 15-09-2019 11:44:18 15 C 20 %
2745 15-09-2019 11:54:17 15.4 C 20 %
2746 15-09-2019 12:04:18 15.8 C 20 %
2747 15-09-2019 12:14:18 16.3 C 20 %
2748 15-09-2019 12:24:17 16.8 C 20 %
2749 15-09-2019 12:34:17 17.2 C 20 %
2750 15-09-2019 12:44:17 18.3 C 20 %
Sensor: Nr:Datum:Temp:Feuchte:
Aussen-T/F 2751 15-09-2019 12:54:17 18.9 C 20 %
2752 15-09-2019 13:04:17 19.7 C 20 %
2753 15-09-2019 13:14:17 19.9 C 20 %
2754 15-09-2019 13:24:18 20.4 C 20 %
2755 15-09-2019 13:34:17 20.8 C 20 %
2756 15-09-2019 13:44:17 21.3 C 20 %
2757 15-09-2019 13:54:17 21.9 C 20 %
2758 15-09-2019 14:04:17 22.4 C 20 %
2759 15-09-2019 14:14:17 25 C 20 %
2760 15-09-2019 14:24:17 24.6 C 20 %
2761 15-09-2019 14:34:17 27 C 20 %
2762 15-09-2019 14:44:17 27.8 C 20 %
2763 15-09-2019 14:54:17 27.5 C 20 %
2764 15-09-2019 15:04:17 29.2 C 20 %
2765 15-09-2019 15:14:17 28.3 C 20 %
2766 15-09-2019 15:24:17 31.4 C 20 %
2767 15-09-2019 15:34:17 30.1 C 20 %
2768 15-09-2019 15:44:17 31.6 C 20 %
2769 15-09-2019 15:54:17 29.5 C 20 %
2770 15-09-2019 16:04:18 31.8 C 20 %
2771 15-09-2019 16:14:18 28.8 C 20 %
2772 15-09-2019 16:24:17 28.1 C 20 %
2773 15-09-2019 16:34:17 28.7 C 20 %
2774 15-09-2019 16:44:17 29.3 C 20 %
2775 15-09-2019 16:54:17 29.4 C 20 %
Sensor: Nr:Datum:Temp:Feuchte:
Aussen-T/F 2776 15-09-2019 17:04:18 30.1 C 20 %
2777 15-09-2019 17:14:18 30.1 C 20 %
2778 15-09-2019 17:24:17 28.8 C 20 %
2779 15-09-2019 17:34:18 29.3 C 20 %
2780 15-09-2019 17:44:18 27 C 20 %
2781 15-09-2019 17:54:17 26.2 C 20 %
2782 15-09-2019 18:04:17 26.1 C 20 %
2783 15-09-2019 18:14:17 25.5 C 20 %
2784 15-09-2019 18:24:17 24.9 C 20 %
2785 15-09-2019 18:34:17 24.8 C 20 %
2786 15-09-2019 18:44:17 23.8 C 20 %
2787 15-09-2019 18:54:18 23.3 C 20 %
2788 15-09-2019 19:04:17 22.6 C 20 %
2789 15-09-2019 19:14:17 21.3 C 20 %
2790 15-09-2019 19:24:17 19.9 C 20 %
2791 15-09-2019 19:34:17 19.1 C 20 %
2792 15-09-2019 19:44:17 18.8 C 20 %
2793 15-09-2019 19:54:18 18.6 C 20 %
2794 15-09-2019 20:04:17 18.2 C 20 %
2795 15-09-2019 20:14:17 17.7 C 20 %
2796 15-09-2019 20:24:17 17.6 C 20 %
2797 15-09-2019 20:34:18 17.4 C 20 %
2798 15-09-2019 20:44:18 17.2 C 20 %
2799 15-09-2019 20:54:17 17.1 C 20 %
2800 15-09-2019 21:04:17 16.8 C 20 %
Sensor: Nr:Datum:Temp:Feuchte:
Aussen-T/F 2801 15-09-2019 21:14:18 16.3 C 20 %
2802 15-09-2019 21:24:17 16.2 C 20 %
2803 15-09-2019 21:34:17 15.6 C 20 %
2804 15-09-2019 21:44:17 15.4 C 20 %
2805 15-09-2019 21:54:17 14.7 C 20 %
2806 15-09-2019 22:04:18 14.4 C 20 %
2807 15-09-2019 22:14:18 13.9 C 20 %
2808 15-09-2019 22:24:17 13.7 C 20 %
2809 15-09-2019 22:34:18 13.6 C 20 %
2810 15-09-2019 22:44:18 13.4 C 20 %
2811 15-09-2019 22:54:17 12.8 C 20 %
2812 15-09-2019 23:04:18 12.5 C 20 %
2813 15-09-2019 23:14:18 12.3 C 20 %
2814 15-09-2019 23:24:17 12.4 C 20 %
2815 15-09-2019 23:34:18 12.1 C 20 %
2816 15-09-2019 23:44:18 12 C 20 %
2817 15-09-2019 23:54:17 12.3 C 20 %
2818 16-09-2019 00:04:18 12.4 C 20 %
2819 16-09-2019 00:14:18 12.3 C 20 %
2820 16-09-2019 00:24:17 12.2 C 20 %
2821 16-09-2019 00:34:18 12.1 C 20 %
2822 16-09-2019 00:44:18 11.9 C 20 %
2823 16-09-2019 00:54:17 12 C 20 %
2824 16-09-2019 01:04:18 12.1 C 20 %
2825 16-09-2019 01:14:18 12.2 C 20 %
Sensor: Nr:Datum:Temp:Feuchte:
Aussen-T/F 2826 16-09-2019 01:24:17 12 C 20 %
2827 16-09-2019 01:34:18 11.8 C 20 %
2828 16-09-2019 01:44:18 11.6 C 20 %
2829 16-09-2019 01:54:17 11.3 C 20 %
2830 16-09-2019 02:04:18 11.1 C 20 %
2831 16-09-2019 02:14:18 11.2 C 20 %
2832 16-09-2019 02:24:17 11.2 C 20 %
2833 16-09-2019 02:34:17 10.9 C 20 %
2834 16-09-2019 02:44:17 11 C 20 %
2835 16-09-2019 02:54:17 11 C 20 %
2836 16-09-2019 03:04:17 10.7 C 20 %
2837 16-09-2019 03:14:17 10.4 C 20 %
2838 16-09-2019 03:24:17 10.9 C 20 %
2839 16-09-2019 03:34:17 10.8 C 20 %
2840 16-09-2019 03:44:17 10.8 C 20 %
2841 16-09-2019 03:54:17 11.3 C 20 %
2842 16-09-2019 04:04:17 11.3 C 20 %
2843 16-09-2019 04:14:17 11.4 C 20 %
2844 16-09-2019 04:24:18 11.5 C 20 %
2845 16-09-2019 04:34:17 11.6 C 20 %
2846 16-09-2019 04:44:17 11.5 C 20 %
2847 16-09-2019 04:54:17 11.6 C 20 %
2848 16-09-2019 05:04:18 11.5 C 20 %
2849 16-09-2019 05:14:18 11.2 C 20 %
2850 16-09-2019 05:24:17 11.1 C 20 %
Sensor: Nr:Datum:Temp:Feuchte:
Aussen-T/F 2851 16-09-2019 05:34:17 11.1 C 20 %
2852 16-09-2019 05:44:17 10.9 C 20 %
2853 16-09-2019 05:54:17 11.2 C 20 %
2854 16-09-2019 06:04:17 11 C 20 %
2855 16-09-2019 06:14:18 11.1 C 20 %
2856 16-09-2019 06:24:18 11.1 C 20 %
2857 16-09-2019 06:34:17 10.9 C 20 %
2858 16-09-2019 06:44:17 10.9 C 20 %
2859 16-09-2019 06:54:17 11.2 C 20 %
2860 16-09-2019 07:04:17 11.1 C 20 %
2861 16-09-2019 07:14:17 11.1 C 20 %
2862 16-09-2019 07:24:17 11.3 C 20 %
2863 16-09-2019 07:34:17 11.4 C 20 %
2864 16-09-2019 07:44:17 11.5 C 20 %
2865 16-09-2019 07:54:18 11.6 C 20 %
2866 16-09-2019 08:04:17 11.8 C 20 %
2867 16-09-2019 08:14:17 12.2 C 20 %
2868 16-09-2019 08:24:17 12.4 C 20 %
2869 16-09-2019 08:34:17 12.7 C 20 %
2870 16-09-2019 08:44:17 13 C 20 %
2871 16-09-2019 08:54:17 12.9 C 20 %
2872 16-09-2019 09:04:17 13.2 C 20 %
2873 16-09-2019 09:14:17 13.2 C 20 %
2874 16-09-2019 09:24:18 13.6 C 20 %
2875 16-09-2019 09:34:17 14.5 C 20 %
Sensor: Nr:Datum:Temp:Feuchte:
Aussen-T/F 2876 16-09-2019 09:44:17 14.5 C 20 %
2877 16-09-2019 09:54:18 15.2 C 20 %
2878 16-09-2019 10:04:17 15 C 20 %
2879 16-09-2019 10:14:17 15.4 C 20 %
2880 16-09-2019 10:24:17 16 C 20 %
2881 16-09-2019 10:34:17 16.6 C 20 %
2882 16-09-2019 10:44:17 16.8 C 20 %
2883 16-09-2019 10:54:18 16.9 C 20 %
2884 16-09-2019 11:04:17 17.5 C 20 %
2885 16-09-2019 11:14:17 18.3 C 20 %
2886 16-09-2019 11:24:18 18.8 C 20 %
2887 16-09-2019 11:34:17 19.1 C 20 %
2888 16-09-2019 11:44:17 20.1 C 20 %
2889 16-09-2019 11:54:17 20.2 C 20 %
2890 16-09-2019 12:04:17 20.3 C 20 %
2891 16-09-2019 12:14:17 20.8 C 20 %
2892 16-09-2019 12:24:17 20.8 C 20 %
2893 16-09-2019 12:34:17 20.7 C 20 %
2894 16-09-2019 12:44:17 20.8 C 20 %
2895 16-09-2019 12:54:17 21.6 C 20 %
2896 16-09-2019 13:04:17 21.6 C 20 %
2897 16-09-2019 13:14:17 21.8 C 20 %
2898 16-09-2019 13:24:17 22 C 20 %
2899 16-09-2019 13:34:17 23.3 C 20 %
2900 16-09-2019 13:44:17 22.5 C 20 %
Sensor: Nr:Datum:Temp:Feuchte:
Aussen-T/F 2901 16-09-2019 13:54:17 22.5 C 20 %
2902 16-09-2019 14:04:17 23.1 C 20 %
2903 16-09-2019 14:14:17 23.1 C 20 %
2904 16-09-2019 14:24:17 22.9 C 20 %
2905 16-09-2019 14:34:18 23.1 C 20 %
2906 16-09-2019 14:44:18 22.5 C 20 %
2907 16-09-2019 14:54:17 22.5 C 20 %
2908 16-09-2019 15:04:17 22.9 C 20 %
2909 16-09-2019 15:14:18 22.4 C 20 %
2910 16-09-2019 15:24:17 22.5 C 20 %
2911 16-09-2019 15:34:18 22.2 C 20 %
2912 16-09-2019 15:44:18 22.3 C 20 %
2913 16-09-2019 15:54:17 22.4 C 20 %
2914 16-09-2019 16:04:18 22.5 C 20 %
2915 16-09-2019 16:14:18 22.6 C 20 %
2916 16-09-2019 16:24:17 22.5 C 20 %
2917 16-09-2019 16:34:18 22.8 C 20 %
2918 16-09-2019 16:44:18 22.8 C 20 %
2919 16-09-2019 16:54:17 22.8 C 20 %
2920 16-09-2019 17:04:17 22.6 C 20 %
2921 16-09-2019 17:14:18 22.3 C 20 %
2922 16-09-2019 17:24:17 22.2 C 20 %
2923 16-09-2019 17:34:17 21.8 C 20 %
2924 16-09-2019 17:44:17 21.6 C 20 %
2925 16-09-2019 17:54:17 21.1 C 20 %
Sensor: Nr:Datum:Temp:Feuchte:
Aussen-T/F 2926 16-09-2019 18:04:18 20.9 C 20 %
2927 16-09-2019 18:14:18 20.8 C 20 %
2928 16-09-2019 18:24:17 20.7 C 20 %
2929 16-09-2019 18:34:18 20.4 C 20 %
2930 16-09-2019 18:44:18 20.2 C 20 %
2931 16-09-2019 18:54:17 20 C 20 %
2932 16-09-2019 19:04:17 19.9 C 20 %
2933 16-09-2019 19:14:17 20 C 20 %
2934 16-09-2019 19:24:17 19.5 C 20 %
2935 16-09-2019 19:34:18 19.1 C 20 %
2936 16-09-2019 19:44:18 18.1 C 20 %
2937 16-09-2019 19:54:17 17.6 C 20 %
2938 16-09-2019 20:04:18 17.1 C 20 %
2939 16-09-2019 20:14:18 16.5 C 20 %
2940 16-09-2019 20:24:17 16.5 C 20 %
2941 16-09-2019 20:34:17 16.5 C 20 %
2942 16-09-2019 20:44:17 16.3 C 20 %
2943 16-09-2019 20:54:17 16.3 C 20 %
2944 16-09-2019 21:04:17 16.5 C 20 %
2945 16-09-2019 21:14:17 16.4 C 20 %
2946 16-09-2019 21:24:18 16.5 C 20 %
2947 16-09-2019 21:34:17 16.5 C 20 %
2948 16-09-2019 21:44:17 16.5 C 20 %
2949 16-09-2019 21:54:18 16.4 C 20 %
2950 16-09-2019 22:04:17 16.4 C 20 %
Sensor: Nr:Datum:Temp:Feuchte:
Aussen-T/F 2951 16-09-2019 22:14:17 16.4 C 20 %
2952 16-09-2019 22:24:18 16.3 C 20 %
2953 16-09-2019 22:34:17 16.3 C 20 %
2954 16-09-2019 22:44:17 16 C 20 %
2955 16-09-2019 22:54:17 15.4 C 20 %
2956 16-09-2019 23:04:18 15.1 C 20 %
2957 16-09-2019 23:14:18 14.8 C 20 %
2958 16-09-2019 23:24:17 14.9 C 20 %
2959 16-09-2019 23:34:17 14.8 C 20 %
2960 16-09-2019 23:44:17 14.9 C 20 %
2961 16-09-2019 23:54:17 14.9 C 20 %
2962 17-09-2019 00:04:18 14.7 C 20 %
2963 17-09-2019 00:14:18 14.8 C 20 %
2964 17-09-2019 00:24:17 14.9 C 20 %
2965 17-09-2019 00:34:17 14.8 C 20 %
2966 17-09-2019 00:44:17 14.8 C 20 %
2967 17-09-2019 00:54:17 14.7 C 20 %
2968 17-09-2019 01:04:18 14.5 C 20 %
2969 17-09-2019 01:14:18 14.6 C 20 %
2970 17-09-2019 01:24:17 14.6 C 20 %
2971 17-09-2019 01:34:18 14.6 C 20 %
2972 17-09-2019 01:44:18 14.6 C 20 %
2973 17-09-2019 01:54:17 14.6 C 20 %
2974 17-09-2019 02:04:17 14.5 C 20 %
2975 17-09-2019 02:14:17 14.5 C 20 %
Sensor: Nr:Datum:Temp:Feuchte:
Aussen-T/F 2976 17-09-2019 02:24:17 14.5 C 20 %
2977 17-09-2019 02:34:18 14.4 C 20 %
2978 17-09-2019 02:44:18 14.4 C 20 %
2979 17-09-2019 02:54:17 14.4 C 20 %
2980 17-09-2019 03:04:18 14.4 C 20 %
2981 17-09-2019 03:14:18 14.4 C 20 %
2982 17-09-2019 03:24:17 14.3 C 20 %
2983 17-09-2019 03:34:17 14.3 C 20 %
2984 17-09-2019 03:44:17 14.3 C 20 %
2985 17-09-2019 03:54:17 14.3 C 20 %
2986 17-09-2019 04:04:17 14.1 C 20 %
2987 17-09-2019 04:14:17 14.1 C 20 %
2988 17-09-2019 04:24:17 14.1 C 20 %
2989 17-09-2019 04:34:17 14.1 C 20 %
2990 17-09-2019 04:44:17 14.1 C 20 %
2991 17-09-2019 04:54:17 14.1 C 20 %
2992 17-09-2019 05:04:18 14 C 20 %
2993 17-09-2019 05:14:18 14 C 20 %
2994 17-09-2019 05:24:17 14 C 20 %
2995 17-09-2019 05:34:18 14 C 20 %
2996 17-09-2019 05:44:18 14 C 20 %
2997 17-09-2019 05:54:17 14 C 20 %
2998 17-09-2019 06:04:17 14 C 20 %
2999 17-09-2019 06:14:17 14 C 20 %
3000 17-09-2019 06:24:17 14 C 20 %
Sensor: Nr:Datum:Temp:Feuchte:
Aussen-T/F 3001 17-09-2019 06:34:17 14 C 20 %
3002 17-09-2019 06:44:17 13.9 C 20 %
3003 17-09-2019 06:54:17 13.9 C 20 %
3004 17-09-2019 07:04:17 13.8 C 20 %
3005 17-09-2019 07:14:17 13.8 C 20 %
3006 17-09-2019 07:24:18 13.8 C 20 %
3007 17-09-2019 07:34:17 13.8 C 20 %
3008 17-09-2019 07:44:17 13.9 C 20 %
3009 17-09-2019 07:54:18 14 C 20 %
3010 17-09-2019 08:04:17 14.1 C 20 %
3011 17-09-2019 08:14:17 14 C 20 %
3012 17-09-2019 08:24:17 13.7 C 20 %
3013 17-09-2019 08:34:17 13.5 C 20 %
3014 17-09-2019 08:44:17 13.5 C 20 %
3015 17-09-2019 08:54:18 13.7 C 20 %
3016 17-09-2019 09:04:17 13.9 C 20 %
3017 17-09-2019 09:14:17 13.6 C 20 %
3018 17-09-2019 09:24:18 13.3 C 20 %
3019 17-09-2019 09:34:17 13.7 C 20 %
3020 17-09-2019 09:44:17 14 C 20 %
3021 17-09-2019 09:54:18 14.2 C 20 %
3022 17-09-2019 10:04:17 14.2 C 20 %
3023 17-09-2019 10:14:17 15.3 C 20 %
3024 17-09-2019 10:24:18 15.1 C 20 %
3025 17-09-2019 10:34:17 15.2 C 20 %
Sensor: Nr:Datum:Temp:Feuchte:
Aussen-T/F 3026 17-09-2019 10:44:17 16 C 20 %
3027 17-09-2019 10:54:18 15.9 C 20 %
3028 17-09-2019 11:04:17 15.9 C 20 %
3029 17-09-2019 11:14:17 16.3 C 20 %
3030 17-09-2019 11:24:17 16.4 C 20 %
3031 17-09-2019 11:34:18 15.7 C 20 %
3032 17-09-2019 11:44:18 16.7 C 20 %
3033 17-09-2019 11:54:17 16.5 C 20 %
3034 17-09-2019 12:04:18 16.7 C 20 %
3035 17-09-2019 12:14:18 16.3 C 20 %
3036 17-09-2019 12:24:17 16.4 C 20 %
3037 17-09-2019 12:34:18 16.4 C 20 %
3038 17-09-2019 12:44:18 16.7 C 20 %
3039 17-09-2019 12:54:17 16.9 C 20 %
3040 17-09-2019 13:04:17 16.8 C 20 %
3041 17-09-2019 13:14:17 17.2 C 20 %
3042 17-09-2019 13:24:17 17 C 20 %
3043 17-09-2019 13:34:18 17.1 C 20 %
3044 17-09-2019 13:44:18 17 C 20 %
3045 17-09-2019 13:54:17 17.5 C 20 %
3046 17-09-2019 14:04:17 19.1 C 20 %
3047 17-09-2019 14:14:17 20.7 C 20 %
3048 17-09-2019 14:24:17 18.7 C 20 %
3049 17-09-2019 14:34:17 19.6 C 20 %
3050 17-09-2019 14:44:17 18.5 C 20 %
Sensor: Nr:Datum:Temp:Feuchte:
Aussen-T/F 3051 17-09-2019 14:54:18 18.8 C 20 %
3052 17-09-2019 15:04:17 19 C 20 %
3053 17-09-2019 15:14:17 19.8 C 20 %
3054 17-09-2019 15:24:17 21.1 C 20 %
3055 17-09-2019 15:34:17 20 C 20 %
3056 17-09-2019 15:44:17 22 C 20 %
3057 17-09-2019 15:54:17 19 C 20 %
3058 17-09-2019 16:04:18 21.6 C 20 %
3059 17-09-2019 16:14:18 20.4 C 20 %
3060 17-09-2019 16:24:17 22.8 C 20 %
3061 17-09-2019 16:34:17 20.3 C 20 %
3062 17-09-2019 16:44:17 20.2 C 20 %
3063 17-09-2019 16:54:17 20.7 C 20 %
3064 17-09-2019 17:04:18 20.3 C 20 %
3065 17-09-2019 17:14:18 18.9 C 20 %
3066 17-09-2019 17:24:17 20.1 C 20 %
3067 17-09-2019 17:34:17 18.5 C 20 %
3068 17-09-2019 17:44:18 18.8 C 20 %
3069 17-09-2019 17:54:17 18.6 C 20 %
3070 17-09-2019 18:04:17 18.6 C 20 %
3071 17-09-2019 18:14:17 18.7 C 20 %
3072 17-09-2019 18:24:17 18.3 C 20 %
3073 17-09-2019 18:34:17 18 C 20 %
3074 17-09-2019 18:44:17 18 C 20 %
3075 17-09-2019 18:54:18 17.6 C 20 %
Sensor: Nr:Datum:Temp:Feuchte:
Aussen-T/F 3076 17-09-2019 19:04:17 17.4 C 20 %
3077 17-09-2019 19:14:17 17.2 C 20 %
3078 17-09-2019 19:24:18 17 C 20 %
3079 17-09-2019 19:34:17 16.9 C 20 %
3080 17-09-2019 19:44:17 16.8 C 20 %
3081 17-09-2019 19:54:17 16.9 C 20 %
3082 17-09-2019 20:04:17 16.9 C 20 %
3083 17-09-2019 20:14:17 16.9 C 20 %
3084 17-09-2019 20:24:17 16.7 C 20 %
3085 17-09-2019 20:34:17 16.2 C 20 %
3086 17-09-2019 20:44:17 16.3 C 20 %
3087 17-09-2019 20:54:17 16.4 C 20 %
3088 17-09-2019 21:04:18 16.3 C 20 %
3089 17-09-2019 21:14:18 16.1 C 20 %
3090 17-09-2019 21:24:17 15.9 C 20 %
3091 17-09-2019 21:34:18 15.7 C 20 %
3092 17-09-2019 21:44:18 15.4 C 20 %
3093 17-09-2019 21:54:17 15 C 20 %
3094 17-09-2019 22:04:18 14.8 C 20 %
3095 17-09-2019 22:14:18 14.5 C 20 %
3096 17-09-2019 22:24:17 14.4 C 20 %
3097 17-09-2019 22:34:18 14.2 C 20 %
3098 17-09-2019 22:44:18 14.1 C 20 %
3099 17-09-2019 22:54:17 13.9 C 20 %
3100 17-09-2019 23:04:18 13.8 C 20 %
Sensor: Nr:Datum:Temp:Feuchte:
Aussen-T/F 3101 17-09-2019 23:14:18 13.3 C 20 %
3102 17-09-2019 23:24:17 13 C 20 %
3103 17-09-2019 23:34:18 12.6 C 20 %
3104 17-09-2019 23:44:18 12.2 C 20 %
3105 17-09-2019 23:54:17 12 C 20 %
3106 18-09-2019 00:04:18 11.5 C 20 %
3107 18-09-2019 00:14:18 11.5 C 20 %
3108 18-09-2019 00:24:17 11 C 20 %
3109 18-09-2019 00:34:18 10.3 C 20 %
3110 18-09-2019 00:44:18 10.5 C 20 %
3111 18-09-2019 00:54:17 10.8 C 20 %
3112 18-09-2019 01:04:17 10.4 C 20 %
3113 18-09-2019 01:14:17 10.4 C 20 %
3114 18-09-2019 01:24:17 10.6 C 20 %
3115 18-09-2019 01:34:17 10.2 C 20 %
3116 18-09-2019 01:44:17 9.6 C 20 %
3117 18-09-2019 01:54:17 9.2 C 20 %
3118 18-09-2019 02:04:18 8.8 C 20 %
3119 18-09-2019 02:14:18 8.9 C 20 %
3120 18-09-2019 02:24:17 8.8 C 20 %
3121 18-09-2019 02:34:18 8.3 C 20 %
3122 18-09-2019 02:44:18 8.2 C 20 %
3123 18-09-2019 02:54:17 8.2 C 20 %
3124 18-09-2019 03:04:18 8.1 C 20 %
3125 18-09-2019 03:14:18 7.7 C 20 %
Sensor: Nr:Datum:Temp:Feuchte:
Aussen-T/F 3126 18-09-2019 03:24:17 7.5 C 20 %
3127 18-09-2019 03:34:18 7.2 C 20 %
3128 18-09-2019 03:44:18 7.1 C 20 %
3129 18-09-2019 03:54:17 6.9 C 20 %
3130 18-09-2019 04:04:18 6.8 C 20 %
3131 18-09-2019 04:14:18 6.8 C 20 %
3132 18-09-2019 04:24:17 7.1 C 20 %
3133 18-09-2019 04:34:17 6.9 C 20 %
3134 18-09-2019 04:44:17 6.3 C 20 %
3135 18-09-2019 04:54:17 6.3 C 20 %
3136 18-09-2019 05:04:18 6.3 C 20 %
3137 18-09-2019 05:14:18 6.1 C 20 %
3138 18-09-2019 05:24:17 6 C 20 %
3139 18-09-2019 05:34:17 6 C 20 %
3140 18-09-2019 05:44:17 5.9 C 20 %
3141 18-09-2019 05:54:17 5.6 C 20 %
3142 18-09-2019 06:04:18 5.5 C 21 %
3143 18-09-2019 06:14:18 5.5 C 21 %
3144 18-09-2019 06:24:17 5.2 C 21 %
3145 18-09-2019 06:34:18 5.4 C 25 %
3146 18-09-2019 06:44:18 5.3 C 21 %
3147 18-09-2019 06:54:17 5.3 C 23 %
3148 18-09-2019 07:04:18 5.3 C 23 %
3149 18-09-2019 07:14:18 5.2 C 23 %
3150 18-09-2019 07:24:17 5.2 C 23 %
Sensor: Nr:Datum:Temp:Feuchte:
Aussen-T/F 3151 18-09-2019 07:34:18 5.1 C 25 %
3152 18-09-2019 07:44:18 5.2 C 25 %
3153 18-09-2019 07:54:17 5.7 C 25 %
3154 18-09-2019 08:04:18 5.6 C 25 %
3155 18-09-2019 08:14:18 5.7 C 25 %
3156 18-09-2019 08:24:17 5.7 C 25 %
3157 18-09-2019 08:34:17 5.9 C 25 %
3158 18-09-2019 08:44:17 6.1 C 25 %
3159 18-09-2019 08:54:17 6.3 C 25 %
3160 18-09-2019 09:04:17 6.3 C 25 %
3161 18-09-2019 09:14:17 6.4 C 25 %
3162 18-09-2019 09:24:17 6.8 C 25 %
3163 18-09-2019 09:34:17 7.1 C 25 %
3164 18-09-2019 09:44:17 7.1 C 25 %
3165 18-09-2019 09:54:17 7.5 C 25 %
3166 18-09-2019 10:04:17 7.7 C 25 %
3167 18-09-2019 10:14:17 7.9 C 25 %
3168 18-09-2019 10:24:17 8.2 C 25 %
3169 18-09-2019 10:34:17 8.8 C 23 %
3170 18-09-2019 10:44:17 9.3 C 20 %
3171 18-09-2019 10:54:17 9.6 C 20 %
3172 18-09-2019 11:04:18 10.1 C 20 %
3173 18-09-2019 11:14:18 10.6 C 20 %
3174 18-09-2019 11:24:17 10.9 C 20 %
3175 18-09-2019 11:34:17 11.6 C 20 %
Sensor: Nr:Datum:Temp:Feuchte:
Aussen-T/F 3176 18-09-2019 11:44:17 11.9 C 20 %
3177 18-09-2019 11:54:17 12.8 C 20 %
3178 18-09-2019 12:04:17 12.9 C 20 %
3179 18-09-2019 12:14:17 13.5 C 20 %
3180 18-09-2019 12:24:18 13.8 C 20 %
3181 18-09-2019 12:34:17 14.2 C 20 %
3182 18-09-2019 12:44:17 14.6 C 20 %
3183 18-09-2019 12:54:18 15.4 C 20 %
3184 18-09-2019 13:04:17 15.4 C 20 %
3185 18-09-2019 13:14:17 15.7 C 20 %
3186 18-09-2019 13:24:17 15.1 C 20 %
3187 18-09-2019 13:34:17 14.9 C 20 %
3188 18-09-2019 13:44:17 15.4 C 20 %
3189 18-09-2019 13:54:17 15.8 C 20 %
3190 18-09-2019 14:04:17 17.4 C 20 %
3191 18-09-2019 14:14:17 19.8 C 20 %
3192 18-09-2019 14:24:17 18.5 C 20 %
3193 18-09-2019 14:34:17 19.7 C 20 %
3194 18-09-2019 14:44:18 19.1 C 20 %
3195 18-09-2019 14:54:17 19.3 C 20 %
3196 18-09-2019 15:04:18 17.8 C 20 %
3197 18-09-2019 15:14:18 19.6 C 20 %
3198 18-09-2019 15:24:17 22.9 C 20 %
3199 18-09-2019 15:34:17 23.6 C 20 %
3200 18-09-2019 15:44:18 22.8 C 20 %
Sensor: Nr:Datum:Temp:Feuchte:
Aussen-T/F 3201 18-09-2019 15:54:17 19 C 20 %
3202 18-09-2019 16:04:18 20.3 C 20 %
3203 18-09-2019 16:14:18 22.7 C 20 %
3204 18-09-2019 16:24:17 22.2 C 20 %
3205 18-09-2019 16:34:18 19 C 20 %
3206 18-09-2019 16:44:18 17.8 C 20 %
3207 18-09-2019 16:54:17 19.4 C 20 %
3208 18-09-2019 17:04:18 21.9 C 20 %
3209 18-09-2019 17:14:18 21.9 C 20 %
3210 18-09-2019 17:24:17 22.6 C 20 %
3211 18-09-2019 17:34:17 20.9 C 20 %
3212 18-09-2019 17:44:17 18.9 C 20 %
3213 18-09-2019 17:54:17 18.3 C 20 %
3214 18-09-2019 18:04:17 17.6 C 20 %
3215 18-09-2019 18:14:17 17.3 C 20 %
3216 18-09-2019 18:24:17 17.3 C 20 %
3217 18-09-2019 18:34:17 17.3 C 20 %
3218 18-09-2019 18:44:17 16.8 C 20 %
3219 18-09-2019 18:54:17 16.4 C 20 %
3220 18-09-2019 19:04:17 16 C 20 %
3221 18-09-2019 19:14:17 15.4 C 20 %
3222 18-09-2019 19:24:17 14.4 C 20 %
3223 18-09-2019 19:34:17 13.9 C 20 %
3224 18-09-2019 19:44:17 13.1 C 20 %
3225 18-09-2019 19:54:17 12.4 C 20 %
Sensor: Nr:Datum:Temp:Feuchte:
Aussen-T/F 3226 18-09-2019 20:04:17 12 C 20 %
3227 18-09-2019 20:14:17 11.8 C 20 %
3228 18-09-2019 20:24:17 11.8 C 20 %
3229 18-09-2019 20:34:17 11.5 C 20 %
3230 18-09-2019 20:44:17 11.5 C 20 %
3231 18-09-2019 20:54:17 11.1 C 20 %
3232 18-09-2019 21:04:17 11 C 20 %
3233 18-09-2019 21:14:17 10.8 C 20 %
3234 18-09-2019 21:24:17 10.9 C 20 %
3235 18-09-2019 21:34:17 10.8 C 20 %
3236 18-09-2019 21:44:17 10.4 C 20 %
3237 18-09-2019 21:54:18 10.1 C 20 %
3238 18-09-2019 22:04:17 9.8 C 20 %
3239 18-09-2019 22:14:17 9.8 C 20 %
3240 18-09-2019 22:24:17 9.8 C 20 %
3241 18-09-2019 22:34:17 9.6 C 20 %
3242 18-09-2019 22:44:17 9.3 C 20 %
3243 18-09-2019 22:54:17 9.3 C 20 %
3244 18-09-2019 23:04:17 9.1 C 20 %
3245 18-09-2019 23:14:17 9.1 C 20 %
3246 18-09-2019 23:24:17 9.1 C 20 %
3247 18-09-2019 23:34:17 8.8 C 20 %
3248 18-09-2019 23:44:18 8.7 C 20 %
3249 18-09-2019 23:54:17 8.5 C 20 %
3250 19-09-2019 00:04:18 8.4 C 20 %
Sensor: Nr:Datum:Temp:Feuchte:
Aussen-T/F 3251 19-09-2019 00:14:18 8.3 C 20 %
3252 19-09-2019 00:24:17 8.6 C 20 %
3253 19-09-2019 00:34:18 8.3 C 20 %
3254 19-09-2019 00:44:18 8.6 C 20 %
3255 19-09-2019 00:54:17 8.4 C 20 %
3256 19-09-2019 01:04:18 8.1 C 20 %
3257 19-09-2019 01:14:18 7.5 C 20 %
3258 19-09-2019 01:24:17 7.2 C 20 %
3259 19-09-2019 01:34:18 7.1 C 20 %
3260 19-09-2019 01:44:18 7.1 C 20 %
3261 19-09-2019 01:54:17 6.7 C 20 %
3262 19-09-2019 02:04:18 6.4 C 20 %
3263 19-09-2019 02:14:18 6.5 C 20 %
3264 19-09-2019 02:24:17 6.4 C 20 %
3265 19-09-2019 02:34:17 6.3 C 20 %
3266 19-09-2019 02:44:17 6.3 C 20 %
3267 19-09-2019 02:54:17 6.1 C 20 %
3268 19-09-2019 03:04:18 6 C 20 %
3269 19-09-2019 03:14:18 5.9 C 21 %
3270 19-09-2019 03:24:18 5.8 C 21 %
3271 19-09-2019 03:34:17 5.8 C 21 %
3272 19-09-2019 03:44:17 5.6 C 21 %
3273 19-09-2019 03:54:17 5.4 C 21 %
3274 19-09-2019 04:04:17 5.4 C 23 %
3275 19-09-2019 04:14:17 5.4 C 23 %
Sensor: Nr:Datum:Temp:Feuchte:
Aussen-T/F 3276 19-09-2019 04:24:17 5.2 C 23 %
3277 19-09-2019 04:34:17 5.2 C 23 %
3278 19-09-2019 04:44:17 5.2 C 23 %
3279 19-09-2019 04:54:17 5.1 C 25 %
3280 19-09-2019 05:04:17 4.8 C 25 %
3281 19-09-2019 05:14:17 4.8 C 26 %
3282 19-09-2019 05:24:17 4.8 C 26 %
3283 19-09-2019 05:34:17 4.7 C 26 %
3284 19-09-2019 05:44:18 4.8 C 26 %
3285 19-09-2019 05:54:17 4.7 C 26 %
3286 19-09-2019 06:04:18 4.5 C 26 %
3287 19-09-2019 06:14:18 4.5 C 26 %
3288 19-09-2019 06:24:18 4.5 C 27 %
3289 19-09-2019 06:34:17 4.4 C 27 %
3290 19-09-2019 06:44:17 4.4 C 27 %
3291 19-09-2019 06:54:17 4.5 C 28 %
3292 19-09-2019 07:04:18 4.5 C 28 %
3293 19-09-2019 07:14:18 4.6 C 28 %
3294 19-09-2019 07:24:17 4.4 C 27 %
3295 19-09-2019 07:34:18 4.3 C 28 %
3296 19-09-2019 07:44:18 4.5 C 28 %
3297 19-09-2019 07:54:17 4.5 C 28 %
3298 19-09-2019 08:04:18 4.6 C 27 %
3299 19-09-2019 08:14:18 4.8 C 28 %
3300 19-09-2019 08:24:17 4.9 C 28 %
Sensor: Nr:Datum:Temp:Feuchte:
Aussen-T/F 3301 19-09-2019 08:34:18 5 C 27 %
3302 19-09-2019 08:44:18 5.2 C 27 %
3303 19-09-2019 08:54:17 5.2 C 26 %
3304 19-09-2019 09:04:18 5.5 C 28 %
3305 19-09-2019 09:14:18 5.4 C 27 %
3306 19-09-2019 09:24:17 5.6 C 27 %
3307 19-09-2019 09:34:17 6.3 C 30 %
3308 19-09-2019 09:44:17 6.7 C 29 %
3309 19-09-2019 09:54:17 6.9 C 27 %
3310 19-09-2019 10:04:17 7 C 26 %
3311 19-09-2019 10:14:17 7.4 C 25 %
3312 19-09-2019 10:24:17 7.6 C 25 %
3313 19-09-2019 10:34:17 7.9 C 23 %
3314 19-09-2019 10:44:17 8.4 C 23 %
3315 19-09-2019 10:54:17 8.7 C 21 %
3316 19-09-2019 11:04:18 9.2 C 20 %
3317 19-09-2019 11:14:18 9.5 C 20 %
3318 19-09-2019 11:24:17 10.1 C 20 %
3319 19-09-2019 11:34:18 11 C 20 %
3320 19-09-2019 11:44:18 11.2 C 20 %
3321 19-09-2019 11:54:17 11.7 C 20 %
3322 19-09-2019 12:04:18 12.9 C 20 %
3323 19-09-2019 12:14:18 13.5 C 20 %
3324 19-09-2019 12:24:17 14 C 20 %
3325 19-09-2019 12:34:18 14.2 C 20 %
Sensor: Nr:Datum:Temp:Feuchte:
Aussen-T/F 3326 19-09-2019 12:44:18 14.3 C 20 %
3327 19-09-2019 12:54:17 14.5 C 20 %
3328 19-09-2019 13:04:17 14.1 C 20 %
3329 19-09-2019 13:14:17 14 C 20 %
3330 19-09-2019 13:24:17 14.3 C 20 %
3331 19-09-2019 13:34:17 14.7 C 20 %
3332 19-09-2019 13:44:17 15.2 C 20 %
3333 19-09-2019 13:54:17 15.3 C 20 %
3334 19-09-2019 14:04:18 17.5 C 20 %
3335 19-09-2019 14:14:18 19.2 C 20 %
3336 19-09-2019 14:24:17 17.8 C 20 %
3337 19-09-2019 14:34:17 18.6 C 20 %
3338 19-09-2019 14:44:17 17.9 C 20 %
3339 19-09-2019 14:54:18 17.7 C 20 %
3340 19-09-2019 15:04:17 19 C 20 %
3341 19-09-2019 15:14:17 21.3 C 20 %
3342 19-09-2019 15:24:17 21 C 20 %
3343 19-09-2019 15:34:18 21.8 C 20 %
3344 19-09-2019 15:44:18 22.5 C 20 %
3345 19-09-2019 15:54:17 22.4 C 20 %
3346 19-09-2019 16:04:17 21.3 C 20 %
3347 19-09-2019 16:14:17 21.6 C 20 %
3348 19-09-2019 16:24:17 23.8 C 20 %
3349 19-09-2019 16:34:17 21.1 C 20 %
3350 19-09-2019 16:44:17 20.9 C 20 %
Sensor: Nr:Datum:Temp:Feuchte:
Aussen-T/F 3351 19-09-2019 16:54:17 21.9 C 20 %
3352 19-09-2019 17:04:18 20.4 C 20 %
3353 19-09-2019 17:14:18 21.4 C 20 %
3354 19-09-2019 17:24:17 18.6 C 20 %
3355 19-09-2019 17:34:17 20 C 20 %
3356 19-09-2019 17:44:17 18.5 C 20 %
3357 19-09-2019 17:54:17 17.7 C 20 %
3358 19-09-2019 18:04:17 17.7 C 20 %
3359 19-09-2019 18:14:17 17.5 C 20 %
3360 19-09-2019 18:24:18 17.3 C 20 %
3361 19-09-2019 18:34:17 17.1 C 20 %
3362 19-09-2019 18:44:17 16.5 C 20 %
3363 19-09-2019 18:54:18 16 C 20 %
3364 19-09-2019 19:04:17 15.5 C 20 %
3365 19-09-2019 19:14:17 14.4 C 20 %
3366 19-09-2019 19:24:17 13.8 C 20 %
3367 19-09-2019 19:34:17 13.1 C 20 %
3368 19-09-2019 19:44:17 12.9 C 20 %
3369 19-09-2019 19:54:17 12.5 C 20 %
3370 19-09-2019 20:04:17 11.6 C 20 %
3371 19-09-2019 20:14:17 11.4 C 20 %
3372 19-09-2019 20:24:17 11.1 C 20 %
3373 19-09-2019 20:34:17 11 C 20 %
3374 19-09-2019 20:44:18 10.7 C 20 %
3375 19-09-2019 20:54:17 10 C 20 %
Sensor: Nr:Datum:Temp:Feuchte:
Aussen-T/F 3376 19-09-2019 21:04:17 9.9 C 20 %
3377 19-09-2019 21:14:17 9.6 C 20 %
3378 19-09-2019 21:24:17 9.6 C 20 %
3379 19-09-2019 21:34:18 9.7 C 20 %
3380 19-09-2019 21:44:18 9.3 C 20 %
3381 19-09-2019 21:54:17 9.1 C 20 %
3382 19-09-2019 22:04:18 9.1 C 20 %
3383 19-09-2019 22:14:18 9.1 C 20 %
3384 19-09-2019 22:24:17 9 C 20 %
3385 19-09-2019 22:34:18 8.5 C 20 %
3386 19-09-2019 22:44:18 8.2 C 20 %
3387 19-09-2019 22:54:17 8.3 C 20 %
3388 19-09-2019 23:04:18 8 C 20 %
3389 19-09-2019 23:14:18 7.9 C 20 %
3390 19-09-2019 23:24:17 8 C 20 %
3391 19-09-2019 23:34:17 7.7 C 20 %
3392 19-09-2019 23:44:17 7.3 C 20 %
3393 19-09-2019 23:54:17 7.2 C 20 %
3394 20-09-2019 00:04:17 7 C 20 %
3395 20-09-2019 00:14:17 6.9 C 20 %
3396 20-09-2019 00:24:17 6.8 C 20 %
3397 20-09-2019 00:34:17 6.7 C 20 %
3398 20-09-2019 00:44:17 6.9 C 20 %
3399 20-09-2019 00:54:18 6.8 C 20 %
3400 20-09-2019 01:04:17 6.7 C 20 %
Sensor: Nr:Datum:Temp:Feuchte:
Aussen-T/F 3401 20-09-2019 01:14:17 6.4 C 20 %
3402 20-09-2019 01:24:17 6.3 C 20 %
3403 20-09-2019 01:34:17 6.1 C 20 %
3404 20-09-2019 01:44:18 6 C 20 %
3405 20-09-2019 01:54:17 5.8 C 20 %
3406 20-09-2019 02:04:18 5.8 C 20 %
3407 20-09-2019 02:14:18 5.5 C 20 %
3408 20-09-2019 02:24:17 5.4 C 20 %
3409 20-09-2019 02:34:18 5.4 C 20 %
3410 20-09-2019 02:44:18 5.4 C 20 %
3411 20-09-2019 02:54:17 5.3 C 20 %
3412 20-09-2019 03:04:18 5.3 C 20 %
3413 20-09-2019 03:14:18 5.2 C 20 %
3414 20-09-2019 03:24:17 5 C 20 %
3415 20-09-2019 03:34:17 4.9 C 20 %
3416 20-09-2019 03:44:17 4.8 C 20 %
3417 20-09-2019 03:54:17 4.7 C 20 %
3418 20-09-2019 04:04:17 4.7 C 20 %
3419 20-09-2019 04:14:17 4.5 C 20 %
3420 20-09-2019 04:24:18 4.4 C 20 %
3421 20-09-2019 04:34:17 4.2 C 20 %
3422 20-09-2019 04:44:17 4.2 C 20 %
3423 20-09-2019 04:54:18 4.1 C 20 %
3424 20-09-2019 05:04:17 4 C 23 %
3425 20-09-2019 05:14:17 4 C 20 %
Sensor: Nr:Datum:Temp:Feuchte:
Aussen-T/F 3426 20-09-2019 05:24:17 4.1 C 20 %
3427 20-09-2019 05:34:18 4 C 20 %
3428 20-09-2019 05:44:18 3.8 C 21 %
3429 20-09-2019 05:54:17 4 C 21 %
3430 20-09-2019 06:04:18 3.7 C 21 %
3431 20-09-2019 06:14:18 3.8 C 25 %
3432 20-09-2019 06:24:17 4 C 23 %
3433 20-09-2019 06:34:17 3.6 C 25 %
3434 20-09-2019 06:44:18 3.6 C 25 %
3435 20-09-2019 06:54:17 3.5 C 25 %
3436 20-09-2019 07:04:18 3.4 C 25 %
3437 20-09-2019 07:14:18 3.3 C 25 %
3438 20-09-2019 07:24:17 3.3 C 25 %
3439 20-09-2019 07:34:18 3.4 C 25 %
3440 20-09-2019 07:44:18 3.5 C 26 %
3441 20-09-2019 07:54:17 3.6 C 26 %
3442 20-09-2019 08:04:18 3.8 C 26 %
3443 20-09-2019 08:14:18 4 C 26 %
3444 20-09-2019 08:24:18 4.2 C 26 %
3445 20-09-2019 08:34:17 4.2 C 25 %
3446 20-09-2019 08:44:17 4.3 C 25 %
3447 20-09-2019 08:54:18 4.5 C 25 %
3448 20-09-2019 09:04:17 4.5 C 26 %
3449 20-09-2019 09:14:17 4.8 C 26 %
3450 20-09-2019 09:24:17 5.2 C 25 %
Sensor: Nr:Datum:Temp:Feuchte:
Aussen-T/F 3451 20-09-2019 09:34:17 5.5 C 25 %
3452 20-09-2019 09:44:17 6 C 25 %
3453 20-09-2019 09:54:17 6.5 C 21 %
3454 20-09-2019 10:04:18 7 C 20 %
3455 20-09-2019 10:14:18 7.3 C 20 %
3456 20-09-2019 10:24:17 7.5 C 20 %
3457 20-09-2019 10:34:18 8 C 20 %
3458 20-09-2019 10:44:18 8.5 C 20 %
3459 20-09-2019 10:54:17 8.9 C 20 %
3460 20-09-2019 11:04:17 9.4 C 20 %
3461 20-09-2019 11:14:17 9.6 C 20 %
3462 20-09-2019 11:24:17 10.5 C 20 %
3463 20-09-2019 11:34:17 10.6 C 20 %
3464 20-09-2019 11:44:17 11.4 C 20 %
3465 20-09-2019 11:54:17 11.8 C 20 %
3466 20-09-2019 12:04:17 12.6 C 20 %
3467 20-09-2019 12:14:17 13.4 C 20 %
3468 20-09-2019 12:24:17 13.4 C 20 %
3469 20-09-2019 12:34:17 14.2 C 20 %
3470 20-09-2019 12:44:17 14.3 C 20 %
3471 20-09-2019 12:54:18 14.4 C 20 %
3472 20-09-2019 13:04:17 14.5 C 20 %
3473 20-09-2019 13:14:17 15 C 20 %
3474 20-09-2019 13:24:17 15.4 C 20 %
3475 20-09-2019 13:34:17 15.7 C 20 %
Sensor: Nr:Datum:Temp:Feuchte:
Aussen-T/F 3476 20-09-2019 13:44:17 16 C 20 %
3477 20-09-2019 13:54:18 16.4 C 20 %
3478 20-09-2019 14:04:17 18.9 C 20 %
3479 20-09-2019 14:14:17 23.1 C 20 %
3480 20-09-2019 14:24:17 22.3 C 20 %
3481 20-09-2019 14:34:18 19.5 C 20 %
3482 20-09-2019 14:44:18 19.5 C 20 %
3483 20-09-2019 14:54:17 19.7 C 20 %
3484 20-09-2019 15:04:17 21.4 C 20 %
3485 20-09-2019 15:14:18 20.7 C 20 %
3486 20-09-2019 15:24:17 22.8 C 20 %
3487 20-09-2019 15:34:18 23.7 C 20 %
3488 20-09-2019 15:44:18 23.8 C 20 %
3489 20-09-2019 15:54:17 22.9 C 20 %
3490 20-09-2019 16:04:18 23.2 C 20 %
3491 20-09-2019 16:14:18 24.1 C 20 %
3492 20-09-2019 16:24:17 25.4 C 20 %
3493 20-09-2019 16:34:17 24.7 C 20 %
3494 20-09-2019 16:44:17 24.3 C 20 %
3495 20-09-2019 16:54:17 25.6 C 20 %
3496 20-09-2019 17:04:17 22.8 C 20 %
3497 20-09-2019 17:14:17 23.8 C 20 %
3498 20-09-2019 17:24:17 23.8 C 20 %
3499 20-09-2019 17:34:17 24 C 20 %
3500 20-09-2019 17:44:17 22.3 C 20 %
Sensor: Nr:Datum:Temp:Feuchte:
Aussen-T/F 3501 20-09-2019 17:55:17 20 C 20 %
3502 20-09-2019 18:04:17 20 C 20 %
3503 20-09-2019 18:14:17 19.5 C 20 %
3504 20-09-2019 18:24:17 19.3 C 20 %
3505 20-09-2019 18:34:17 19.1 C 20 %
3506 20-09-2019 18:44:17 18.4 C 20 %
3507 20-09-2019 18:54:17 17.1 C 20 %
3508 20-09-2019 19:04:17 15.7 C 20 %
3509 20-09-2019 19:14:18 14.8 C 20 %
3510 20-09-2019 19:24:17 14.6 C 20 %
3511 20-09-2019 19:34:18 14 C 20 %
3512 20-09-2019 19:44:18 13.6 C 20 %
3513 20-09-2019 19:54:17 13.3 C 20 %
3514 20-09-2019 20:04:17 13.2 C 20 %
3515 20-09-2019 20:14:17 13.1 C 20 %
3516 20-09-2019 20:24:17 12.8 C 20 %
3517 20-09-2019 20:34:18 12.5 C 20 %
3518 20-09-2019 20:44:18 12.2 C 20 %
3519 20-09-2019 20:54:17 12.1 C 20 %
3520 20-09-2019 21:05:17 12 C 20 %
3521 20-09-2019 21:14:17 11.3 C 20 %
3522 20-09-2019 21:24:17 11.3 C 20 %
3523 20-09-2019 21:35:17 10.1 C 20 %
3524 20-09-2019 21:44:17 9.9 C 20 %
3525 20-09-2019 21:54:17 9.5 C 20 %
Sensor: Nr:Datum:Temp:Feuchte:
Aussen-T/F 3526 20-09-2019 22:04:18 9.2 C 20 %
3527 20-09-2019 22:14:18 9 C 20 %
3528 20-09-2019 22:24:17 8.7 C 20 %
3529 20-09-2019 22:34:18 8.5 C 20 %
3530 20-09-2019 22:44:18 8.4 C 20 %
3531 20-09-2019 22:54:17 8.2 C 20 %
3532 20-09-2019 23:04:17 7.9 C 20 %
3533 20-09-2019 23:14:18 7.8 C 20 %
3534 20-09-2019 23:25:17 7.6 C 20 %
3535 20-09-2019 23:34:18 7.3 C 20 %
3536 20-09-2019 23:44:18 7.4 C 20 %
3537 20-09-2019 23:54:17 7.1 C 20 %
3538 21-09-2019 00:05:17 6.9 C 20 %
3539 21-09-2019 00:14:18 6.8 C 20 %
3540 21-09-2019 00:24:18 7 C 20 %
3541 21-09-2019 00:44:17 6.8 C 20 %
3542 21-09-2019 00:44:17 6.5 C 20 %
3543 21-09-2019 00:54:17 6.4 C 20 %
3544 21-09-2019 01:05:17 6.3 C 20 %
3545 21-09-2019 01:14:17 6 C 20 %
3546 21-09-2019 01:24:17 6.1 C 20 %
3547 21-09-2019 01:35:17 6.2 C 20 %
3548 21-09-2019 01:44:17 6 C 20 %
3549 21-09-2019 01:54:17 5.8 C 20 %
3550 21-09-2019 02:05:17 5.8 C 20 %
Sensor: Nr:Datum:Temp:Feuchte:
Aussen-T/F 3551 21-09-2019 02:14:17 5.6 C 20 %
3552 21-09-2019 02:24:17 5.4 C 20 %
3553 21-09-2019 02:35:17 5.3 C 20 %
3554 21-09-2019 02:45:17 5.2 C 20 %
3555 21-09-2019 02:54:17 5.2 C 20 %
3556 21-09-2019 03:04:18 5.2 C 20 %
3557 21-09-2019 03:14:18 5.1 C 20 %
3558 21-09-2019 03:24:18 5.1 C 20 %
3559 21-09-2019 03:35:17 4.8 C 20 %
3560 21-09-2019 03:44:17 4.9 C 20 %
3561 21-09-2019 03:54:17 4.8 C 20 %
3562 21-09-2019 04:05:17 4.8 C 20 %
3563 21-09-2019 04:14:18 5 C 20 %
3564 21-09-2019 04:24:18 4.8 C 20 %
3565 21-09-2019 04:35:17 4.6 C 20 %
3566 21-09-2019 04:45:17 4.8 C 20 %
3567 21-09-2019 04:55:17 4.4 C 20 %
3568 21-09-2019 05:05:17 4.6 C 20 %
3569 21-09-2019 05:15:17 4.5 C 20 %
3570 21-09-2019 05:25:17 4.5 C 20 %
3571 21-09-2019 05:35:17 4.4 C 20 %
3572 21-09-2019 05:45:17 4.5 C 21 %
3573 21-09-2019 05:55:17 4.2 C 20 %
3574 21-09-2019 06:05:17 4.3 C 21 %
3575 21-09-2019 06:15:17 4.1 C 21 %
Sensor: Nr:Datum:Temp:Feuchte:
Aussen-T/F 3576 21-09-2019 06:25:17 4 C 21 %
3577 21-09-2019 06:35:17 3.9 C 23 %
3578 21-09-2019 06:45:17 3.7 C 23 %
3579 21-09-2019 06:55:17 3.7 C 25 %
3580 21-09-2019 07:05:17 4 C 25 %
3581 21-09-2019 07:15:17 3.9 C 25 %
3582 21-09-2019 07:25:17 3.9 C 25 %
3583 21-09-2019 07:35:17 3.9 C 25 %
3584 21-09-2019 07:45:17 3.7 C 25 %
3585 21-09-2019 07:55:17 3.9 C 25 %
3586 21-09-2019 08:05:17 3.9 C 25 %
3587 21-09-2019 08:15:17 4 C 25 %
3588 21-09-2019 08:25:17 4 C 25 %
3589 21-09-2019 08:35:17 4.2 C 25 %
3590 21-09-2019 08:45:17 4.3 C 25 %
3591 21-09-2019 08:55:17 4.4 C 25 %
3592 21-09-2019 09:05:17 4.7 C 25 %
3593 21-09-2019 09:15:17 4.8 C 25 %
3594 21-09-2019 09:25:17 4.9 C 25 %
3595 21-09-2019 09:35:17 5.6 C 25 %
3596 21-09-2019 09:45:17 6.8 C 20 %
3597 21-09-2019 09:55:17 7.2 C 20 %
3598 21-09-2019 10:05:17 7.8 C 20 %
3599 21-09-2019 10:15:17 8 C 20 %
3600 21-09-2019 10:25:17 8.4 C 20 %
Sensor: Nr:Datum:Temp:Feuchte:
Aussen-T/F 3601 21-09-2019 10:35:17 9 C 20 %
3602 21-09-2019 10:45:17 9.6 C 20 %
3603 21-09-2019 10:55:17 10.4 C 20 %
3604 21-09-2019 11:05:17 11.1 C 20 %
3605 21-09-2019 11:15:17 11.5 C 20 %
3606 21-09-2019 11:25:17 12.1 C 20 %
3607 21-09-2019 11:35:17 12 C 20 %
3608 21-09-2019 11:45:17 12.8 C 20 %
3609 21-09-2019 11:55:17 13.1 C 20 %
3610 21-09-2019 12:05:17 14 C 20 %
3611 21-09-2019 12:15:17 14.4 C 20 %
3612 21-09-2019 12:25:17 15.1 C 20 %
3613 21-09-2019 12:35:17 14.9 C 20 %
3614 21-09-2019 12:45:17 15.4 C 20 %
3615 21-09-2019 12:55:17 16.1 C 20 %
3616 21-09-2019 13:05:16 17.3 C 20 %
3617 21-09-2019 13:15:17 17.5 C 20 %
3618 21-09-2019 13:25:17 17.9 C 20 %
3619 21-09-2019 13:35:17 18.1 C 20 %
3620 21-09-2019 13:45:17 18.5 C 20 %
3621 21-09-2019 13:55:17 20.5 C 20 %
3622 21-09-2019 14:05:17 22.5 C 20 %
3623 21-09-2019 14:15:17 25.5 C 20 %
3624 21-09-2019 14:25:17 24.1 C 20 %
3625 21-09-2019 14:35:17 23.5 C 20 %
Sensor: Nr:Datum:Temp:Feuchte:
Aussen-T/F 3626 21-09-2019 14:45:17 23.1 C 20 %
3627 21-09-2019 14:55:17 23.9 C 20 %
3628 21-09-2019 15:05:17 26.7 C 20 %
3629 21-09-2019 15:15:16 24.3 C 20 %
3630 21-09-2019 15:25:16 25.2 C 20 %
3631 21-09-2019 15:35:17 27.7 C 20 %
3632 21-09-2019 15:45:16 29.2 C 20 %
3633 21-09-2019 15:55:16 30.9 C 20 %
3634 21-09-2019 16:05:17 30.6 C 20 %
3635 21-09-2019 16:15:16 29.4 C 20 %
3636 21-09-2019 16:25:16 29.6 C 20 %
3637 21-09-2019 16:35:17 31.1 C 20 %
3638 21-09-2019 16:45:16 29.6 C 20 %
3639 21-09-2019 16:55:16 29.9 C 20 %
3640 21-09-2019 17:05:17 28 C 20 %
3641 21-09-2019 17:15:17 28.5 C 20 %
3642 21-09-2019 17:25:17 29.3 C 20 %
3643 21-09-2019 17:35:16 28 C 20 %
3644 21-09-2019 17:45:17 25.2 C 20 %
3645 21-09-2019 17:55:17 23.9 C 20 %
3646 21-09-2019 18:05:16 23 C 20 %
3647 21-09-2019 18:15:17 22.4 C 20 %
3648 21-09-2019 18:25:17 21.4 C 20 %
3649 21-09-2019 18:35:16 20.6 C 20 %
3650 21-09-2019 18:45:16 19.9 C 20 %
Sensor: Nr:Datum:Temp:Feuchte:
Aussen-T/F 3651 21-09-2019 18:55:16 18.9 C 20 %
3652 21-09-2019 19:05:16 18.1 C 20 %
3653 21-09-2019 19:15:17 17.4 C 20 %
3654 21-09-2019 19:25:17 16.5 C 20 %
3655 21-09-2019 19:35:16 16.3 C 20 %
3656 21-09-2019 19:45:16 15.7 C 20 %
3657 21-09-2019 19:55:16 15.9 C 20 %
3658 21-09-2019 20:05:17 15.8 C 20 %
3659 21-09-2019 20:15:16 15.4 C 20 %
3660 21-09-2019 20:25:16 15.1 C 20 %
3661 21-09-2019 20:35:16 14.7 C 20 %
3662 21-09-2019 20:45:16 14.2 C 20 %
3663 21-09-2019 20:55:16 14.1 C 20 %
3664 21-09-2019 21:05:17 13.7 C 20 %
3665 21-09-2019 21:15:16 13.3 C 20 %
3666 21-09-2019 21:25:16 12.8 C 20 %
3667 21-09-2019 21:35:17 12.3 C 20 %
3668 21-09-2019 21:45:16 12.2 C 20 %
3669 21-09-2019 21:55:16 11.6 C 20 %
3670 21-09-2019 22:05:17 11.6 C 20 %
3671 21-09-2019 22:15:16 11.5 C 20 %
3672 21-09-2019 22:25:16 11.2 C 20 %
3673 21-09-2019 22:35:17 11.1 C 20 %
3674 21-09-2019 22:45:16 10.8 C 20 %
3675 21-09-2019 22:55:16 10.5 C 20 %
Sensor: Nr:Datum:Temp:Feuchte:
Aussen-T/F 3676 21-09-2019 23:05:16 10.5 C 20 %
3677 21-09-2019 23:15:16 10.3 C 20 %
3678 21-09-2019 23:25:16 10.2 C 20 %
3679 21-09-2019 23:35:16 9.8 C 20 %
3680 21-09-2019 23:45:16 9.5 C 20 %
3681 21-09-2019 23:55:16 9.6 C 20 %
3682 22-09-2019 00:05:16 9.6 C 20 %
3683 22-09-2019 00:15:16 9.2 C 20 %
3684 22-09-2019 00:25:17 9.1 C 20 %
3685 22-09-2019 00:35:16 9 C 20 %
3686 22-09-2019 00:45:16 8.8 C 20 %
3687 22-09-2019 00:55:16 8.7 C 20 %
3688 22-09-2019 01:05:16 8.7 C 20 %
3689 22-09-2019 01:15:16 8.7 C 20 %
3690 22-09-2019 01:25:16 8.4 C 20 %
3691 22-09-2019 01:35:16 8.2 C 20 %
3692 22-09-2019 01:45:16 8 C 20 %
3693 22-09-2019 01:55:16 8 C 20 %
3694 22-09-2019 02:05:17 7.8 C 20 %
3695 22-09-2019 02:15:16 7.7 C 20 %
3696 22-09-2019 02:25:16 7.6 C 20 %
3697 22-09-2019 02:35:16 7.5 C 20 %
3698 22-09-2019 02:45:17 7.3 C 20 %
3699 22-09-2019 02:55:17 7.2 C 20 %
3700 22-09-2019 03:05:18 7.2 C 20 %
Sensor: Nr:Datum:Temp:Feuchte:
Aussen-T/F 3701 22-09-2019 03:15:17 7.1 C 20 %
3702 22-09-2019 03:25:17 7.1 C 20 %
3703 22-09-2019 03:35:17 7 C 20 %
3704 22-09-2019 03:45:17 6.8 C 20 %
3705 22-09-2019 03:55:17 6.8 C 20 %
3706 22-09-2019 04:05:18 6.7 C 20 %
3707 22-09-2019 04:15:17 6.6 C 20 %
3708 22-09-2019 04:25:17 6.5 C 20 %
3709 22-09-2019 04:35:18 6.4 C 20 %
3710 22-09-2019 04:45:17 6.3 C 20 %
3711 22-09-2019 04:55:17 6.3 C 20 %
3712 22-09-2019 05:05:17 6.3 C 21 %
3713 22-09-2019 05:15:17 6.4 C 21 %
3714 22-09-2019 05:25:17 6.3 C 21 %
3715 22-09-2019 05:35:17 6.3 C 23 %
3716 22-09-2019 05:45:17 6.3 C 23 %
3717 22-09-2019 05:55:17 6.3 C 23 %
3718 22-09-2019 06:05:17 6.3 C 23 %
3719 22-09-2019 06:15:17 6.3 C 25 %
3720 22-09-2019 06:25:17 6.5 C 25 %
3721 22-09-2019 06:35:17 6.5 C 25 %
3722 22-09-2019 06:45:18 6.3 C 23 %
3723 22-09-2019 06:55:18 6.2 C 23 %
3724 22-09-2019 07:05:17 6.3 C 25 %
3725 22-09-2019 07:15:17 6.3 C 25 %
Sensor: Nr:Datum:Temp:Feuchte:
Aussen-T/F 3726 22-09-2019 07:25:17 6.3 C 25 %
3727 22-09-2019 07:35:17 6.4 C 25 %
3728 22-09-2019 07:45:18 6.8 C 25 %
3729 22-09-2019 07:55:18 6.8 C 25 %
3730 22-09-2019 08:05:17 6.9 C 25 %
3731 22-09-2019 08:15:17 7 C 25 %
3732 22-09-2019 08:25:17 7.2 C 25 %
3733 22-09-2019 08:35:17 7.4 C 25 %
3734 22-09-2019 08:45:18 7.5 C 25 %
3735 22-09-2019 08:55:18 7.8 C 23 %
3736 22-09-2019 09:05:17 8 C 25 %
3737 22-09-2019 09:15:17 8.2 C 25 %
3738 22-09-2019 09:25:17 8.6 C 23 %
3739 22-09-2019 09:35:17 9 C 20 %
3740 22-09-2019 09:45:18 9.2 C 21 %
3741 22-09-2019 09:55:18 9.7 C 20 %
3742 22-09-2019 10:05:17 10.2 C 20 %
3743 22-09-2019 10:15:18 10.5 C 20 %
3744 22-09-2019 10:25:18 11.7 C 20 %
3745 22-09-2019 10:35:17 12.5 C 20 %
3746 22-09-2019 10:45:18 13.7 C 20 %
3747 22-09-2019 10:55:18 14.4 C 20 %
3748 22-09-2019 11:05:17 14.8 C 20 %
3749 22-09-2019 11:15:17 15.6 C 20 %
3750 22-09-2019 11:25:17 15.8 C 20 %
Sensor: Nr:Datum:Temp:Feuchte:
Aussen-T/F 3751 22-09-2019 11:35:17 16.3 C 20 %
3752 22-09-2019 11:45:18 16.5 C 20 %
3753 22-09-2019 11:55:18 16.6 C 20 %
3754 22-09-2019 12:05:17 17 C 20 %
3755 22-09-2019 12:15:17 17.7 C 20 %
3756 22-09-2019 12:25:17 17.8 C 20 %
3757 22-09-2019 12:35:17 18.4 C 20 %
3758 22-09-2019 12:45:17 19 C 20 %
3759 22-09-2019 12:55:17 19.9 C 20 %
3760 22-09-2019 13:05:17 20.8 C 20 %
3761 22-09-2019 13:15:17 21.3 C 20 %
3762 22-09-2019 13:25:17 21.9 C 20 %
3763 22-09-2019 13:35:17 22.6 C 20 %
3764 22-09-2019 13:45:17 23.8 C 20 %
3765 22-09-2019 13:55:17 24.7 C 20 %
3766 22-09-2019 14:05:18 25.7 C 20 %
3767 22-09-2019 14:15:17 26.5 C 20 %
3768 22-09-2019 14:25:17 26.8 C 20 %
3769 22-09-2019 14:35:17 25.9 C 20 %
3770 22-09-2019 14:45:17 26.1 C 20 %
3771 22-09-2019 14:55:17 26.4 C 20 %
3772 22-09-2019 15:05:17 26.7 C 20 %
3773 22-09-2019 15:15:17 25.6 C 20 %
3774 22-09-2019 15:25:18 25.7 C 20 %
3775 22-09-2019 15:35:17 25.5 C 20 %
Sensor: Nr:Datum:Temp:Feuchte:
Aussen-T/F 3776 22-09-2019 15:45:17 25.5 C 20 %
3777 22-09-2019 15:55:17 25.4 C 20 %
3778 22-09-2019 16:05:17 25.2 C 20 %
3779 22-09-2019 16:15:17 25.1 C 20 %
3780 22-09-2019 16:25:17 24.9 C 20 %
3781 22-09-2019 16:35:17 24.7 C 20 %
3782 22-09-2019 16:45:18 24.5 C 20 %
3783 22-09-2019 16:55:18 24 C 20 %
3784 22-09-2019 17:05:17 23.9 C 20 %
3785 22-09-2019 17:15:17 22.9 C 20 %
3786 22-09-2019 17:25:17 22.9 C 20 %
3787 22-09-2019 17:35:17 22.5 C 20 %
3788 22-09-2019 17:45:18 22 C 20 %
3789 22-09-2019 17:55:18 21.8 C 20 %
3790 22-09-2019 18:05:17 21.6 C 20 %
3791 22-09-2019 18:15:17 21.6 C 20 %
3792 22-09-2019 18:25:17 21.6 C 20 %
3793 22-09-2019 18:35:17 21 C 20 %
3794 22-09-2019 18:45:18 20.8 C 20 %
3795 22-09-2019 18:55:18 20.4 C 20 %
3796 22-09-2019 19:05:17 20 C 20 %
3797 22-09-2019 19:15:17 19.7 C 20 %
3798 22-09-2019 19:25:17 19.5 C 20 %
3799 22-09-2019 19:35:17 19.2 C 20 %
3800 22-09-2019 19:45:18 19 C 20 %
Sensor: Nr:Datum:Temp:Feuchte:
Aussen-T/F 3801 22-09-2019 19:55:18 18.8 C 20 %
3802 22-09-2019 20:05:17 18.6 C 20 %
3803 22-09-2019 20:15:18 18.4 C 20 %
3804 22-09-2019 20:25:18 18.3 C 20 %
3805 22-09-2019 20:35:17 19 C 20 %
3806 22-09-2019 20:45:18 20 C 20 %
3807 22-09-2019 20:55:18 19.7 C 20 %
3808 22-09-2019 21:05:17 17.8 C 20 %
3809 22-09-2019 21:15:17 17.5 C 20 %
3810 22-09-2019 21:25:17 17.3 C 20 %
3811 22-09-2019 21:35:17 17.8 C 20 %
3812 22-09-2019 21:45:17 19.3 C 20 %
3813 22-09-2019 21:55:17 18.6 C 20 %
3814 22-09-2019 22:05:17 18.5 C 20 %
3815 22-09-2019 22:15:17 18.3 C 20 %
3816 22-09-2019 22:25:17 17.6 C 20 %
3817 22-09-2019 22:35:18 17.4 C 20 %
3818 22-09-2019 22:45:17 17.6 C 20 %
3819 22-09-2019 22:55:17 17.6 C 20 %
3820 22-09-2019 23:05:18 17.7 C 20 %
3821 22-09-2019 23:15:17 17.7 C 20 %
3822 22-09-2019 23:25:17 17.7 C 20 %
3823 22-09-2019 23:35:17 17.6 C 20 %
3824 22-09-2019 23:45:17 17.3 C 20 %
3825 22-09-2019 23:55:18 17.2 C 20 %
Sensor: Nr:Datum:Temp:Feuchte:
Aussen-T/F 3826 23-09-2019 00:05:17 16.8 C 20 %
3827 23-09-2019 00:15:17 17.5 C 20 %
3828 23-09-2019 00:25:17 17.8 C 20 %
3829 23-09-2019 00:35:17 18.2 C 20 %
3830 23-09-2019 00:45:18 18.2 C 20 %
3831 23-09-2019 00:55:18 18.9 C 20 %
3832 23-09-2019 01:05:17 18.7 C 20 %
3833 23-09-2019 01:15:17 18.5 C 20 %
3834 23-09-2019 01:25:17 18.5 C 20 %
3835 23-09-2019 01:35:17 18.2 C 20 %
3836 23-09-2019 01:45:18 18.1 C 20 %
3837 23-09-2019 01:55:18 18.4 C 20 %
3838 23-09-2019 02:05:17 18.5 C 20 %
3839 23-09-2019 02:15:18 18.4 C 20 %
3840 23-09-2019 02:25:18 18.2 C 20 %
3841 23-09-2019 02:35:17 17.9 C 20 %
3842 23-09-2019 02:45:17 17.7 C 20 %
3843 23-09-2019 02:55:17 17.5 C 20 %
3844 23-09-2019 03:05:17 17.4 C 20 %
3845 23-09-2019 03:15:18 17.2 C 20 %
3846 23-09-2019 03:25:18 17.1 C 20 %
3847 23-09-2019 03:35:17 16.7 C 20 %
3848 23-09-2019 03:45:18 16.3 C 20 %
3849 23-09-2019 03:55:18 16.2 C 20 %
3850 23-09-2019 04:05:17 16 C 20 %
Sensor: Nr:Datum:Temp:Feuchte:
Aussen-T/F 3851 23-09-2019 04:15:17 15.6 C 20 %
3852 23-09-2019 04:25:17 15.2 C 20 %
3853 23-09-2019 04:35:17 14.9 C 21 %
3854 23-09-2019 04:45:18 14.8 C 23 %
3855 23-09-2019 04:55:18 14.8 C 25 %
3856 23-09-2019 05:05:17 14.8 C 25 %
3857 23-09-2019 05:15:17 14.6 C 23 %
3858 23-09-2019 05:25:17 14.4 C 24 %
3859 23-09-2019 05:35:17 14.3 C 24 %
3860 23-09-2019 05:45:17 14.2 C 24 %
3861 23-09-2019 05:55:17 14.1 C 25 %
3862 23-09-2019 06:05:17 14 C 25 %
3863 23-09-2019 06:15:18 14 C 25 %
3864 23-09-2019 06:25:18 13.9 C 27 %
3865 23-09-2019 06:35:17 13.8 C 27 %
3866 23-09-2019 06:45:18 13.8 C 28 %
3867 23-09-2019 06:55:18 13.9 C 29 %
3868 23-09-2019 07:05:17 13.8 C 29 %
3869 23-09-2019 07:15:17 13.8 C 30 %
3870 23-09-2019 07:25:17 13.8 C 30 %
3871 23-09-2019 07:35:17 13.8 C 30 %
3872 23-09-2019 07:45:18 13.8 C 30 %
3873 23-09-2019 07:55:18 13.7 C 30 %
3874 23-09-2019 08:05:17 13.7 C 30 %
3875 23-09-2019 08:15:18 13.8 C 30 %
Sensor: Nr:Datum:Temp:Feuchte:
Aussen-T/F 3876 23-09-2019 08:25:18 13.9 C 30 %
3877 23-09-2019 08:35:17 13.9 C 30 %
3878 23-09-2019 08:45:17 14 C 30 %
3879 23-09-2019 08:55:17 14.1 C 30 %
3880 23-09-2019 09:05:17 14.2 C 30 %
3881 23-09-2019 09:15:17 14.5 C 30 %
3882 23-09-2019 09:25:17 14.7 C 30 %
3883 23-09-2019 09:35:18 14.8 C 27 %
3884 23-09-2019 09:45:17 15.1 C 27 %
3885 23-09-2019 09:55:17 15.3 C 23 %
3886 23-09-2019 10:05:18 15.5 C 23 %
3887 23-09-2019 10:15:17 15.8 C 24 %
3888 23-09-2019 10:25:17 16.2 C 22 %
3889 23-09-2019 10:35:18 16.8 C 22 %
3890 23-09-2019 10:45:17 16.8 C 21 %
3891 23-09-2019 10:55:17 16.9 C 21 %
3892 23-09-2019 11:05:18 16.6 C 21 %
3893 23-09-2019 11:15:17 16.5 C 21 %
3894 23-09-2019 11:25:17 16.5 C 21 %
3895 23-09-2019 11:35:17 16.3 C 23 %
3896 23-09-2019 11:45:17 16.5 C 22 %
3897 23-09-2019 11:55:17 16.8 C 21 %
3898 23-09-2019 12:05:17 17.1 C 21 %
3899 23-09-2019 12:15:18 17.2 C 20 %
3900 23-09-2019 12:25:18 17.8 C 20 %
Sensor: Nr:Datum:Temp:Feuchte:
Aussen-T/F 3901 23-09-2019 12:35:17 17.7 C 20 %
3902 23-09-2019 12:45:17 18 C 20 %
3903 23-09-2019 12:55:17 18 C 20 %
3904 23-09-2019 13:05:17 18.1 C 20 %
3905 23-09-2019 13:15:17 18.9 C 20 %
3906 23-09-2019 13:25:17 18.9 C 20 %
3907 23-09-2019 13:35:17 19.3 C 20 %
3908 23-09-2019 13:45:17 19.1 C 20 %
3909 23-09-2019 13:55:18 19.7 C 20 %
3910 23-09-2019 14:05:17 20.8 C 20 %
3911 23-09-2019 14:15:18 22.4 C 20 %
3912 23-09-2019 14:25:18 21.2 C 20 %
3913 23-09-2019 14:35:17 21 C 20 %
3914 23-09-2019 14:45:18 20.7 C 20 %
3915 23-09-2019 14:55:18 20.6 C 20 %
3916 23-09-2019 15:05:17 20.8 C 20 %
3917 23-09-2019 15:15:17 20.3 C 20 %
3918 23-09-2019 15:25:17 20.3 C 20 %
3919 23-09-2019 15:35:17 22.6 C 20 %
3920 23-09-2019 15:45:18 20.8 C 20 %
3921 23-09-2019 15:55:18 20.6 C 20 %
3922 23-09-2019 16:05:17 21.9 C 20 %
3923 23-09-2019 16:15:17 22.8 C 20 %
3924 23-09-2019 16:25:17 21.1 C 20 %
3925 23-09-2019 16:35:17 22.2 C 20 %
Sensor: Nr:Datum:Temp:Feuchte:
Aussen-T/F 3926 23-09-2019 16:45:17 22 C 20 %
3927 23-09-2019 16:55:17 21.1 C 20 %
3928 23-09-2019 17:05:17 21.8 C 20 %
3929 23-09-2019 17:15:17 22 C 20 %
3930 23-09-2019 17:25:17 20.4 C 20 %
3931 23-09-2019 17:35:17 21.4 C 20 %
3932 23-09-2019 17:45:18 21 C 20 %
3933 23-09-2019 17:55:18 19.6 C 20 %
3934 23-09-2019 18:05:17 19.2 C 20 %
3935 23-09-2019 18:15:18 18.7 C 20 %
3936 23-09-2019 18:25:18 17.7 C 20 %
3937 23-09-2019 18:35:17 17.2 C 20 %
3938 23-09-2019 18:45:18 16.7 C 20 %
3939 23-09-2019 18:55:18 16.4 C 20 %
3940 23-09-2019 19:05:17 16.4 C 20 %
3941 23-09-2019 19:15:18 16.2 C 20 %
3942 23-09-2019 19:25:18 16 C 20 %
3943 23-09-2019 19:35:17 15.8 C 20 %
3944 23-09-2019 19:45:18 15.1 C 20 %
3945 23-09-2019 19:55:18 14.6 C 20 %
3946 23-09-2019 20:05:17 14.1 C 20 %
3947 23-09-2019 20:15:17 13.8 C 20 %
3948 23-09-2019 20:25:17 13.7 C 20 %
3949 23-09-2019 20:35:17 13.9 C 20 %
3950 23-09-2019 20:45:17 14.2 C 20 %
Sensor: Nr:Datum:Temp:Feuchte:
Aussen-T/F 3951 23-09-2019 20:55:17 14.2 C 20 %
3952 23-09-2019 21:05:18 14.1 C 20 %
3953 23-09-2019 21:15:17 13.7 C 21 %
3954 23-09-2019 21:25:18 13.4 C 22 %
3955 23-09-2019 21:35:18 13.4 C 23 %
3956 23-09-2019 21:45:17 13.7 C 23 %
3957 23-09-2019 21:55:17 13.7 C 23 %
3958 23-09-2019 22:05:17 13.7 C 23 %
3959 23-09-2019 22:15:17 13.8 C 23 %
3960 23-09-2019 22:25:17 13.9 C 23 %
3961 23-09-2019 22:35:17 13.9 C 23 %
3962 23-09-2019 22:45:17 14 C 22 %
3963 23-09-2019 22:55:18 14.1 C 22 %
3964 23-09-2019 23:05:17 14 C 23 %
3965 23-09-2019 23:15:18 14 C 23 %
3966 23-09-2019 23:25:18 14 C 23 %
3967 23-09-2019 23:35:17 14.1 C 23 %
3968 23-09-2019 23:45:17 14.2 C 23 %
3969 23-09-2019 23:55:17 14.3 C 23 %
3970 24-09-2019 00:05:17 14.4 C 23 %
3971 24-09-2019 00:15:17 14.3 C 23 %
3972 24-09-2019 00:25:17 14.1 C 23 %
3973 24-09-2019 00:35:17 14 C 23 %
3974 24-09-2019 00:45:17 14 C 23 %
3975 24-09-2019 00:55:17 14 C 23 %
Sensor: Nr:Datum:Temp:Feuchte:
Aussen-T/F 3976 24-09-2019 01:05:18 13.9 C 24 %
3977 24-09-2019 01:15:17 13.8 C 25 %
3978 24-09-2019 01:25:17 13.6 C 24 %
3979 24-09-2019 01:35:18 13.3 C 24 %
3980 24-09-2019 01:45:17 12.5 C 25 %
3981 24-09-2019 01:55:17 11.9 C 26 %
3982 24-09-2019 02:05:18 11.8 C 27 %
3983 24-09-2019 02:15:17 11.8 C 28 %
3984 24-09-2019 02:25:17 11.8 C 29 %
3985 24-09-2019 02:35:17 11.9 C 29 %
3986 24-09-2019 02:45:18 11.9 C 29 %
3987 24-09-2019 02:55:18 11.7 C 29 %
3988 24-09-2019 03:05:17 11.5 C 29 %
3989 24-09-2019 03:15:17 11.2 C 28 %
3990 24-09-2019 03:25:17 11.2 C 30 %
3991 24-09-2019 03:35:17 11.2 C 30 %
3992 24-09-2019 03:45:17 11.3 C 30 %
3993 24-09-2019 03:55:17 11.3 C 30 %
3994 24-09-2019 04:05:17 10.8 C 30 %
3995 24-09-2019 04:15:17 11 C 30 %
3996 24-09-2019 04:25:17 11.1 C 30 %
3997 24-09-2019 04:35:17 10.8 C 30 %
3998 24-09-2019 04:45:18 10.7 C 30 %
3999 24-09-2019 04:55:18 10.3 C 30 %
4000 24-09-2019 05:05:17 10.1 C 30 %
Sensor: Nr:Datum:Temp:Feuchte:
Aussen-T/F 4001 24-09-2019 05:15:17 10.1 C 30 %
4002 24-09-2019 05:25:18 10.1 C 30 %
4003 24-09-2019 05:35:17 9.8 C 31 %
4004 24-09-2019 05:45:17 9.8 C 31 %
4005 24-09-2019 05:55:17 9.5 C 31 %
4006 24-09-2019 06:05:17 9.4 C 31 %
4007 24-09-2019 06:15:17 9.4 C 31 %
4008 24-09-2019 06:25:17 9.5 C 32 %
4009 24-09-2019 06:35:18 9.5 C 32 %
4010 24-09-2019 06:45:17 9.5 C 32 %
4011 24-09-2019 06:55:17 9.3 C 32 %
4012 24-09-2019 07:05:18 9.2 C 32 %
4013 24-09-2019 07:15:17 9.3 C 32 %
4014 24-09-2019 07:25:17 9.3 C 32 %
4015 24-09-2019 07:35:18 9.2 C 32 %
4016 24-09-2019 07:45:17 9.5 C 33 %
4017 24-09-2019 07:55:17 10 C 33 %
4018 24-09-2019 08:05:18 10.3 C 33 %
4019 24-09-2019 08:15:17 10.5 C 33 %
4020 24-09-2019 08:25:17 10.6 C 32 %
4021 24-09-2019 08:35:17 11 C 32 %
4022 24-09-2019 08:45:17 10.8 C 32 %
4023 24-09-2019 08:55:17 11.1 C 31 %
4024 24-09-2019 09:05:17 11 C 30 %
4025 24-09-2019 09:15:18 11.1 C 30 %
Sensor: Nr:Datum:Temp:Feuchte:
Aussen-T/F 4026 24-09-2019 09:25:18 11.4 C 30 %
4027 24-09-2019 09:35:17 11.7 C 29 %
4028 24-09-2019 09:45:17 11.9 C 29 %
4029 24-09-2019 09:55:17 12.2 C 27 %
4030 24-09-2019 10:05:17 12.4 C 26 %
4031 24-09-2019 10:15:17 12.8 C 26 %
4032 24-09-2019 10:25:17 13.4 C 25 %
4033 24-09-2019 10:35:17 13.5 C 25 %
4034 24-09-2019 10:45:17 14 C 23 %
4035 24-09-2019 10:55:17 14.5 C 25 %
4036 24-09-2019 11:05:17 15 C 22 %
4037 24-09-2019 11:15:17 15.5 C 21 %
4038 24-09-2019 11:25:17 16 C 20 %
4039 24-09-2019 11:35:18 16.3 C 20 %
4040 24-09-2019 11:45:17 17.3 C 20 %
4041 24-09-2019 11:55:17 18.1 C 20 %
4042 24-09-2019 12:05:17 18.1 C 20 %
4043 24-09-2019 12:15:17 18.5 C 20 %
4044 24-09-2019 12:25:17 19 C 20 %
4045 24-09-2019 12:35:18 19.3 C 20 %
4046 24-09-2019 12:45:17 19.4 C 20 %
4047 24-09-2019 12:55:17 18.9 C 20 %
4048 24-09-2019 13:05:18 19.1 C 20 %
4049 24-09-2019 13:15:17 18.9 C 20 %
4050 24-09-2019 13:25:17 19.6 C 20 %
Sensor: Nr:Datum:Temp:Feuchte:
Aussen-T/F 4051 24-09-2019 13:35:17 19.3 C 20 %
4052 24-09-2019 13:45:17 19.8 C 20 %
4053 24-09-2019 13:55:17 20.2 C 20 %
4054 24-09-2019 14:05:17 20.3 C 20 %
4055 24-09-2019 14:15:17 19.8 C 20 %
4056 24-09-2019 14:25:17 19.8 C 20 %
4057 24-09-2019 14:35:17 19.3 C 20 %
4058 24-09-2019 14:45:17 19.2 C 20 %
4059 24-09-2019 14:55:17 19.1 C 20 %
4060 24-09-2019 15:05:17 18.7 C 20 %
4061 24-09-2019 15:15:17 18.7 C 20 %
4062 24-09-2019 15:25:17 18.4 C 20 %
4063 24-09-2019 15:35:17 18.5 C 20 %
4064 24-09-2019 15:45:17 18.6 C 20 %
4065 24-09-2019 15:55:17 18.2 C 20 %
4066 24-09-2019 16:05:17 16.9 C 20 %
4067 24-09-2019 16:15:17 16.5 C 20 %
4068 24-09-2019 16:25:17 16.6 C 20 %
4069 24-09-2019 16:35:17 16.1 C 20 %
4070 24-09-2019 16:45:17 15.9 C 25 %
4071 24-09-2019 16:55:17 16 C 24 %
4072 24-09-2019 17:05:17 16.4 C 22 %
4073 24-09-2019 17:15:17 16.5 C 22 %
4074 24-09-2019 17:25:17 16.4 C 23 %
4075 24-09-2019 17:35:17 16.3 C 24 %
Sensor: Nr:Datum:Temp:Feuchte:
Aussen-T/F 4076 24-09-2019 17:45:17 16.1 C 25 %
4077 24-09-2019 17:55:17 16 C 25 %
4078 24-09-2019 18:05:17 15.7 C 26 %
4079 24-09-2019 18:15:17 15.5 C 26 %
4080 24-09-2019 18:25:17 15.4 C 27 %
4081 24-09-2019 18:35:17 15.2 C 27 %
4082 24-09-2019 18:45:18 15.1 C 28 %
4083 24-09-2019 18:55:18 15.1 C 28 %
4084 24-09-2019 19:05:17 14.9 C 29 %
4085 24-09-2019 19:15:17 14.7 C 29 %
4086 24-09-2019 19:25:17 14.4 C 29 %
4087 24-09-2019 19:35:18 14.3 C 29 %
4088 24-09-2019 19:45:17 14 C 29 %
4089 24-09-2019 19:55:17 13.8 C 29 %
4090 24-09-2019 20:05:18 13.7 C 30 %
4091 24-09-2019 20:15:17 13.7 C 30 %
4092 24-09-2019 20:25:17 13.6 C 30 %
4093 24-09-2019 20:35:17 13.5 C 30 %
4094 24-09-2019 20:45:17 13.5 C 30 %
4095 24-09-2019 20:55:17 13.5 C 30 %
4096 24-09-2019 21:05:17 13.4 C 30 %
4097 24-09-2019 21:15:17 13.4 C 30 %
4098 24-09-2019 21:25:17 13.4 C 30 %
4099 24-09-2019 21:35:17 13.3 C 30 %
4100 24-09-2019 21:45:18 13.4 C 30 %
Sensor: Nr:Datum:Temp:Feuchte:
Aussen-T/F 4101 24-09-2019 21:55:18 13.3 C 30 %
4102 24-09-2019 22:05:17 13.4 C 30 %
4103 24-09-2019 22:15:17 13.4 C 30 %
4104 24-09-2019 22:25:17 13.4 C 30 %
4105 24-09-2019 22:35:17 13.4 C 30 %
4106 24-09-2019 22:45:18 13.4 C 30 %
4107 24-09-2019 22:55:18 13.4 C 31 %
4108 24-09-2019 23:05:17 13.6 C 31 %
4109 24-09-2019 23:15:17 13.5 C 31 %
4110 24-09-2019 23:25:17 13.5 C 31 %
4111 24-09-2019 23:35:17 13.5 C 31 %
4112 24-09-2019 23:45:17 13.5 C 31 %
4113 24-09-2019 23:55:17 13.6 C 31 %
Sensor: Nr:Datum:Temp:Feuchte:
G-T/H 1 25-08-2019 00:08:17 19.6 C 61 %
2 25-08-2019 00:20:17 19.6 C 61 %
3 25-08-2019 00:32:17 19.6 C 62 %
4 25-08-2019 00:44:17 19.5 C 62 %
5 25-08-2019 00:56:18 19.5 C 62 %
6 25-08-2019 01:08:17 19.5 C 62 %
7 25-08-2019 01:20:18 19.5 C 62 %
8 25-08-2019 01:32:17 19.5 C 62 %
9 25-08-2019 01:44:17 19.5 C 62 %
10 25-08-2019 01:56:17 19.5 C 62 %
11 25-08-2019 02:08:17 19.5 C 62 %
12 25-08-2019 02:20:17 19.5 C 62 %
13 25-08-2019 02:32:17 19.5 C 62 %
14 25-08-2019 02:44:18 19.4 C 62 %
15 25-08-2019 02:56:17 19.4 C 62 %
16 25-08-2019 03:08:17 19.4 C 62 %
17 25-08-2019 03:20:17 19.4 C 62 %
18 25-08-2019 03:32:17 19.4 C 63 %
19 25-08-2019 03:44:17 19.4 C 63 %
20 25-08-2019 03:56:18 19.4 C 63 %
21 25-08-2019 04:08:17 19.4 C 63 %
22 25-08-2019 04:20:18 19.4 C 63 %
23 25-08-2019 04:32:17 19.4 C 63 %
24 25-08-2019 04:44:17 19.3 C 63 %
25 25-08-2019 04:56:17 19.3 C 63 %
Sensor: Nr:Datum:Temp:Feuchte:
G-T/H 26 25-08-2019 05:08:17 19.3 C 63 %
27 25-08-2019 05:20:17 19.3 C 63 %
28 25-08-2019 05:32:17 19.3 C 63 %
29 25-08-2019 05:44:17 19.2 C 63 %
30 25-08-2019 05:56:17 19.2 C 63 %
31 25-08-2019 06:08:17 19.2 C 63 %
32 25-08-2019 06:20:18 19.2 C 63 %
33 25-08-2019 06:32:17 19.2 C 63 %
34 25-08-2019 06:44:17 19.1 C 63 %
35 25-08-2019 06:56:17 19.2 C 64 %
36 25-08-2019 07:08:17 19.1 C 64 %
37 25-08-2019 07:20:17 19.1 C 64 %
38 25-08-2019 07:32:18 19.1 C 64 %
39 25-08-2019 07:44:18 19.1 C 64 %
40 25-08-2019 07:56:17 19.1 C 64 %
41 25-08-2019 08:08:17 19.1 C 64 %
42 25-08-2019 08:20:17 19.1 C 63 %
43 25-08-2019 08:32:17 19.1 C 63 %
44 25-08-2019 08:44:17 19.1 C 63 %
45 25-08-2019 08:56:18 19 C 63 %
46 25-08-2019 09:08:17 19.1 C 63 %
47 25-08-2019 09:20:18 19 C 63 %
48 25-08-2019 09:32:17 19 C 63 %
49 25-08-2019 09:44:17 19.1 C 63 %
50 25-08-2019 09:56:17 19 C 63 %
Sensor: Nr:Datum:Temp:Feuchte:
G-T/H 51 25-08-2019 10:08:17 19.1 C 63 %
52 25-08-2019 10:20:17 19 C 63 %
53 25-08-2019 10:32:17 19 C 63 %
54 25-08-2019 10:44:17 19.1 C 63 %
55 25-08-2019 10:56:17 19 C 63 %
56 25-08-2019 11:08:17 19 C 63 %
57 25-08-2019 11:20:18 19.1 C 63 %
58 25-08-2019 11:32:17 19.1 C 62 %
59 25-08-2019 11:44:18 19.1 C 63 %
60 25-08-2019 11:56:17 19.1 C 63 %
61 25-08-2019 12:08:18 19.1 C 63 %
62 25-08-2019 12:20:17 19.1 C 63 %
63 25-08-2019 12:32:18 19.1 C 63 %
64 25-08-2019 12:44:18 19.2 C 63 %
65 25-08-2019 12:56:17 19.2 C 63 %
66 25-08-2019 13:08:17 19.2 C 63 %
67 25-08-2019 13:20:17 19.2 C 63 %
68 25-08-2019 13:32:17 19.2 C 63 %
69 25-08-2019 13:44:17 19.2 C 63 %
70 25-08-2019 13:56:17 19.3 C 63 %
71 25-08-2019 14:08:18 19.3 C 63 %
72 25-08-2019 14:20:17 19.3 C 63 %
73 25-08-2019 14:32:17 19.4 C 63 %
74 25-08-2019 14:44:17 19.4 C 63 %
75 25-08-2019 14:56:17 19.5 C 63 %
Sensor: Nr:Datum:Temp:Feuchte:
G-T/H 76 25-08-2019 15:08:18 19.5 C 63 %
77 25-08-2019 15:20:17 19.5 C 63 %
78 25-08-2019 15:32:18 19.5 C 63 %
79 25-08-2019 15:44:18 19.6 C 64 %
80 25-08-2019 15:56:17 19.6 C 64 %
81 25-08-2019 16:08:17 19.6 C 64 %
82 25-08-2019 16:20:18 19.7 C 64 %
83 25-08-2019 16:32:17 19.7 C 64 %
84 25-08-2019 16:44:17 19.7 C 64 %
85 25-08-2019 16:56:18 19.7 C 64 %
86 25-08-2019 17:08:17 19.8 C 64 %
87 25-08-2019 17:20:17 19.8 C 64 %
88 25-08-2019 17:32:18 19.9 C 64 %
89 25-08-2019 17:44:18 19.9 C 64 %
90 25-08-2019 17:56:17 20 C 64 %
91 25-08-2019 18:08:18 20 C 64 %
92 25-08-2019 18:20:18 20 C 64 %
93 25-08-2019 18:32:17 20 C 64 %
94 25-08-2019 18:44:17 20 C 64 %
95 25-08-2019 18:56:18 20 C 64 %
96 25-08-2019 19:08:17 20.1 C 64 %
97 25-08-2019 19:20:18 20.1 C 64 %
98 25-08-2019 19:32:17 20 C 64 %
99 25-08-2019 19:44:17 20.1 C 64 %
100 25-08-2019 19:56:18 20.1 C 64 %
Sensor: Nr:Datum:Temp:Feuchte:
G-T/H 101 25-08-2019 20:08:17 20.1 C 64 %
102 25-08-2019 20:20:18 20.1 C 64 %
103 25-08-2019 20:32:17 20.2 C 64 %
104 25-08-2019 20:44:17 20.1 C 64 %
105 25-08-2019 20:56:17 20.2 C 64 %
106 25-08-2019 21:08:17 20.2 C 64 %
107 25-08-2019 21:20:17 20.2 C 64 %
108 25-08-2019 21:32:18 20.2 C 65 %
109 25-08-2019 21:44:18 20.2 C 65 %
110 25-08-2019 21:56:17 20.2 C 65 %
111 25-08-2019 22:08:18 20.2 C 65 %
112 25-08-2019 22:20:17 20.2 C 65 %
113 25-08-2019 22:32:18 20.2 C 65 %
114 25-08-2019 22:44:18 20.2 C 65 %
115 25-08-2019 22:56:17 20.2 C 65 %
116 25-08-2019 23:08:18 20.2 C 65 %
117 25-08-2019 23:20:17 20.2 C 65 %
118 25-08-2019 23:32:18 20.2 C 65 %
119 25-08-2019 23:44:18 20.2 C 65 %
120 25-08-2019 23:56:17 20.2 C 65 %
121 26-08-2019 00:08:18 20.2 C 65 %
122 26-08-2019 00:20:17 20.2 C 65 %
123 26-08-2019 00:32:17 20.3 C 65 %
124 26-08-2019 00:44:17 20.2 C 65 %
125 26-08-2019 00:56:18 20.2 C 65 %
Sensor: Nr:Datum:Temp:Feuchte:
G-T/H 126 26-08-2019 01:08:17 20.2 C 65 %
127 26-08-2019 01:20:18 20.2 C 65 %
128 26-08-2019 01:32:17 20.2 C 65 %
129 26-08-2019 01:44:17 20.2 C 65 %
130 26-08-2019 01:56:17 20.2 C 65 %
131 26-08-2019 02:08:17 20.2 C 65 %
132 26-08-2019 02:20:17 20.1 C 65 %
133 26-08-2019 02:32:17 20.1 C 65 %
134 26-08-2019 02:44:17 20.2 C 65 %
135 26-08-2019 02:56:17 20.2 C 65 %
136 26-08-2019 03:08:17 20.1 C 65 %
137 26-08-2019 03:20:17 20.1 C 65 %
138 26-08-2019 03:32:17 20.1 C 65 %
139 26-08-2019 03:44:18 20.1 C 65 %
140 26-08-2019 03:56:17 20.1 C 65 %
141 26-08-2019 04:08:17 20.1 C 65 %
142 26-08-2019 04:20:17 20.1 C 65 %
143 26-08-2019 04:32:17 20.1 C 65 %
144 26-08-2019 04:44:17 20 C 65 %
145 26-08-2019 04:56:18 20 C 65 %
146 26-08-2019 05:08:17 20 C 65 %
147 26-08-2019 05:20:17 20 C 65 %
148 26-08-2019 05:32:17 20 C 65 %
149 26-08-2019 05:44:17 20 C 65 %
150 26-08-2019 05:56:18 19.9 C 66 %
Sensor: Nr:Datum:Temp:Feuchte:
G-T/H 151 26-08-2019 06:08:17 20 C 65 %
152 26-08-2019 06:20:18 19.9 C 66 %
153 26-08-2019 06:32:17 19.9 C 66 %
154 26-08-2019 06:44:17 19.9 C 66 %
155 26-08-2019 06:56:17 19.9 C 66 %
156 26-08-2019 07:08:17 19.9 C 66 %
157 26-08-2019 07:20:17 19.6 C 67 %
158 26-08-2019 07:32:17 19.3 C 68 %
159 26-08-2019 07:44:17 19.2 C 69 %
160 26-08-2019 07:56:17 19.1 C 70 %
161 26-08-2019 08:08:17 19.2 C 71 %
162 26-08-2019 08:20:17 19.1 C 71 %
163 26-08-2019 08:32:17 19.2 C 72 %
164 26-08-2019 08:44:17 19.3 C 72 %
165 26-08-2019 08:56:17 19.3 C 72 %
166 26-08-2019 09:08:17 19.4 C 73 %
167 26-08-2019 09:20:17 19.4 C 73 %
168 26-08-2019 09:32:17 19.6 C 74 %
169 26-08-2019 09:44:17 19.7 C 74 %
170 26-08-2019 09:56:18 19.7 C 74 %
171 26-08-2019 10:08:17 20 C 72 %
172 26-08-2019 10:20:17 20.1 C 72 %
173 26-08-2019 10:32:17 20.2 C 72 %
174 26-08-2019 10:44:17 20.5 C 73 %
175 26-08-2019 10:56:18 20.5 C 73 %
Sensor: Nr:Datum:Temp:Feuchte:
G-T/H 176 26-08-2019 11:08:17 21 C 72 %
177 26-08-2019 11:20:18 21.1 C 72 %
178 26-08-2019 11:32:17 21.6 C 73 %
179 26-08-2019 11:44:17 21.8 C 73 %
180 26-08-2019 11:56:17 22.2 C 71 %
181 26-08-2019 12:08:17 22.3 C 71 %
182 26-08-2019 12:20:17 22.7 C 70 %
183 26-08-2019 12:32:17 22.8 C 69 %
184 26-08-2019 12:44:17 23.2 C 67 %
185 26-08-2019 12:56:17 23.2 C 67 %
186 26-08-2019 13:08:18 23.8 C 65 %
187 26-08-2019 13:20:17 23.8 C 64 %
188 26-08-2019 13:32:17 24 C 62 %
189 26-08-2019 13:44:17 24.2 C 60 %
190 26-08-2019 13:56:17 24.4 C 59 %
191 26-08-2019 14:08:18 24.6 C 57 %
192 26-08-2019 14:20:17 24.8 C 56 %
193 26-08-2019 14:32:17 25 C 55 %
194 26-08-2019 14:44:17 25.1 C 55 %
195 26-08-2019 14:56:17 25.2 C 55 %
196 26-08-2019 15:08:17 25.7 C 53 %
197 26-08-2019 15:20:18 25.6 C 52 %
198 26-08-2019 15:32:17 25.6 C 52 %
199 26-08-2019 15:44:17 25.6 C 53 %
200 26-08-2019 15:56:18 25.4 C 55 %
Sensor: Nr:Datum:Temp:Feuchte:
G-T/H 201 26-08-2019 16:08:17 25.2 C 55 %
202 26-08-2019 16:20:17 25.2 C 55 %
203 26-08-2019 16:32:17 25.1 C 55 %
204 26-08-2019 16:44:17 24.9 C 57 %
205 26-08-2019 16:56:17 24.6 C 57 %
206 26-08-2019 17:08:17 24.4 C 58 %
207 26-08-2019 17:20:17 24.2 C 59 %
208 26-08-2019 17:32:17 24 C 59 %
209 26-08-2019 17:44:17 23.9 C 60 %
210 26-08-2019 17:56:17 23.8 C 61 %
211 26-08-2019 18:08:17 23.7 C 61 %
212 26-08-2019 18:20:17 23.5 C 61 %
213 26-08-2019 18:32:17 23.6 C 62 %
214 26-08-2019 18:44:17 23.5 C 62 %
215 26-08-2019 18:56:17 23.4 C 62 %
216 26-08-2019 19:08:17 23.3 C 62 %
217 26-08-2019 19:20:17 23.3 C 62 %
218 26-08-2019 19:32:17 23.2 C 63 %
219 26-08-2019 19:44:17 23.2 C 63 %
220 26-08-2019 19:56:18 23.1 C 63 %
221 26-08-2019 20:08:17 23.1 C 63 %
222 26-08-2019 20:20:17 23 C 63 %
223 26-08-2019 20:32:17 22.9 C 64 %
224 26-08-2019 20:44:18 22.9 C 64 %
225 26-08-2019 20:56:17 22.8 C 64 %
Sensor: Nr:Datum:Temp:Feuchte:
G-T/H 226 26-08-2019 21:08:17 22.8 C 64 %
227 26-08-2019 21:20:17 22.7 C 64 %
228 26-08-2019 21:32:17 22.7 C 64 %
229 26-08-2019 21:44:17 22.7 C 64 %
230 26-08-2019 21:56:17 22.6 C 64 %
231 26-08-2019 22:08:17 22.6 C 64 %
232 26-08-2019 22:20:17 22.5 C 65 %
233 26-08-2019 22:32:17 22.5 C 65 %
234 26-08-2019 22:44:17 22.4 C 65 %
235 26-08-2019 22:56:18 22.4 C 65 %
236 26-08-2019 23:08:17 22.3 C 65 %
237 26-08-2019 23:20:18 22.3 C 65 %
238 26-08-2019 23:32:17 22.3 C 65 %
239 26-08-2019 23:44:17 22.3 C 65 %
240 26-08-2019 23:56:17 22.2 C 65 %
241 27-08-2019 00:08:17 22.1 C 65 %
242 27-08-2019 00:20:17 22.2 C 65 %
243 27-08-2019 00:32:18 22.1 C 65 %
244 27-08-2019 00:44:18 22.1 C 65 %
245 27-08-2019 00:56:17 22 C 65 %
246 27-08-2019 01:08:18 22 C 65 %
247 27-08-2019 01:20:17 22 C 65 %
248 27-08-2019 01:32:18 22 C 65 %
249 27-08-2019 01:44:18 21.9 C 66 %
250 27-08-2019 01:56:17 21.9 C 66 %
Sensor: Nr:Datum:Temp:Feuchte:
G-T/H 251 27-08-2019 02:08:17 21.9 C 66 %
252 27-08-2019 02:20:17 21.8 C 66 %
253 27-08-2019 02:32:18 21.8 C 66 %
254 27-08-2019 02:44:18 21.7 C 66 %
255 27-08-2019 02:56:17 21.7 C 66 %
256 27-08-2019 03:08:18 21.7 C 66 %
257 27-08-2019 03:20:17 21.7 C 66 %
258 27-08-2019 03:32:18 21.7 C 66 %
259 27-08-2019 03:44:18 21.6 C 66 %
260 27-08-2019 03:56:17 21.6 C 66 %
261 27-08-2019 04:08:18 21.6 C 66 %
262 27-08-2019 04:20:17 21.6 C 66 %
263 27-08-2019 04:32:18 21.5 C 66 %
264 27-08-2019 04:44:18 21.5 C 66 %
265 27-08-2019 04:56:17 21.5 C 66 %
266 27-08-2019 05:08:18 21.4 C 66 %
267 27-08-2019 05:20:17 21.4 C 66 %
268 27-08-2019 05:32:18 21.3 C 66 %
269 27-08-2019 05:44:18 21.3 C 66 %
270 27-08-2019 05:56:17 21.3 C 66 %
271 27-08-2019 06:08:18 21.3 C 66 %
272 27-08-2019 06:20:17 21.2 C 66 %
273 27-08-2019 06:32:18 21.2 C 66 %
274 27-08-2019 06:44:18 21.2 C 66 %
275 27-08-2019 06:56:17 21.2 C 66 %
Sensor: Nr:Datum:Temp:Feuchte:
G-T/H 276 27-08-2019 07:08:17 21.2 C 66 %
277 27-08-2019 07:20:17 21.1 C 66 %
278 27-08-2019 07:32:17 21.1 C 66 %
279 27-08-2019 07:44:17 21 C 66 %
280 27-08-2019 07:56:17 21 C 66 %
281 27-08-2019 08:08:18 21 C 66 %
282 27-08-2019 08:20:17 21 C 66 %
283 27-08-2019 08:32:18 21 C 66 %
284 27-08-2019 08:44:18 20.9 C 67 %
285 27-08-2019 08:56:17 20.9 C 67 %
286 27-08-2019 09:08:17 20.9 C 67 %
287 27-08-2019 09:20:17 20.9 C 67 %
288 27-08-2019 09:32:18 20.9 C 67 %
289 27-08-2019 09:44:18 20.8 C 67 %
290 27-08-2019 09:56:17 20.9 C 67 %
291 27-08-2019 10:08:18 20.8 C 67 %
292 27-08-2019 10:20:17 20.8 C 67 %
293 27-08-2019 10:32:17 20.8 C 67 %
294 27-08-2019 10:44:17 20.9 C 67 %
295 27-08-2019 10:56:17 20.8 C 67 %
296 27-08-2019 11:08:18 20.8 C 66 %
297 27-08-2019 11:20:17 20.8 C 66 %
298 27-08-2019 11:32:17 20.8 C 66 %
299 27-08-2019 11:44:17 20.8 C 66 %
300 27-08-2019 11:56:17 20.8 C 66 %
Sensor: Nr:Datum:Temp:Feuchte:
G-T/H 301 27-08-2019 12:08:18 20.8 C 67 %
302 27-08-2019 12:20:17 20.8 C 67 %
303 27-08-2019 12:32:18 20.8 C 67 %
304 27-08-2019 12:44:18 20.8 C 67 %
305 27-08-2019 12:56:17 20.8 C 67 %
306 27-08-2019 13:08:17 20.9 C 67 %
307 27-08-2019 13:20:18 20.9 C 67 %
308 27-08-2019 13:32:17 20.9 C 67 %
309 27-08-2019 13:44:17 21 C 66 %
310 27-08-2019 13:56:18 21 C 66 %
311 27-08-2019 14:08:17 21 C 66 %
312 27-08-2019 14:21:17 21 C 66 %
313 27-08-2019 14:32:18 21 C 66 %
314 27-08-2019 14:44:18 21 C 66 %
315 27-08-2019 14:56:17 21.1 C 66 %
316 27-08-2019 15:09:17 21.1 C 66 %
317 27-08-2019 15:20:17 21.1 C 66 %
318 27-08-2019 15:33:17 21.2 C 66 %
319 27-08-2019 15:44:17 21.2 C 66 %
320 27-08-2019 15:56:17 21.2 C 66 %
321 27-08-2019 16:09:17 21.2 C 65 %
322 27-08-2019 16:20:17 21.3 C 65 %
323 27-08-2019 16:33:17 21.2 C 65 %
324 27-08-2019 16:45:17 21.3 C 65 %
325 27-08-2019 16:56:17 21.3 C 65 %
Sensor: Nr:Datum:Temp:Feuchte:
G-T/H 326 27-08-2019 17:08:18 21.3 C 65 %
327 27-08-2019 17:20:17 21.3 C 65 %
328 27-08-2019 17:33:17 21.4 C 65 %
329 27-08-2019 17:44:17 21.3 C 65 %
330 27-08-2019 17:56:17 21.4 C 65 %
331 27-08-2019 18:08:18 21.4 C 66 %
332 27-08-2019 18:20:17 21.4 C 66 %
333 27-08-2019 18:32:17 21.4 C 66 %
334 27-08-2019 18:44:18 21.5 C 66 %
335 27-08-2019 18:57:17 21.5 C 66 %
336 27-08-2019 19:08:17 21.5 C 66 %
337 27-08-2019 19:21:17 21.5 C 66 %
338 27-08-2019 19:32:17 21.5 C 66 %
339 27-08-2019 19:44:17 21.5 C 66 %
340 27-08-2019 19:57:17 21.5 C 66 %
341 27-08-2019 20:09:17 21.5 C 66 %
342 27-08-2019 20:20:18 21.5 C 66 %
343 27-08-2019 20:33:17 21.5 C 67 %
344 27-08-2019 20:44:17 21.5 C 67 %
345 27-08-2019 20:56:17 21.5 C 67 %
346 27-08-2019 21:09:17 21.5 C 67 %
347 27-08-2019 21:20:17 21.5 C 67 %
348 27-08-2019 21:33:17 21.5 C 67 %
349 27-08-2019 21:45:17 21.5 C 67 %
350 27-08-2019 21:56:17 21.5 C 67 %
Sensor: Nr:Datum:Temp:Feuchte:
G-T/H 351 27-08-2019 22:09:17 21.5 C 67 %
352 27-08-2019 22:20:18 21.5 C 67 %
353 27-08-2019 22:33:17 21.5 C 67 %
354 27-08-2019 22:44:18 21.5 C 67 %
355 27-08-2019 22:56:18 21.5 C 67 %
356 27-08-2019 23:09:17 21.5 C 67 %
357 27-08-2019 23:21:17 21.4 C 67 %
358 27-08-2019 23:33:17 21.5 C 67 %
359 27-08-2019 23:45:17 21.4 C 67 %
360 27-08-2019 23:57:17 21.4 C 67 %
361 28-08-2019 00:09:17 21.4 C 67 %
362 28-08-2019 00:21:17 21.4 C 67 %
363 28-08-2019 00:33:17 21.4 C 67 %
364 28-08-2019 00:45:17 21.4 C 67 %
365 28-08-2019 00:57:17 21.4 C 67 %
366 28-08-2019 01:09:17 21.4 C 67 %
367 28-08-2019 01:21:17 21.4 C 67 %
368 28-08-2019 01:33:17 21.3 C 67 %
369 28-08-2019 01:45:17 21.3 C 67 %
370 28-08-2019 01:57:17 21.3 C 67 %
371 28-08-2019 02:09:18 21.3 C 67 %
372 28-08-2019 02:21:17 21.3 C 67 %
373 28-08-2019 02:33:18 21.3 C 67 %
374 28-08-2019 02:45:17 21.3 C 67 %
375 28-08-2019 02:57:17 21.2 C 67 %
Sensor: Nr:Datum:Temp:Feuchte:
G-T/H 376 28-08-2019 03:09:17 21.3 C 67 %
377 28-08-2019 03:21:18 21.2 C 67 %
378 28-08-2019 03:33:17 21.2 C 67 %
379 28-08-2019 03:45:17 21.2 C 67 %
380 28-08-2019 03:57:17 21.2 C 67 %
381 28-08-2019 04:09:17 21.2 C 67 %
382 28-08-2019 04:21:18 21.2 C 67 %
383 28-08-2019 04:33:17 21.1 C 67 %
384 28-08-2019 04:45:17 21.1 C 67 %
385 28-08-2019 04:57:17 21.1 C 67 %
386 28-08-2019 05:09:17 21.1 C 67 %
387 28-08-2019 05:21:18 21.1 C 67 %
388 28-08-2019 05:33:17 21.1 C 67 %
389 28-08-2019 05:45:18 21 C 67 %
390 28-08-2019 05:57:18 21 C 67 %
391 28-08-2019 06:09:17 21 C 67 %
392 28-08-2019 06:21:17 21 C 67 %
393 28-08-2019 06:33:17 20.9 C 68 %
394 28-08-2019 06:45:18 20.9 C 68 %
395 28-08-2019 06:57:18 20.9 C 68 %
396 28-08-2019 07:09:17 20.9 C 68 %
397 28-08-2019 07:21:18 20.9 C 68 %
398 28-08-2019 07:33:17 20.9 C 68 %
399 28-08-2019 07:45:17 20.9 C 68 %
400 28-08-2019 07:57:17 20.8 C 68 %
Sensor: Nr:Datum:Temp:Feuchte:
G-T/H 401 28-08-2019 08:09:17 20.8 C 68 %
402 28-08-2019 08:21:18 20.8 C 68 %
403 28-08-2019 08:33:17 20.8 C 68 %
404 28-08-2019 08:45:17 20.8 C 68 %
405 28-08-2019 08:57:17 20.8 C 68 %
406 28-08-2019 09:09:17 20.8 C 68 %
407 28-08-2019 09:21:17 20.8 C 68 %
408 28-08-2019 09:33:17 20.8 C 68 %
409 28-08-2019 09:45:18 20.8 C 68 %
410 28-08-2019 09:57:18 20.8 C 68 %
411 28-08-2019 10:09:17 20.8 C 68 %
412 28-08-2019 10:21:18 20.8 C 68 %
413 28-08-2019 10:33:17 20.8 C 68 %
414 28-08-2019 10:45:17 20.8 C 67 %
415 28-08-2019 10:57:18 20.8 C 67 %
416 28-08-2019 11:09:17 20.8 C 67 %
417 28-08-2019 11:21:17 20.8 C 67 %
418 28-08-2019 11:33:17 20.8 C 67 %
419 28-08-2019 11:45:18 20.8 C 67 %
420 28-08-2019 11:57:18 20.8 C 67 %
421 28-08-2019 12:09:17 20.8 C 67 %
422 28-08-2019 12:21:18 20.7 C 67 %
423 28-08-2019 12:33:17 20.8 C 67 %
424 28-08-2019 12:45:17 20.8 C 67 %
425 28-08-2019 12:57:17 20.8 C 67 %
Sensor: Nr:Datum:Temp:Feuchte:
G-T/H 426 28-08-2019 13:09:17 20.8 C 67 %
427 28-08-2019 13:21:18 20.8 C 67 %
428 28-08-2019 13:33:17 20.8 C 67 %
429 28-08-2019 13:45:17 20.8 C 67 %
430 28-08-2019 13:57:17 20.8 C 67 %
431 28-08-2019 14:09:17 20.8 C 67 %
432 28-08-2019 14:21:18 20.9 C 67 %
433 28-08-2019 14:33:17 20.9 C 67 %
434 28-08-2019 14:45:18 20.9 C 67 %
435 28-08-2019 14:57:18 20.9 C 67 %
436 28-08-2019 15:09:17 20.9 C 67 %
437 28-08-2019 15:21:18 20.9 C 67 %
438 28-08-2019 15:33:17 21 C 66 %
439 28-08-2019 15:45:18 20.9 C 67 %
440 28-08-2019 15:57:18 21 C 66 %
441 28-08-2019 16:09:17 21 C 66 %
442 28-08-2019 16:21:17 21 C 66 %
443 28-08-2019 16:33:17 21 C 66 %
444 28-08-2019 16:45:18 21.1 C 66 %
445 28-08-2019 16:57:18 21 C 65 %
446 28-08-2019 17:09:17 21 C 65 %
447 28-08-2019 17:21:17 21.1 C 65 %
448 28-08-2019 17:33:17 21.1 C 65 %
449 28-08-2019 17:45:17 21.1 C 65 %
450 28-08-2019 17:57:17 21.2 C 65 %
Sensor: Nr:Datum:Temp:Feuchte:
G-T/H 451 28-08-2019 18:09:17 21.2 C 65 %
452 28-08-2019 18:21:17 21.2 C 65 %
453 28-08-2019 18:33:17 21.2 C 65 %
454 28-08-2019 18:45:18 21.3 C 65 %
455 28-08-2019 18:57:18 21.3 C 65 %
456 28-08-2019 19:09:17 21.3 C 65 %
457 28-08-2019 19:21:17 21.3 C 65 %
458 28-08-2019 19:33:17 21.2 C 65 %
459 28-08-2019 19:45:17 21.2 C 65 %
460 28-08-2019 19:57:17 21.3 C 65 %
461 28-08-2019 20:09:18 21.3 C 65 %
462 28-08-2019 20:21:17 21.3 C 65 %
463 28-08-2019 20:33:18 21.3 C 65 %
464 28-08-2019 20:45:17 21.3 C 65 %
465 28-08-2019 20:57:17 21.3 C 66 %
466 28-08-2019 21:09:18 21.3 C 66 %
467 28-08-2019 21:21:17 21.3 C 66 %
468 28-08-2019 21:33:17 21.3 C 66 %
469 28-08-2019 21:45:18 21.3 C 66 %
470 28-08-2019 21:57:18 21.3 C 66 %
471 28-08-2019 22:09:17 21.3 C 66 %
472 28-08-2019 22:21:17 21.3 C 66 %
473 28-08-2019 22:33:17 21.3 C 66 %
474 28-08-2019 22:45:18 21.3 C 66 %
475 28-08-2019 22:57:18 21.3 C 66 %
Sensor: Nr:Datum:Temp:Feuchte:
G-T/H 476 28-08-2019 23:09:17 21.3 C 66 %
477 28-08-2019 23:21:17 21.3 C 66 %
478 28-08-2019 23:33:17 21.3 C 66 %
479 28-08-2019 23:45:17 21.3 C 66 %
480 28-08-2019 23:57:17 21.3 C 66 %
481 29-08-2019 00:09:17 21.3 C 66 %
482 29-08-2019 00:21:17 21.2 C 66 %
483 29-08-2019 00:33:17 21.2 C 66 %
484 29-08-2019 00:45:17 21.3 C 66 %
485 29-08-2019 00:57:17 21.3 C 66 %
486 29-08-2019 01:09:17 21.2 C 66 %
487 29-08-2019 01:21:17 21.2 C 66 %
488 29-08-2019 01:33:17 21.2 C 66 %
489 29-08-2019 01:45:17 21.2 C 66 %
490 29-08-2019 01:57:17 21.2 C 66 %
491 29-08-2019 02:09:17 21.2 C 66 %
492 29-08-2019 02:21:17 21.2 C 66 %
493 29-08-2019 02:33:17 21.2 C 66 %
494 29-08-2019 02:45:17 21.1 C 66 %
495 29-08-2019 02:57:17 21.2 C 66 %
496 29-08-2019 03:09:18 21.2 C 66 %
497 29-08-2019 03:21:17 21.2 C 66 %
498 29-08-2019 03:33:17 21.2 C 66 %
499 29-08-2019 03:45:17 21.2 C 66 %
500 29-08-2019 03:57:17 21 C 66 %
Sensor: Nr:Datum:Temp:Feuchte:
G-T/H 501 29-08-2019 04:09:18 21.1 C 66 %
502 29-08-2019 04:21:17 21 C 66 %
503 29-08-2019 04:33:17 21 C 66 %
504 29-08-2019 04:45:17 21 C 66 %
505 29-08-2019 04:57:17 21 C 66 %
506 29-08-2019 05:09:17 21 C 66 %
507 29-08-2019 05:21:17 20.9 C 67 %
508 29-08-2019 05:33:18 21 C 66 %
509 29-08-2019 05:45:17 20.9 C 67 %
510 29-08-2019 05:57:17 21 C 66 %
511 29-08-2019 06:09:17 21 C 66 %
512 29-08-2019 06:21:17 20.9 C 67 %
513 29-08-2019 06:33:17 20.9 C 67 %
514 29-08-2019 06:45:17 20.9 C 67 %
515 29-08-2019 06:57:17 20.9 C 67 %
516 29-08-2019 07:09:17 20.8 C 67 %
517 29-08-2019 07:21:17 20.9 C 67 %
518 29-08-2019 07:33:17 20.8 C 67 %
519 29-08-2019 07:45:18 20.8 C 68 %
520 29-08-2019 07:57:18 20.8 C 68 %
521 29-08-2019 08:09:17 20.8 C 68 %
522 29-08-2019 08:21:17 20.8 C 68 %
523 29-08-2019 08:33:17 20.8 C 68 %
524 29-08-2019 08:45:18 20.8 C 68 %
525 29-08-2019 08:57:18 20.8 C 68 %
Sensor: Nr:Datum:Temp:Feuchte:
G-T/H 526 29-08-2019 09:09:17 20.8 C 68 %
527 29-08-2019 09:21:17 20.8 C 68 %
528 29-08-2019 09:33:17 20.8 C 68 %